GFSCGP_con_sbcape_000.txt.gz
CAPE
0 0 0 0 0 0 0 0 26 18 92 247 381 938 537 533 649 523 542 1200 1219 1317 1447 1815 2164 2318 2375 2475 2674 2873 2973 2996 2877 2856 2722 2630 2588 2477 2464 2336 2318 2442 2360 2475
0 0 0 0 0 0 0 0 0 26 125 253 804 910 906 652 329 587 587 1001 1103 1326 1426 1920 2026 2245 2334 2535 2697 2938 3123 3240 3296 2906 2834 2647 2362 1841 1988 2358 2249 1954 1658 1697
0 0 0 0 0 0 0 0 0 7 285 338 814 917 1414 1036 956 722 990 995 1375 1519 1614 1793 1910 2118 2188 2415 2847 2983 3181 3181 3442 3164 2306 1570 999 1430 825 853 672 1043 1213 1069
0 0 0 0 0 0 0 0 0 0 341 123 479 132 1425 1307 1345 1196 957 1428 1462 1662 1760 1725 1701 2061 2045 2342 2742 3656 3851 3501 2460 1503 925 982 228 340 515 443 370 752 547 791
0 0 0 0 0 0 1 1 27 70 265 267 706 302 138 1047 1255 1179 1189 1074 1179 1473 1689 1650 1396 1601 1873 2755 3121 2895 2355 1731 1180 1053 597 182 217 63 179 155 201 394 381 477
0 0 0 0 0 0 3 60 83 103 67 75 48 118 21 142 680 748 1096 1287 1367 1355 1506 1724 1556 1815 2457 2275 1960 1288 1374 1136 901 432 358 385 312 169 54 89 183 46 86 161
0 0 0 0 0 0 0 0 10 14 18 13 20 15 4 18 417 487 760 1306 1496 1315 1375 1581 2020 2306 2054 2026 1131 750 1049 1132 841 83 36 83 110 152 154 207 1 111 7 11
0 0 0 0 0 0 0 0 3 4 3 4 36 0 0 188 206 173 529 1018 1354 1245 1131 1453 2173 1987 1980 1547 863 672 1010 915 308 172 325 296 225 4 16 22 81 3 3 6
0 0 0 0 0 0 0 0 0 3 0 0 5 0 16 131 170 194 592 953 1414 912 1012 1435 1832 1744 1622 877 836 876 973 771 351 215 492 436 357 302 104 180 246 20 112 1
0 0 0 0 0 0 3 3 3 6 11 9 6 0 4 0 2 197 341 862 1505 811 928 1322 1471 1486 950 670 762 790 868 760 417 342 335 60 78 159 126 125 172 197 231 211
0 0 0 0 0 0 0 4 5 19 5 15 14 14 8 0 0 20 400 882 1387 831 669 1118 1416 1507 674 619 606 699 724 597 434 403 235 146 83 54 11 24 158 251 274 358
0 0 0 0 0 0 6 12 26 47 88 30 1 1 0 0 11 19 80 833 1151 1346 402 374 1234 1373 602 659 357 413 435 389 232 194 137 65 63 103 45 52 125 190 224 369
0 0 0 9 0 0 0 10 29 45 58 47 26 46 85 43 95 134 142 620 1204 1533 777 327 768 960 682 668 514 333 354 43 0 50 40 45 95 80 87 101 62 129 288 409
0 0 0 0 0 0 0 9 26 40 64 66 60 18 32 43 53 37 222 560 932 1320 1059 649 663 704 755 697 775 691 377 32 15 12 0 37 235 169 99 103 206 257 466 621
0 0 0 0 1 3 11 15 21 45 42 53 48 60 40 8 2 41 20 92 694 812 955 960 774 711 897 861 870 732 457 242 214 86 121 96 263 360 169 415 552 566 516 481
51 90 61 0 0 1 4 7 11 28 43 55 43 24 0 0 0 0 0 14 326 748 866 962 876 832 930 897 812 484 462 164 408 491 258 261 449 646 773 565 624 599 475 430
172 195 226 78 16 19 33 25 22 40 46 31 17 6 0 0 0 0 11 37 134 435 806 826 912 960 962 761 321 290 322 216 502 647 444 430 736 777 775 361 535 578 632 669
336 340 218 218 149 80 73 40 15 45 37 3 2 0 0 0 0 60 44 53 71 193 657 838 848 935 838 321 32 245 101 387 657 726 631 599 728 808 772 490 414 553 705 635
201 347 203 239 206 92 50 12 6 35 57 11 17 0 0 0 62 44 34 37 177 346 692 871 889 810 540 211 125 241 430 427 490 549 644 587 718 795 837 729 679 735 671 427
110 310 261 173 98 100 147 87 17 28 54 0 0 0 0 11 1 141 377 126 342 501 794 919 735 462 421 471 267 562 656 694 553 473 498 364 622 887 801 769 716 670 635 476
181 244 94 97 96 61 155 32 2 11 73 0 0 0 0 121 102 618 473 387 465 592 719 799 607 419 560 781 781 937 763 799 701 500 307 362 918 1295 1237 828 786 723 866 799
301 277 171 150 160 142 24 0 10 320 25 1 16 18 55 316 633 513 648 684 619 604 593 713 650 614 771 1106 1312 1331 1467 1738 1144 767 718 1125 1431 1309 540 1186 887 662 907 1089
146 210 332 199 358 185 4 52 7 13 84 228 301 392 373 559 515 541 736 772 686 670 604 554 696 1058 1266 1268 1513 1520 1774 1672 1398 1635 1330 1336 894 866 1243 1241 1104 749 653 502
0 0 38 93 190 13 0 0 4 20 88 146 139 162 430 713 434 528 720 773 742 748 747 724 797 877 928 953 1197 1493 1566 1653 1275 1145 1012 1259 1145 1123 1212 964 677 578 374 645
32 0 10 19 38 0 3 0 0 0 0 8 34 130 465 536 361 277 260 317 364 494 526 565 612 679 774 1017 1133 1031 983 793 811 812 907 959 825 831 820 1005 407 414 0 115
0 13 9 11 0 0 1 0 0 0 1 2 174 245 267 257 118 22 126 308 399 625 605 647 695 679 699 591 627 715 769 819 883 824 690 525 501 435 307 356 119 0 0 0

GFSCGP_con_sbcape_003.txt.gz
CAPE
0 0 0 0 0 2 19 1 27 32 29 74 105 151 505 590 365 364 613 925 818 850 918 1144 1385 1673 1948 2218 2668 2785 2963 3422 3314 3177 3094 3571 2711 3061 2549 3054 2537 2265 2457 2284
0 0 0 0 0 0 0 0 22 25 43 31 40 314 199 323 413 311 338 567 544 601 742 1229 1510 1705 1825 2088 2387 2806 3002 3526 3441 3187 3230 3237 2746 1774 1444 1770 1978 2103 1513 1952
0 0 0 0 0 0 0 0 1 19 16 7 93 106 409 186 250 321 241 331 407 527 530 865 1288 1415 1484 2084 2655 2875 3153 3324 3700 3595 3351 2464 2056 1953 1029 697 676 991 866 645
0 0 0 0 0 0 0 0 0 2 37 54 8 67 484 599 194 130 308 323 371 410 372 422 649 948 1093 1682 2345 3003 3422 3762 2941 1998 1253 1265 576 188 589 230 150 492 282 464
0 0 0 0 0 0 3 0 0 0 10 25 48 67 291 29 670 430 161 329 510 557 542 532 276 688 849 1559 2092 2950 3257 2052 1430 948 545 170 135 0 0 0 84 457 933 383
0 0 0 0 0 0 0 0 1 6 22 67 101 50 117 540 940 868 500 160 276 575 617 746 589 780 1104 1691 2229 2582 1938 1614 1072 524 372 250 160 121 28 111 121 40 6 71
0 0 0 0 0 0 0 2 11 23 53 73 16 41 96 17 139 42 346 442 339 380 569 823 935 1218 1663 1789 2003 1436 1542 1436 1029 368 60 8 101 171 273 327 32 188 5 10
0 0 0 0 0 0 0 1 16 22 40 49 8 0 0 0 21 87 162 307 580 803 749 828 1188 1524 1936 1754 1642 825 1439 1543 975 289 403 449 407 47 45 68 199 35 6 6
0 0 0 0 0 0 0 0 1 3 7 8 25 29 7 24 17 68 92 207 840 947 1074 962 1181 1945 1759 1705 1301 889 1368 1489 733 306 861 727 510 409 332 338 355 86 200 73
10 9 0 0 0 0 3 0 0 1 0 35 30 18 17 44 2 0 54 140 372 1124 1318 1016 1080 1948 1623 1625 888 645 886 1047 678 485 584 102 30 187 320 296 324 335 340 328
0 3 5 0 0 0 0 1 14 27 36 51 41 46 21 6 0 3 7 25 289 938 1436 950 1153 1557 1553 1310 739 365 679 780 740 620 499 187 87 97 179 149 125 274 384 427
0 0 1 3 0 0 2 2 9 35 50 26 31 29 2 2 5 28 15 22 162 1185 1615 1104 1285 1441 1418 950 688 326 315 433 501 383 366 160 208 233 136 157 136 187 214 334
0 0 5 6 20 0 0 2 26 35 53 140 112 82 30 3 15 36 41 26 219 1067 1623 1265 1324 1575 1647 926 1233 371 177 172 210 292 335 223 300 334 385 384 213 159 136 311
0 0 0 2 3 25 4 1 3 15 107 114 133 104 93 71 60 33 32 42 123 737 1515 1412 1192 1641 2185 1499 1569 637 275 144 120 125 32 118 301 569 546 516 350 447 516 568
0 5 0 0 0 50 25 16 9 44 36 61 78 22 52 33 5 11 0 7 56 459 1185 1681 974 1432 2489 1748 1856 827 383 300 151 175 184 270 411 637 764 679 617 552 533 479
0 11 0 7 17 5 44 53 60 48 54 46 50 82 59 2 0 0 0 0 0 58 761 1454 1371 1110 1757 1447 1123 815 492 424 522 523 445 405 435 606 787 800 701 666 618 737
144 83 94 60 68 50 70 46 57 82 108 77 107 104 67 1 0 0 0 0 2 0 302 970 1504 1929 2097 1257 1503 832 606 554 495 718 721 624 688 901 945 659 573 581 830 1328
320 332 200 200 165 170 83 80 84 95 115 135 103 81 18 0 0 0 1 31 129 102 67 718 1246 1574 1423 1314 1077 779 451 1004 953 869 873 826 842 914 942 880 862 1101 1023 1367
76 362 323 279 190 196 127 119 70 120 169 170 106 50 26 0 0 0 1 116 335 428 457 671 1148 1405 1696 1340 1068 990 489 683 719 934 1011 1014 897 1010 1083 1097 1251 1320 1276 875
112 213 312 311 241 170 91 126 93 85 117 119 145 94 4 0 9 400 265 292 478 686 894 1080 1213 1371 1424 1219 214 795 705 985 993 1278 1002 951 905 998 1066 1333 1206 1216 1490 744
327 228 163 111 196 209 181 267 51 221 345 110 29 1 0 32 63 513 347 433 626 847 1185 1327 1341 1350 1997 1238 1062 1562 1452 1436 1462 962 882 1365 1162 1714 1409 1438 905 1315 1182 1236
439 276 137 146 259 260 322 181 214 545 226 148 98 71 24 45 77 197 481 570 698 990 1169 1261 1269 1279 1096 1468 1785 1673 2494 2307 1774 1722 1282 1519 1967 1083 523 1766 1580 1385 1321 1197
287 361 527 618 446 668 359 416 198 174 172 115 88 102 116 103 78 255 444 889 897 1011 1130 1130 1104 1364 1259 1443 1401 1813 2473 2118 1927 2196 2406 1939 1573 891 800 1647 1751 1085 1471 1176
225 204 234 449 518 246 60 76 109 109 132 119 143 199 282 245 370 537 760 1071 1136 1081 1040 967 1008 1034 1325 1548 1827 2107 2072 2001 2278 2383 1928 1926 2039 1712 1478 1633 1005 807 584 343
296 142 185 232 436 197 288 0 4 35 105 142 214 310 384 500 448 831 1110 1341 1260 1223 1165 1109 1095 1071 1236 1519 1525 1650 1836 2153 2023 1626 1259 1037 852 1194 1218 1271 419 417 0 12
168 187 146 369 22 82 95 0 2 21 89 130 211 496 693 888 991 915 1072 903 976 1036 810 1279 1276 659 1288 1304 1405 1363 1320 1348 1377 1188 1034 692 597 514 366 374 57 0 0 0

GFSCGP_con_sbcape_006.txt.gz
CAPE
0 0 0 0 0 2 32 13 1 24 89 149 69 109 200 94 213 489 558 485 454 407 1056 1173 1747 1970 1976 2119 3423 2863 3155 4129 4307 3601 3059 3403 2957 3658 2943 3465 3163 3132 3097 2351
0 0 0 0 0 0 0 1 3 8 37 90 175 163 178 108 100 320 570 595 464 554 588 788 1000 894 1262 2688 3372 3828 4332 4411 4232 4382 4214 3687 3395 3417 3278 2782 3342 2719 2168 2378
0 0 0 0 0 0 0 0 0 9 24 5 53 151 73 116 139 141 217 458 480 522 536 964 1165 1200 1454 2237 3063 3632 4331 4243 4007 4188 4413 3956 3395 3328 2525 2564 1686 1646 1253 1505
0 0 0 0 0 0 0 0 0 0 12 14 0 3 177 112 55 120 89 159 236 339 542 687 981 1411 1534 2262 2772 3791 4279 4650 4461 3824 2842 2878 1591 907 2015 1709 1626 1096 1294 1383
0 0 0 0 0 0 0 0 0 0 0 0 1 3 169 172 66 60 68 97 126 194 295 431 594 959 1147 2007 2305 3482 4426 4190 3423 2774 1408 1503 1526 771 845 953 1127 1314 1427 1637
0 0 0 0 0 0 0 0 0 0 0 12 0 34 106 127 676 99 101 161 184 174 303 362 568 836 960 1637 2145 3276 3681 3281 2782 2097 1622 843 331 740 644 1178 921 838 919 949
0 0 0 0 0 0 0 0 8 6 9 0 5 21 136 120 72 268 392 147 169 295 526 695 572 761 1213 1759 2363 3146 2887 2807 2425 1738 1367 491 352 578 717 1138 1060 957 697 960
0 0 0 0 0 0 0 0 2 29 14 15 23 22 122 70 176 371 678 576 220 162 709 883 1233 1114 1689 2090 2852 2480 2537 2465 2141 1780 1506 1055 818 1053 1165 1737 1103 696 720 844
0 0 0 0 0 0 0 0 0 2 1 4 4 11 0 0 0 0 23 0 267 180 351 829 1258 1331 1951 2144 2535 2508 2498 2536 2142 1557 2332 1960 1784 1314 1065 845 935 816 1308 545
0 0 0 0 0 0 0 0 0 0 27 31 19 9 27 124 5 0 0 0 59 443 558 553 860 1570 2260 2209 2383 2171 2373 2557 1804 1684 1723 1625 1716 1566 1456 1146 980 1081 1336 1221
0 10 3 0 0 0 0 0 0 0 5 32 28 13 62 156 38 1 0 0 0 52 502 1164 1179 1877 2413 1944 1996 1512 1799 2084 1579 1476 1764 1511 702 824 1345 1072 1030 1119 1512 1471
0 2 17 0 0 0 0 3 11 10 63 36 80 2 2 0 0 0 0 0 0 133 448 1620 1415 2184 2253 2015 1711 1037 956 1266 1219 1295 1775 1573 1251 953 919 1066 951 1106 1289 1463
0 16 9 7 8 1 0 6 1 1 13 168 92 114 126 0 0 9 0 0 414 750 1416 2107 1707 1703 2249 2159 1891 1079 704 638 807 1190 926 1361 1363 1294 1393 1317 1295 1259 1282 1318
53 3 15 0 20 10 14 0 0 4 118 61 73 316 34 35 109 185 12 99 150 1092 1107 2227 2127 1982 2180 2225 1838 1424 709 375 544 589 842 1422 1510 1500 1346 1651 1776 1444 1607 1595
16 190 8 1 0 2 10 4 0 1 24 50 124 77 140 32 34 4 0 0 8 459 1130 2338 2102 2254 2438 2378 1829 1608 816 984 798 996 1112 1518 1799 1671 1756 1846 1649 1611 1735 1549
6 123 3 0 2 0 0 0 37 5 0 0 21 180 85 203 128 6 0 0 55 137 264 981 2347 2078 2946 2531 1956 1232 1066 1238 1501 616 1109 1648 1711 1654 1613 1927 2117 1964 2031 1852
231 26 136 22 0 0 39 5 8 68 69 22 135 246 413 135 4 0 0 2 83 231 320 563 1925 2031 3187 2341 1891 1213 1320 1356 1444 1404 1392 1536 1661 1685 1908 1887 1945 2056 1813 1955
414 665 251 113 277 204 1 69 62 66 43 20 119 116 190 36 0 0 0 20 8 268 330 605 1110 2079 2845 2081 1644 1727 1116 1271 1742 1703 1663 1655 1789 1809 2048 2032 2027 2206 2193 2194
0 438 266 322 154 54 104 182 219 96 191 153 208 189 196 21 0 273 205 5 44 324 931 1225 536 1360 2556 2024 1870 1868 1013 1277 1546 1588 1766 1799 1795 1919 2008 2139 1962 2180 1943 1948
26 175 280 153 303 215 317 285 99 111 119 192 125 142 151 23 3 448 602 218 191 276 723 1178 1386 1973 2569 2204 1964 1617 1102 1519 1425 1502 1823 1963 1986 2148 2129 2043 2018 1773 2105 1476
150 337 153 226 211 65 127 162 60 32 0 112 209 88 142 304 411 920 625 322 311 463 888 1351 1977 2429 2718 2355 1774 1212 1272 1609 1730 1726 1934 2087 2249 2551 2549 2614 2312 1917 1145 845
617 379 140 346 311 214 307 385 134 1061 369 115 130 364 225 33 55 225 317 823 661 906 1261 1624 2504 2658 2644 2560 2425 1537 1916 2470 3256 2696 2469 2674 2857 1904 1268 2350 1940 1521 1891 1383
350 446 494 619 487 332 465 772 399 211 492 57 116 57 62 54 68 79 356 813 928 1046 1512 1743 2220 3018 2646 2394 2888 3118 2873 2435 2741 3040 3266 3113 2953 2622 2486 2159 1780 1903 1250 1250
493 235 372 168 90 8 87 73 119 84 54 0 0 0 16 84 111 412 563 1175 1399 617 1523 1560 2356 2517 2449 3441 3308 3331 2872 2603 2412 3244 3433 3068 2714 2643 2439 1623 1762 942 1352 731
336 60 22 417 8 195 22 21 14 33 35 0 5 4 39 192 437 731 887 2024 1047 1513 994 642 937 698 345 166 337 547 1565 2033 3014 3238 2920 2872 2249 2136 1612 113 22 445 0 0
99 202 201 80 0 18 3 0 0 0 0 14 47 18 79 271 909 1326 2357 1528 1649 473 1495 691 1062 752 53 42 680 958 888 1765 2049 2212 1883 1593 1454 401 1290 98 0 0 0 0

GFSCGP_con_sbcape_009.txt.gz
CAPE
0 0 0 0 0 0 0 0 4 0 0 0 8 232 357 273 238 274 422 524 608 818 921 1042 1045 1036 1469 1288 1390 1537 1807 2312 1856 1925 1732 1972 1242 1809 1710 1737 1930 1815 1646 1656
0 0 0 0 0 0 0 7 5 33 3 25 12 88 121 92 69 192 296 257 356 334 1232 1215 1137 896 1284 1316 1909 1781 2206 2423 2118 2250 2229 2283 2212 1946 1995 1927 2090 1653 1615 1607
0 0 0 0 0 0 0 0 16 60 71 54 56 77 105 98 44 146 279 179 183 463 950 1259 1366 1196 1430 1868 2006 2158 2450 2342 2477 1982 2656 2327 2002 1804 1029 717 573 222 119 494
0 0 0 0 0 0 0 0 0 8 64 28 85 61 28 7 0 99 233 168 145 265 169 377 389 611 1910 1972 2303 2692 2398 2278 2507 2489 2223 1682 1196 20 415 307 166 91 416 210
0 0 0 0 0 0 0 0 0 0 0 3 30 2 46 19 0 45 86 207 113 157 217 445 430 591 1294 1937 2119 2649 2329 2735 2440 441 642 76 0 0 27 8 0 0 1 204
0 0 0 0 0 0 0 0 0 0 0 0 0 0 37 8 54 38 51 43 68 142 281 392 573 674 1241 1633 2367 2734 2876 1679 950 117 16 0 0 0 0 4 0 19 0 63
0 0 0 0 0 0 0 0 0 0 0 0 0 0 13 61 50 4 15 8 1 60 238 327 487 648 1251 1668 2251 2815 1668 978 568 118 113 0 0 0 0 0 27 30 0 107
0 0 0 0 0 0 0 0 0 0 0 0 0 0 3 118 99 65 22 6 22 2 50 125 192 294 1120 1542 2409 2230 1248 1143 602 387 46 0 0 0 6 318 60 0 0 1
0 0 0 0 0 0 0 0 0 0 0 0 1 2 33 60 58 75 77 9 0 0 32 36 113 245 965 1539 2298 1670 1260 1135 747 458 49 18 28 18 133 28 0 0 141 0
0 0 0 0 0 0 0 0 0 0 0 0 1 29 17 1 14 43 127 9 15 1 74 130 149 501 1072 1740 1799 1455 1194 1032 879 514 351 349 326 186 92 46 0 13 0 79
0 0 0 0 0 0 0 0 0 0 0 0 12 9 86 20 0 0 0 12 26 66 94 333 546 755 1219 1669 1621 1312 1196 1062 782 573 476 471 605 322 177 89 5 23 97 303
0 0 0 0 0 0 0 0 0 0 0 8 19 25 0 0 0 0 0 0 0 45 44 283 308 573 1324 1509 1333 1202 1251 991 438 590 538 408 0 6 133 46 17 11 51 105
0 0 0 2 0 0 0 0 0 10 0 0 34 12 7 0 0 0 0 0 1 0 570 158 6 104 1378 1304 913 942 1115 930 351 329 635 173 54 21 30 68 29 33 45 38
0 0 0 0 1 0 0 0 0 0 0 0 14 90 16 9 7 2 0 1 123 55 1332 709 1156 1209 1202 1247 702 611 621 541 343 363 438 217 165 98 139 167 179 180 166 125
0 0 0 0 0 0 0 0 0 0 0 0 32 126 1 4 0 0 0 0 0 85 466 1384 1095 1662 1365 1213 671 437 260 342 370 333 225 180 172 193 278 299 409 346 182 335
0 10 3 0 0 0 0 0 0 1 0 0 0 167 16 44 0 0 0 0 0 1 0 470 1617 1265 1421 1331 676 430 161 113 86 170 170 351 356 323 357 313 393 289 224 334
29 76 13 0 0 0 0 0 0 0 1 1 0 62 146 52 10 0 0 0 0 0 34 31 152 1478 1401 1408 889 362 78 169 158 125 124 195 262 272 336 412 575 763 654 531
271 409 36 9 32 0 0 0 17 24 28 16 42 83 23 28 0 0 0 0 0 0 10 31 115 1707 1674 1274 621 308 238 64 10 82 260 274 380 467 505 586 627 651 529 304
218 160 165 116 7 3 31 3 177 220 74 83 79 205 27 0 112 133 61 0 0 197 303 335 302 1920 1692 1055 655 447 197 64 180 164 264 537 523 505 645 863 849 710 713 563
259 226 110 9 39 159 11 177 171 291 260 108 41 41 248 0 229 152 92 155 190 222 349 439 546 1602 1389 1035 558 416 241 485 502 449 580 787 745 783 914 978 1056 850 653 513
81 86 37 11 4 0 76 180 95 5 19 64 19 0 50 248 306 362 181 267 250 226 487 770 838 1934 1448 1025 674 366 288 504 537 557 874 1077 1098 1115 1090 1096 955 798 752 30
237 256 22 75 3 0 168 436 561 370 235 260 296 183 28 7 0 15 0 414 305 354 736 909 1862 2032 1624 833 534 285 411 605 841 924 1109 1382 1430 1368 1332 1302 1055 829 401 101
288 89 632 770 442 57 8 12 6 2 2 7 3 14 4 19 8 1 4 0 229 546 850 1174 1752 1096 491 428 480 53 0 0 179 1548 1570 1771 1805 1711 863 1083 802 364 134 157
209 28 163 476 186 20 14 0 0 0 4 27 38 1 11 31 42 47 117 216 852 1019 473 60 0 0 0 0 0 0 0 0 0 22 1363 1131 1534 1492 1057 230 185 177 208 159
109 129 94 181 58 103 0 0 0 0 0 0 11 3 17 100 511 839 522 955 778 707 511 327 26 13 63 0 0 0 0 0 0 0 9 697 1147 864 0 1 0 0 0 0
152 111 188 0 14 8 0 0 0 0 0 0 0 0 44 125 866 1234 1340 732 319 312 592 214 0 0 0 5 0 0 0 0 0 3 370 649 535 305 0 0 0 0 0 0

GFSCGP_con_sbcape_012.txt.gz
CAPE
0 0 0 0 0 0 0 0 0 0 0 115 146 238 357 291 230 213 230 250 304 259 160 230 323 321 531 624 525 767 1143 1589 1593 1528 1463 1333 1273 1033 1126 1044 1256 1089 1119 1180
0 0 0 0 0 0 0 0 0 8 0 4 117 204 251 316 361 416 402 490 459 476 369 447 503 737 832 755 648 952 1209 1703 1484 1425 1093 1369 1208 1020 1160 1169 1392 1245 1212 1062
0 0 0 0 0 0 0 0 2 15 8 9 105 50 58 150 283 123 358 585 607 658 550 566 650 759 903 814 1117 1073 1592 1364 1302 1370 1489 1588 1404 1141 471 313 531 161 175 294
0 0 0 0 0 0 0 0 4 37 42 32 28 32 10 40 15 1 79 263 354 763 743 766 749 553 973 1096 1361 1368 1674 1661 1653 1325 1893 1674 663 529 21 17 0 2 9 0
0 0 0 0 0 0 0 0 0 57 58 34 27 30 34 0 0 8 8 68 107 822 906 980 879 683 1118 1379 1663 1598 1520 1592 1759 1654 1385 1002 6 0 0 0 0 0 0 0
0 0 0 0 0 0 0 0 0 0 0 9 20 2 0 14 30 3 0 104 76 570 901 1044 1045 696 1253 1425 1741 1859 1408 1505 1526 312 78 0 0 0 0 0 0 0 0 7
0 0 0 0 0 0 0 0 0 0 0 0 0 43 5 1 20 13 0 91 76 223 483 835 645 755 1388 1469 1703 1987 1504 1473 642 0 0 0 0 0 0 0 0 0 0 0
0 0 0 0 0 0 0 0 0 0 0 0 0 0 0 3 22 2 0 82 82 165 136 257 141 451 1356 1382 1493 2062 1611 1257 181 0 0 0 0 0 0 0 0 0 0 0
0 0 0 0 0 0 0 0 0 0 0 0 0 0 0 1 11 6 0 25 41 76 82 166 269 337 1052 1371 1540 1822 1441 802 118 0 0 0 0 0 0 0 0 0 0 0
0 0 0 0 0 0 0 0 0 0 0 0 0 0 0 36 26 16 0 0 0 23 59 103 231 364 990 1442 1651 1881 1222 641 52 0 0 0 0 0 0 0 0 0 0 0
0 0 0 0 0 0 0 0 0 0 0 0 0 0 0 6 15 15 37 28 0 0 32 134 194 239 914 1236 1780 1805 1189 524 46 24 0 0 0 0 0 0 0 0 0 0
0 0 0 0 0 0 0 0 0 0 0 0 0 0 0 0 0 2 37 34 0 0 0 47 68 102 721 1112 1882 1609 1101 460 158 95 0 13 71 63 10 8 0 0 0 5
0 0 0 0 0 0 0 0 0 0 0 0 0 0 0 0 0 0 0 0 0 0 78 53 52 74 590 1056 1620 1435 1095 582 264 114 21 50 24 0 8 15 3 0 0 0
0 0 0 0 0 0 0 0 0 0 0 0 0 5 0 0 0 0 0 0 0 0 30 170 66 158 675 1205 1536 1418 1073 640 279 274 100 76 0 0 0 19 6 0 0 0
0 0 0 0 0 0 0 0 0 0 0 0 0 13 0 0 0 0 0 0 0 0 58 17 97 15 655 1211 1286 1191 1035 656 285 283 307 178 11 0 0 4 2 0 0 0
0 0 0 0 0 0 0 0 0 0 0 0 0 1 0 0 0 0 0 0 0 0 194 249 272 86 8 1154 1137 964 914 638 283 174 261 162 21 30 7 37 40 49 67 21
0 0 0 0 0 0 0 0 0 0 0 0 0 0 0 0 0 0 0 0 0 0 0 0 799 938 807 975 1140 691 496 329 293 287 254 116 80 88 72 99 56 131 82 37
0 0 0 0 0 0 0 0 7 17 5 0 0 0 0 0 0 0 0 0 0 0 0 0 0 365 1166 1244 936 578 36 213 274 134 148 238 237 169 138 139 155 197 251 276
9 13 11 0 0 0 1 16 20 11 3 3 0 6 7 0 16 10 0 0 0 0 0 0 0 43 1054 1299 877 391 90 177 127 84 118 177 251 198 140 169 217 285 309 224
12 0 29 19 20 1 8 102 84 16 34 8 31 27 7 9 19 38 8 0 0 0 4 58 41 412 1166 943 668 332 169 33 40 57 133 170 212 215 189 283 397 426 384 361
51 20 8 0 0 0 7 25 82 69 100 11 0 8 50 39 28 65 5 33 16 64 111 180 566 1152 1036 746 539 339 116 125 39 45 98 130 323 238 344 483 560 572 234 0
79 206 49 12 1 23 0 3 97 28 0 2 0 2 3 0 63 38 2 21 81 87 130 490 966 832 633 483 277 29 8 31 16 98 245 301 371 589 594 607 541 98 45 1
47 46 156 96 20 5 1 0 0 0 0 0 0 0 0 0 0 0 0 0 2 260 964 411 13 38 303 24 0 0 0 0 0 0 0 0 0 0 24 607 417 121 4 0
48 2 4 1 2 41 20 5 0 0 0 0 0 0 0 0 5 185 83 29 767 454 52 0 0 1 0 0 0 0 0 0 0 0 0 0 0 0 0 58 82 33 38 0
54 0 25 15 1 0 0 0 0 0 0 0 0 0 0 0 412 1083 829 630 494 444 188 57 20 0 0 0 0 0 0 0 0 0 0 0 0 132 16 0 0 0 0 0
59 13 6 0 0 0 0 0 0 0 0 0 0 0 0 0 2 1139 1040 725 552 533 16 0 0 0 0 0 0 0 0 0 0 0 0 0 4 48 0 0 0 0 0 0

GFSCGP_con_sbcape_015.txt.gz
CAPE
0 0 0 0 0 0 0 0 21 61 16 109 136 137 96 110 69 71 80 77 86 92 53 91 182 98 104 625 788 1002 1004 1041 1124 1225 1275 1176 1413 1207 888 758 878 886 918 939
0 0 0 0 0 0 0 0 0 0 12 107 103 192 75 60 64 90 112 105 98 105 75 65 109 120 87 267 497 688 968 1141 1257 1127 896 870 775 633 707 771 935 1196 878 872
0 0 0 0 0 0 0 0 0 0 17 58 106 142 164 133 112 93 103 110 85 92 89 75 128 138 209 239 223 477 694 1114 1308 1112 879 1094 1081 866 557 189 576 793 840 992
0 0 0 0 0 0 0 0 0 1 7 10 78 101 109 136 207 212 217 178 153 142 147 132 206 260 349 367 360 454 810 1042 1178 1049 1128 1289 1273 685 73 22 0 0 2 0
0 0 0 0 0 0 0 0 0 5 2 25 22 17 43 25 79 178 179 156 284 235 248 174 242 350 430 429 691 770 1083 1129 1191 1024 1263 1219 486 10 0 0 0 0 0 0
0 0 0 0 0 0 0 0 0 0 0 7 26 10 0 8 99 90 101 37 292 307 446 312 287 287 406 590 823 1113 1191 1231 1187 1089 927 1044 300 0 0 0 0 0 0 0
0 0 0 0 0 0 0 0 0 0 0 0 0 3 0 0 68 84 57 0 139 238 537 548 529 415 423 792 973 1238 1217 1239 1164 991 472 149 0 0 0 0 0 0 0 0
0 0 0 0 0 0 0 0 0 0 0 0 0 0 13 0 6 57 37 0 54 99 551 690 726 588 480 846 1057 1284 1350 1209 959 341 15 0 0 0 0 0 0 0 0 0
0 0 0 0 0 0 0 0 0 0 0 0 0 0 0 0 0 16 9 0 19 52 505 777 849 719 571 858 1088 1334 1386 1202 799 66 0 0 0 0 0 0 0 0 0 0
0 0 0 0 0 0 0 0 0 0 0 0 0 0 0 0 2 0 6 0 12 64 218 611 861 672 788 1067 1160 1316 1526 1286 695 0 0 0 0 0 0 0 0 0 0 0
0 0 0 0 0 0 0 0 0 0 0 0 0 0 0 0 0 0 0 0 4 50 117 206 501 441 578 1218 1287 1330 1604 1207 154 1 0 0 0 0 0 0 0 0 0 0
0 0 0 0 0 0 0 0 0 0 0 0 0 0 0 0 0 0 0 0 21 60 66 110 181 272 235 818 1237 1384 1483 1035 279 32 0 0 0 0 0 0 0 0 0 0
0 0 0 0 0 0 0 0 0 0 0 0 0 0 0 0 0 0 0 0 0 0 25 65 99 201 314 499 951 1429 1506 1058 281 25 0 0 0 0 0 0 0 0 0 0
0 0 0 0 0 0 0 0 0 0 0 0 0 0 0 0 0 0 0 0 0 0 0 13 95 179 274 354 835 1535 1512 1075 313 16 0 0 0 0 4 0 0 0 0 0
0 0 0 0 0 0 0 0 0 0 0 0 0 0 0 0 0 0 0 0 0 0 0 0 12 62 133 263 738 1532 1485 989 410 17 0 0 0 1 3 37 0 0 0 0
0 0 0 0 0 0 0 0 0 0 0 0 0 0 0 0 0 0 0 0 0 0 0 17 12 3 54 367 852 1372 1368 988 475 146 38 13 0 0 0 0 0 0 0 0
0 0 0 0 0 0 0 0 0 0 0 0 0 0 0 0 0 0 0 0 0 0 0 0 0 1 0 454 1002 1144 1195 954 489 199 65 6 67 80 12 0 0 0 0 1
0 0 0 0 0 0 0 0 0 0 0 0 0 0 0 0 0 0 0 0 0 0 0 43 108 267 182 19 793 926 869 748 512 24 83 43 3 34 47 25 10 31 9 30
0 0 0 0 0 0 4 18 33 2 0 0 0 0 0 0 0 0 0 0 0 0 0 0 0 120 410 791 663 611 473 531 364 49 72 153 102 2 39 31 52 54 110 122
0 0 0 0 0 0 0 0 8 0 12 0 0 0 0 0 3 0 0 0 0 0 0 0 0 34 520 603 709 463 299 398 480 162 0 7 18 35 45 58 89 89 128 123
37 42 0 0 0 27 0 0 0 44 0 0 0 0 0 2 0 0 0 0 0 0 6 43 450 627 779 657 426 201 202 299 58 2 0 0 2 10 13 21 54 87 123 49
60 193 83 18 0 16 0 0 1 0 0 0 0 0 0 0 0 0 0 0 0 17 213 705 726 676 552 359 286 60 27 0 0 3 4 0 15 107 7 0 0 0 4 9
0 27 74 13 0 0 0 0 0 0 0 0 0 0 0 147 158 2 0 0 254 508 535 145 414 235 20 37 39 5 1 0 0 0 0 0 0 0 0 0 0 0 0 17
25 1 0 0 0 0 0 0 0 0 0 0 0 0 0 0 334 450 422 371 378 139 29 0 33 0 0 0 0 0 0 0 0 0 0 0 0 0 0 0 0 3 15 2
10 22 15 18 0 0 0 0 0 0 0 0 0 0 0 0 0 610 613 618 394 105 11 5 2 0 0 0 0 0 0 0 0 0 0 0 0 0 0 0 1 0 0 0
13 7 41 17 0 0 0 0 0 0 0 0 0 0 0 0 0 0 152 647 416 270 1 0 0 0 0 0 0 0 0 0 0 0 0 0 0 0 0 0 0 0 0 0

GFSCGP_con_sbcape_018.txt.gz
CAPE
0 0 0 0 0 0 0 35 27 16 36 64 88 97 119 91 135 179 155 260 542 307 186 236 185 325 245 374 593 768 897 832 653 820 925 972 1197 1074 844 742 893 873 954 919
0 0 0 0 0 0 0 1 8 4 0 59 67 106 45 86 66 56 54 46 95 86 0 11 104 67 164 479 615 706 793 661 812 817 720 696 704 592 590 553 696 917 926 868
0 0 0 0 0 0 0 0 0 4 10 25 48 94 51 76 80 54 33 29 24 27 0 0 45 56 75 322 518 686 749 727 867 724 541 612 571 557 455 297 646 909 812 816
0 0 0 0 0 0 0 0 0 0 12 3 50 15 32 47 81 68 74 67 55 50 39 5 25 60 79 112 345 531 626 694 841 701 729 899 941 1041 534 59 17 104 223 242
0 0 0 0 0 0 0 0 0 0 7 20 35 6 9 40 53 96 90 73 76 48 49 27 25 47 94 120 111 189 316 537 799 842 925 800 613 316 0 0 0 0 0 0
0 0 0 0 0 0 0 0 0 0 0 0 0 0 0 2 128 131 154 158 136 101 85 78 46 62 90 130 165 196 302 487 639 805 810 821 623 0 0 0 0 0 0 0
0 0 0 0 0 0 0 0 0 0 0 0 0 0 15 0 47 111 135 160 192 163 139 140 97 100 128 162 231 393 404 541 738 839 829 876 557 0 0 0 0 0 0 0
0 0 0 0 0 0 0 0 0 0 0 0 0 0 14 19 4 27 82 93 139 123 212 222 133 136 144 246 303 432 593 679 807 900 808 466 174 0 0 0 0 0 0 0
0 0 0 0 0 0 0 0 0 0 0 0 0 0 0 0 0 0 0 27 41 52 257 295 272 191 179 220 377 503 664 790 837 958 640 2 0 0 0 0 0 0 0 0
0 0 0 0 0 0 0 0 0 0 0 0 0 0 0 0 0 0 0 0 16 0 167 320 428 377 337 319 425 611 710 845 813 762 193 3 0 0 0 0 0 0 0 0
0 0 0 0 0 0 0 0 0 0 0 0 0 0 0 0 0 0 0 0 1 0 44 285 563 609 563 496 501 682 887 967 789 357 43 3 0 0 0 0 0 0 0 0
0 0 0 0 0 0 0 0 0 0 0 0 0 0 0 0 0 0 0 0 0 0 9 154 562 711 745 636 608 784 980 1196 989 383 59 0 0 0 0 0 0 0 0 0
0 0 0 0 0 0 0 0 0 0 0 0 0 0 0 0 0 0 0 0 0 0 27 72 267 594 710 670 833 996 1088 1342 1154 392 46 2 0 0 0 6 0 0 0 0
0 0 0 0 0 0 0 0 0 0 0 0 0 0 0 0 0 0 0 0 0 0 15 19 62 252 424 321 744 1110 1206 1339 960 374 133 4 0 0 0 6 0 0 0 0
0 0 0 0 0 0 0 0 0 0 0 0 0 0 0 0 0 0 0 0 0 0 0 5 60 73 152 185 290 712 1158 1324 849 406 144 6 0 0 0 0 40 14 0 0
0 0 0 0 0 0 0 0 0 0 0 0 0 0 0 0 0 0 0 0 0 0 0 0 21 76 54 82 156 660 1117 1321 766 333 101 0 6 2 0 0 0 0 0 0
0 0 0 0 0 0 0 0 0 0 0 0 0 0 0 0 0 0 0 0 0 0 0 0 0 0 0 1 216 788 1151 1042 613 310 3 0 0 0 0 0 0 0 3 1
0 0 0 0 0 0 0 0 0 0 0 0 0 0 0 0 0 0 0 0 0 0 0 0 0 0 0 143 512 676 888 865 523 229 7 0 0 0 0 0 0 0 8 0
0 0 0 0 0 0 0 0 0 0 0 0 0 0 0 0 0 0 0 0 0 0 0 0 0 0 0 2 225 628 722 689 488 228 69 0 0 0 0 6 1 0 0 5
0 0 0 0 0 0 0 0 0 0 10 0 0 0 0 0 0 0 0 0 0 0 0 0 0 0 88 200 98 466 463 517 448 247 181 85 1 0 42 3 0 5 2 19
0 0 0 0 3 0 0 0 0 15 2 0 0 0 0 1 0 0 0 0 0 0 0 31 56 145 242 359 362 325 246 436 369 269 273 170 141 97 17 0 3 2 0 1
0 11 12 0 5 82 0 0 1 0 0 0 0 0 0 0 0 0 0 15 102 174 240 265 315 295 266 247 322 173 238 11 94 161 120 34 0 21 3 18 0 0 0 0
26 22 1 0 0 0 0 0 0 0 0 0 0 0 68 157 179 110 121 205 163 104 74 117 143 71 4 20 88 81 4 4 9 4 4 58 28 21 0 0 0 0 0 0
54 1 0 0 0 0 0 0 0 0 0 0 0 0 0 5 79 177 245 240 149 47 88 46 17 0 0 0 0 1 0 5 5 0 0 0 0 0 0 0 0 0 0 0
40 77 4 0 0 0 0 0 0 0 0 0 0 0 0 0 0 0 231 383 206 55 13 1 2 0 0 0 0 0 0 3 0 0 0 0 0 0 1 2 2 2 2 0
0 10 0 0 0 0 0 0 0 0 0 0 0 0 0 0 0 0 190 212 289 140 0 0 0 0 0 0 0 0 0 0 0 0 0 0 0 1 2 3 2 0 0 1

GFSCGP_con_sbcape_021.txt.gz
CAPE
0 0 0 0 0 0 19 39 64 156 130 103 125 182 223 646 787 844 999 1028 1016 1164 1267 1341 1422 1471 1478 1476 1553 1601 1763 2492 2270 1999 1973 2039 2193 2281 2402 2378 1976 2389 2243 2142
0 0 0 0 0 0 20 37 58 65 113 75 87 70 217 316 700 765 859 973 1055 1168 1224 1284 1308 1261 1398 1473 1539 1693 2094 2594 2462 2178 2103 1986 2211 2167 2300 2308 2357 2431 2384 2495
0 0 0 0 0 0 0 29 41 53 75 123 101 66 162 248 328 439 591 596 656 914 986 857 917 1071 1091 1272 1502 1844 2434 2707 2413 2301 2157 2098 1988 1948 2016 2107 2203 2226 2272 2359
0 0 0 0 0 0 0 0 61 97 81 112 127 70 108 301 397 383 360 374 344 385 572 589 549 773 933 1066 1400 1971 2186 2610 2270 2392 2163 2262 2046 1956 2025 1938 1833 2282 2304 2106
0 0 0 0 0 0 0 0 9 81 99 81 82 95 71 172 362 446 424 393 323 283 333 359 376 534 722 881 1104 1476 2205 2500 2768 2370 2621 2249 2153 2143 2089 1479 1250 1359 1536 1871
0 0 0 0 0 0 0 0 0 9 47 33 16 52 21 116 330 405 305 364 358 314 295 309 325 409 621 728 905 1268 2078 2630 2639 2222 2254 2473 2610 2342 1637 1183 911 812 588 385
0 0 0 0 0 0 0 0 0 0 10 0 0 26 86 74 145 221 287 269 324 327 305 414 481 445 725 980 1141 1345 2023 2370 2410 2115 2379 2393 2537 2505 2074 1489 792 507 301 138
0 0 0 0 0 0 0 0 0 0 0 0 0 0 58 121 117 85 157 278 302 301 415 471 853 899 960 1066 1469 1597 1751 2014 2307 2014 2565 2682 2655 2276 1651 1641 752 274 237 126
0 0 0 0 0 0 0 0 0 0 0 0 0 0 0 7 15 21 58 91 260 412 555 467 526 750 1056 1304 1476 1703 1927 2063 2220 1963 2549 2477 2677 2368 1696 1443 446 253 234 151
0 0 0 0 0 0 0 0 0 0 0 0 0 0 0 0 5 35 40 35 145 382 526 569 830 1040 1225 1244 1559 1714 1948 2126 2174 2001 2255 2147 2145 1905 1667 491 42 99 137 181
0 0 0 0 0 0 0 0 0 0 0 0 0 0 0 0 24 24 30 17 35 183 434 720 1101 1200 1271 1285 1236 1511 1747 2139 2280 2362 2491 2461 1804 1310 48 253 9 1 22 94
0 0 0 0 0 0 0 0 0 0 0 0 0 0 0 0 0 2 0 0 9 101 263 583 842 1064 1238 1517 1214 1317 1689 1794 2104 2248 2352 1932 967 35 422 61 92 30 27 13
0 0 0 0 0 0 0 0 0 0 0 0 0 0 0 0 0 0 0 31 102 198 315 587 815 1384 1640 1674 1868 1668 1697 1626 1695 2071 1690 1342 98 229 48 0 21 2 17 32
0 0 0 0 0 0 0 0 0 0 0 0 0 0 0 0 0 51 53 67 125 250 281 593 903 1407 1718 1977 2117 2094 1804 1655 1805 1905 1588 940 189 379 126 0 0 0 0 0
0 0 0 0 0 0 0 0 0 0 0 0 0 0 0 0 0 172 343 221 200 205 354 759 813 1493 1877 2102 2317 2146 1957 2216 2233 2152 1661 1129 340 411 239 138 6 0 0 1
0 0 0 0 0 0 0 0 0 0 0 0 0 0 0 0 0 0 94 114 257 374 457 640 827 997 1424 1752 1692 1821 1981 2094 2386 1996 1660 1002 460 540 383 184 66 0 0 0
41 0 0 0 0 0 0 0 0 0 0 0 0 0 0 0 0 31 236 185 358 597 678 594 855 1262 1336 1220 1379 1488 1787 2163 2238 1981 1570 667 656 629 432 171 134 77 45 21
79 21 0 0 0 0 0 0 0 0 0 0 0 0 0 0 0 20 83 204 332 431 646 551 462 684 1004 961 1063 1472 1802 2291 2177 1885 1271 843 665 603 474 311 165 210 211 18
139 45 116 39 21 0 0 0 0 0 0 0 0 0 0 0 0 14 0 0 105 174 293 383 362 472 587 918 1288 1726 2078 2206 2120 1769 1223 1002 788 670 451 284 228 361 333 190
27 71 283 11 10 0 3 0 5 8 0 0 0 7 0 0 5 81 0 0 35 163 306 499 568 709 873 797 1314 1743 2014 2076 2031 1828 1366 1040 822 665 396 317 254 336 309 327
547 623 262 73 5 9 5 18 43 65 21 0 0 5 0 49 30 31 23 94 119 138 228 466 810 1085 1227 1248 1146 1580 1878 2053 2023 1746 1315 947 720 544 470 576 566 554 476 422
520 539 455 301 75 22 0 45 182 82 31 0 3 42 31 78 192 349 443 611 701 853 945 1081 1162 1233 1246 1340 1584 1640 1755 1832 1613 1137 1114 931 760 553 526 656 662 700 686 703
392 483 362 146 79 6 0 24 8 4 53 83 423 494 586 506 530 562 590 597 616 677 764 893 1028 1155 1167 1253 1267 1215 464 800 1039 1350 1033 743 576 698 667 676 932 891 871 978
363 219 305 303 65 0 0 0 0 0 0 0 0 0 83 285 414 590 679 660 637 651 741 899 1183 1196 998 894 577 787 773 1092 1155 1065 1005 830 862 798 770 672 673 627 558 509
24 308 104 54 0 1 0 0 0 0 0 0 0 0 27 342 501 714 798 860 776 739 593 535 744 838 500 513 627 624 532 463 863 902 884 796 458 294 4 2 2 0 1 1
14 6 96 70 15 2 0 0 0 0 0 0 0 0 0 3 202 470 592 694 753 691 628 754 638 680 410 207 462 495 343 448 584 529 424 307 161 0 0 0 0 0 0 0

GFSCGP_con_sbcape_024.txt.gz
CAPE
0 0 0 0 0 0 26 18 38 78 299 353 312 367 474 819 801 731 866 800 649 831 956 1192 1364 1398 1496 1671 1803 1924 1965 2225 2528 2473 2303 2119 2108 3264 2353 2467 2438 2213 2114 1884
0 0 0 0 0 0 0 16 38 126 279 286 238 347 382 410 890 735 641 806 833 828 976 1188 1405 1406 1554 1812 1974 2201 2278 2513 2836 2483 2427 2064 2036 1995 2024 2311 2500 2568 2499 2323
0 0 0 0 0 0 0 8 31 112 265 276 168 228 283 158 385 897 776 623 744 918 815 1020 1235 1427 1483 1810 2103 2288 2661 2658 2981 2913 2585 2732 2612 2649 2428 2263 2309 2241 2539 2405
0 0 0 0 0 0 0 0 20 115 212 197 265 163 125 230 432 661 928 598 629 885 1044 946 1016 1260 1481 1621 2042 2424 2748 3100 2969 3379 3286 3002 2295 1828 1365 1506 1163 1342 2095 2199
0 0 0 0 0 0 0 0 5 82 149 182 208 267 145 175 339 540 791 636 367 436 449 565 705 827 1174 1429 1657 2196 2874 3793 3608 3615 3715 2949 2855 1999 1915 1888 1970 2043 2164 2411
0 0 0 0 0 0 0 0 0 41 111 156 126 142 100 164 471 312 465 663 396 176 199 219 333 461 797 1087 1340 1738 2979 4246 3922 3433 3357 3545 3479 2723 1993 2365 2131 1169 930 1700
0 0 0 0 0 0 0 0 41 67 70 83 101 61 19 13 46 151 100 477 581 387 152 204 282 244 505 841 1209 1562 3473 4277 3906 3292 3194 3327 3316 3241 3049 2953 2383 934 578 524
0 0 0 0 0 0 0 0 11 54 53 68 37 6 10 108 92 56 32 79 391 637 532 357 528 610 715 975 1577 1999 3267 4050 3559 3097 3644 3863 3684 3044 2953 3048 2212 1179 328 342
0 0 0 0 0 0 0 0 0 50 68 72 13 5 0 43 78 15 36 60 141 572 706 672 674 859 978 1416 2235 2791 3433 4070 3964 3131 4068 3621 3608 3245 3036 2844 2966 1604 1101 374
0 0 0 0 0 0 0 0 0 18 77 71 9 31 0 36 22 0 9 42 108 226 585 728 798 934 1286 1356 1767 2116 3113 3824 3390 2795 2991 2817 3020 3197 3303 3193 2818 1797 1202 626
0 0 0 0 0 0 0 0 0 1 11 44 24 1 0 0 0 0 0 2 28 79 382 715 852 968 1359 1452 1615 2034 2375 2634 2763 3335 3494 3730 2929 2933 3104 2861 2536 1840 1032 809
0 1 0 0 0 0 0 0 0 1 9 17 33 9 0 1 0 0 0 0 0 12 117 466 843 1042 1174 1582 1642 1867 2125 2372 2586 3273 3941 3259 3181 3081 2967 2625 1815 1101 732 485
0 3 7 0 0 0 0 0 0 0 0 69 18 2 2 0 0 1 4 26 11 435 427 462 806 1180 1381 1630 2404 1934 2104 2188 2341 2616 2737 3107 2970 2749 2319 1939 1285 497 398 331
0 5 0 0 0 0 0 0 0 0 6 4 16 57 22 1 0 0 4 8 33 124 687 859 967 1259 1603 2070 3001 2976 2174 2150 2246 2415 2593 3442 2970 2731 2358 2117 889 291 352 357
0 0 7 0 0 2 0 0 0 0 0 0 0 3 16 2 0 0 0 0 7 462 960 1191 1275 1507 1962 2278 2890 2597 2367 2407 2434 2506 2595 3077 3507 2176 1921 2540 1446 1041 776 406
0 0 5 7 0 0 2 0 0 0 0 0 0 0 0 1 0 0 0 0 8 287 1083 1254 1423 1641 2084 2351 2585 2608 2537 2500 2551 2747 2838 3058 2772 1877 2360 1952 1427 889 908 714
0 0 33 21 33 41 80 9 2 0 0 0 0 0 0 0 0 0 38 18 48 68 918 1307 1594 1869 2172 2377 2636 2663 2695 2624 2803 3236 3197 3056 2740 2145 1893 1753 1308 1374 601 248
33 99 35 71 137 129 7 14 4 0 0 0 0 0 0 0 0 0 171 42 102 145 337 1163 1472 1644 2071 2139 2388 2482 2629 2920 3101 3262 3208 3047 2732 2194 1992 1935 1444 959 371 537
4 214 149 220 281 96 29 9 3 7 0 0 0 0 0 0 0 0 35 148 333 367 598 955 1354 1557 1999 1910 2162 2406 2546 2858 3080 3112 3067 2883 2368 2256 1986 1890 1616 1062 779 617
21 112 523 451 230 218 401 283 236 271 34 0 0 0 0 0 0 0 139 258 150 192 646 1172 1157 1302 1749 1872 2037 2446 2686 2960 2939 2879 2832 2565 2349 2270 2119 1639 1769 1392 885 685
383 451 354 328 368 373 290 190 297 187 134 328 8 0 0 0 0 324 252 343 412 641 998 1194 1284 1465 1800 1980 2368 2631 2706 2767 2762 2714 2630 2529 2409 2161 2039 1642 1497 1072 947 892
356 378 289 445 483 433 76 369 405 610 772 401 332 272 220 289 417 611 821 938 970 1225 1371 1658 1971 1983 1733 2319 2668 2744 2723 2852 2886 2781 2615 2324 2053 1662 1373 1216 881 945 796 741
475 383 398 670 658 174 81 278 293 475 557 939 540 437 490 560 700 857 1026 1156 1195 1249 1418 1654 1921 2124 2269 2501 2740 2934 2851 2859 2753 2687 2378 1874 1391 1482 1227 1040 1008 751 894 921
862 811 632 562 136 97 51 0 23 114 150 286 733 818 736 646 623 601 671 832 989 1085 1214 1407 1710 2104 2329 2317 2465 2306 2259 2336 2147 2186 1747 1443 1255 1078 1009 998 1049 1050 940 888
113 574 653 351 98 1 16 0 0 0 3 21 258 554 773 901 1016 1095 1233 1212 1275 1446 1677 1859 2091 2294 2400 2306 2115 2122 1970 2097 1853 1704 1581 1082 945 670 144 0 0 410 0 60
12 13 697 324 77 96 6 0 0 0 0 0 4 25 65 158 294 620 1141 1398 1388 1341 1664 1702 1811 1887 1669 1874 1653 1421 1801 1716 1669 1641 1431 1150 1094 942 833 260 0 0 0 0

GFSCGP_con_sbcape_027.txt.gz
CAPE
0 0 0 0 0 0 58 113 29 90 13 180 249 238 398 722 733 474 313 258 190 267 547 628 848 612 932 1144 1378 1677 2311 3625 2561 1952 1938 2068 1903 2825 2099 2042 2296 2489 2378 2350
0 0 0 0 0 0 2 76 89 55 70 63 228 286 287 687 779 615 507 367 169 117 314 642 941 814 1018 1321 1751 2573 2939 3899 3209 2480 2844 2257 2227 1429 2033 1936 1953 2719 2209 3052
0 0 0 0 0 0 0 42 97 74 247 175 217 232 267 291 599 782 594 429 413 205 248 618 918 1049 1122 1352 1961 3044 3845 4101 3824 3707 3255 2577 2462 2047 1798 903 982 1361 1797 1418
0 0 0 0 0 0 0 1 32 81 128 239 100 274 249 210 271 476 773 714 364 365 269 412 826 1087 1055 1327 1803 3280 4001 4346 4136 4253 3153 3765 2403 1674 990 1202 882 830 1029 1054
0 0 0 0 0 0 0 2 32 82 136 196 117 163 130 104 172 144 516 842 632 460 377 308 463 899 1025 1155 1493 2447 4220 4512 4423 4359 3966 3003 3087 1433 1196 1045 2701 1537 2546 1231
0 0 0 0 0 0 0 2 71 87 118 141 188 175 221 54 214 197 348 603 790 454 552 543 449 634 937 1035 1304 2031 4092 4695 4789 4629 4616 4756 4449 2956 1937 1797 1927 1288 751 1162
0 0 0 0 0 0 0 2 62 81 96 88 137 217 243 144 143 166 148 219 626 733 435 597 574 480 1006 1367 1707 1923 3795 4710 4950 4685 4580 4527 4735 4675 4221 3041 1967 2257 563 526
0 0 0 0 0 0 0 0 24 64 56 65 90 114 136 183 116 56 21 89 250 708 619 439 498 385 733 1199 2026 2360 3261 4572 4809 4721 4751 4896 4949 3184 2952 3368 2044 1439 583 519
0 0 0 0 0 0 0 0 0 53 79 107 94 86 51 44 50 124 87 47 74 416 645 607 467 399 341 1053 1894 2341 3057 4328 4703 4498 4932 4900 4862 4595 2957 3556 4148 2295 2246 631
0 0 0 0 0 0 0 0 0 14 112 132 91 80 95 119 34 79 72 20 6 41 291 616 596 601 813 589 1399 2326 3045 4308 4526 4490 4725 4514 4624 4702 4602 4695 4447 3631 2934 1595
0 0 0 0 0 0 0 0 0 0 41 92 106 110 116 110 67 32 12 3 39 43 86 395 723 773 1136 874 1223 1879 2903 3845 4433 4436 4444 4383 4386 4116 4476 4001 4178 4025 3621 2597
0 0 0 0 0 0 0 0 0 120 12 34 115 86 75 27 57 36 58 58 42 39 52 107 441 781 1017 1777 1292 1363 2075 2493 3563 3954 4477 4398 4515 4327 4137 4291 4215 4231 3532 2788
0 0 0 0 0 0 0 0 0 0 15 137 109 20 32 22 46 43 41 13 38 21 66 120 142 674 1484 2117 2200 1923 2154 1808 2397 3619 3673 4398 4566 4400 4235 4425 4398 4109 3316 2508
0 0 0 0 0 0 0 0 0 0 4 18 18 73 97 70 53 50 20 1 0 5 35 479 447 163 1496 2170 2761 2818 2395 1759 2135 2649 3257 4221 4568 4557 4395 4630 4302 3892 2937 2299
0 0 0 0 1 3 0 0 0 0 0 13 10 56 70 87 80 73 45 16 25 4 9 601 1057 967 2436 2615 3379 3190 3214 3086 2615 3428 3686 4298 4737 4749 4776 4371 4141 3359 2813 1543
0 0 0 14 0 3 15 0 0 0 0 0 0 4 65 88 76 70 10 15 11 2 2 446 1282 1416 2256 2843 3419 3761 3551 3500 3616 3925 4063 4435 4828 4783 4537 4143 4175 3150 2160 1561
0 0 0 2 11 33 45 3 2 0 0 0 0 0 4 0 3 39 505 46 9 34 40 3 1222 1858 2671 2464 3488 3728 3945 3939 3973 4486 4336 4688 4844 4751 4167 3588 3632 3033 2342 1698
14 33 29 37 87 115 0 9 8 21 20 14 3 0 0 0 0 2 1 4 81 105 53 189 534 1579 1995 2235 2528 3472 3307 4172 4404 4431 4597 4784 4651 4297 3634 3347 3651 3245 2442 1854
26 76 51 63 68 71 44 46 61 84 36 23 27 28 5 0 0 1 0 1 208 194 292 385 14 1078 2245 2569 3267 3987 4003 4060 4307 4364 4658 4513 4204 4105 3575 2751 3104 3081 2693 1804
38 112 159 93 55 65 73 503 469 297 49 38 73 115 24 25 18 0 0 0 0 6 68 125 227 651 1889 2945 2570 3806 3769 4184 4305 4202 4318 4174 4036 3614 3029 2778 2787 2912 2387 1926
34 89 106 243 161 101 721 432 296 228 271 891 725 557 372 223 6 0 139 15 117 188 445 538 1011 1405 3319 3403 3515 3948 3767 3661 3656 3522 3502 3707 3192 3311 3118 2974 2766 2082 1474 1153
54 78 61 159 176 253 358 501 412 866 1242 1308 1039 757 618 693 54 27 504 545 732 764 1076 1060 1625 2050 2729 3502 4086 4195 4439 4508 4247 3746 3088 3118 3235 2843 2608 2403 2068 1756 1289 1493
114 27 60 147 256 1062 555 1097 708 696 879 1149 1200 909 783 672 643 722 940 1055 1183 1526 1727 1635 1990 2834 3103 3637 4377 4256 4664 4519 4095 3756 3718 3639 3220 2469 2432 1749 1396 1198 1252 1173
73 79 673 1054 746 466 292 318 324 548 738 1072 1137 1025 1002 937 989 1170 1436 1522 1715 2055 2388 2566 2447 2768 3581 3946 3977 3840 3967 4224 3740 3406 3080 2403 1974 1907 1697 1190 1223 1258 1128 1172
5 11 934 938 452 382 207 59 151 355 799 1169 1281 1443 1530 1394 1290 1254 1301 1405 1404 1575 1989 2282 2534 2844 2932 2863 2878 3006 3028 3207 2856 2422 2194 1814 1759 1682 996 35 289 1119 521 359
14 38 216 817 542 690 183 146 90 77 167 285 433 476 566 1132 1565 1751 1659 1669 1795 1906 2097 2459 2580 2552 2686 2683 2651 2951 2831 2622 2391 2098 1829 1333 1166 993 948 456 0 0 0 0

GFSCGP_con_sbcape_030.txt.gz
CAPE
0 0 0 0 0 0 0 0 0 20 1 41 312 167 9 0 189 34 0 46 59 134 317 523 641 823 892 1267 2052 2369 2902 3377 3505 3220 2415 2520 2766 2739 2677 2513 3755 2874 2926 2761
0 0 0 0 0 0 0 0 46 54 98 66 48 432 334 76 209 126 43 23 39 88 268 585 863 844 854 1482 1883 2764 2880 3996 3303 2854 2711 2145 2248 2045 2490 2444 2853 2394 2965 2838
0 0 0 0 0 0 0 0 5 10 37 33 42 70 233 465 355 145 114 129 39 70 57 636 865 885 846 1560 2143 2590 2994 3736 2946 3385 2580 3036 3573 4053 2157 2319 2112 2947 2876 3091
0 0 0 0 0 0 0 0 0 38 10 32 49 97 411 287 651 329 127 104 161 90 113 178 647 1121 973 1513 2305 2671 3142 3347 3427 3101 3415 3232 2366 2712 2459 2575 1955 3036 2992 2649
0 0 0 0 0 0 0 0 0 0 16 106 120 67 212 474 364 529 154 197 118 286 109 70 477 925 1048 1427 1955 2745 3230 3471 3509 3227 3631 3702 2999 1657 2730 2307 3420 3093 3251 2138
0 0 0 0 0 0 0 0 0 0 5 67 119 7 88 315 392 167 210 50 573 220 341 242 298 913 1153 1244 1809 2366 3309 3535 3685 3769 3511 3897 3118 2673 2688 3070 3088 2523 2300 2194
0 0 0 0 0 0 0 0 1 1 51 10 72 117 167 140 154 64 8 80 680 743 467 507 389 626 1309 1381 1477 2328 3531 3751 3799 3994 3903 3454 3975 3723 3100 3905 3315 2148 1323 1481
0 0 0 0 0 0 0 0 0 4 10 36 39 75 253 354 46 0 0 23 278 637 659 766 802 655 1310 1462 1725 2049 3366 3813 4063 3915 4199 4016 3728 3920 3662 3526 3059 1978 2169 1447
0 0 0 0 0 0 0 0 0 0 2 35 55 64 70 218 69 23 29 71 34 74 635 679 1051 1054 1065 1592 1778 2013 3482 3719 4098 4272 4206 4292 4229 3728 3325 3630 3193 3392 2530 2848
0 0 0 0 0 0 0 0 0 0 12 27 38 90 120 504 115 37 24 72 130 25 572 619 614 997 1012 1387 1883 2129 2663 3897 4145 4291 4310 4127 4262 4227 3696 3475 3639 2591 3657 2635
0 0 0 0 0 0 0 0 0 0 0 18 35 42 136 191 534 389 106 98 132 11 433 676 674 756 1001 1073 1530 1916 2291 3568 4062 4274 4267 4255 4198 4370 3864 3580 3270 3449 3234 2815
0 0 0 0 0 0 0 0 0 0 0 0 8 14 28 465 414 332 117 114 97 34 25 120 773 888 1009 942 1141 1616 1995 2154 3612 4105 4146 4270 4331 4312 4233 3392 3868 3857 3226 2902
0 0 0 0 0 0 0 0 0 0 0 2 5 0 0 63 4 46 94 46 155 317 388 246 500 1033 1218 1101 1060 1213 1654 1942 2840 3795 3998 4173 4199 4176 4030 3955 3239 3725 3594 3179
4 0 0 0 0 0 0 0 0 0 0 0 3 19 25 213 148 225 124 178 174 663 1064 825 740 1009 1312 1433 1441 1435 1536 1985 2354 3395 3653 3916 4185 4099 3934 3950 3837 3865 3940 3402
0 0 0 0 0 0 0 0 0 0 0 0 0 30 5 103 292 202 331 241 354 408 551 1402 1045 1686 2553 2220 2041 1858 1777 1869 2199 2892 3368 3852 4286 4208 4224 4053 4072 3958 3945 3472
6 0 0 0 0 0 0 0 0 0 0 0 0 0 3 50 215 508 52 106 341 467 316 1121 2154 2469 2816 3211 2796 2194 2225 2063 2229 2482 3118 3528 4037 4383 4426 4331 4270 3978 3852 3244
28 0 20 0 0 0 1 0 2 0 0 0 0 0 1 39 99 433 639 143 596 337 275 677 2084 2541 2888 3450 3343 2809 2555 2857 2378 3013 3030 3509 4218 4460 4438 4453 4217 4060 3734 3079
195 65 5 8 36 49 0 0 0 0 2 0 0 0 0 7 60 44 197 404 459 522 339 701 236 1843 2729 2531 2663 3880 3088 3409 3227 3624 3616 4005 4427 4587 4573 4458 4228 4014 3607 2682
51 116 54 63 24 0 0 0 0 25 61 29 19 13 0 0 0 0 0 2 98 262 719 963 209 129 2157 2247 2839 3390 3948 3439 3707 3680 4583 4502 4623 4723 4577 4313 4064 3565 3326 2239
9 189 101 96 43 11 12 3 20 30 79 161 66 112 23 95 58 0 1 0 1 3 12 492 491 248 621 2367 2751 3605 3748 4052 3722 4314 4427 4752 4795 4658 4418 4070 3702 3840 3496 2336
46 111 44 55 34 1 14 70 170 259 565 961 624 414 265 378 770 1063 699 289 33 107 107 202 731 1160 3209 2574 2933 3860 3930 4166 4115 4454 4697 4762 4694 4650 4426 3709 3235 3114 2899 2649
83 109 60 147 164 73 199 380 226 1233 1299 1226 1131 939 774 828 806 752 1097 744 598 1322 1070 635 1732 2535 4298 3603 4441 4432 4403 4577 4550 4420 4563 4512 4512 3486 3642 2920 2625 2386 1986 1960
68 29 100 147 200 1034 387 1343 1033 793 834 1125 1050 813 655 620 600 526 1393 1557 1010 1137 1804 1935 2027 4855 4769 5145 4584 4463 4868 4576 4486 4249 4178 3777 3521 3250 2747 2390 2350 1461 1454 1123
226 144 234 208 190 811 547 503 617 746 998 1086 1142 986 815 755 670 973 1545 1662 1725 2154 2817 3093 3711 4335 4766 4888 4856 4818 4484 4154 3936 3879 3801 3579 2937 2340 1943 1599 1580 1199 1001 1179
61 6 111 276 1474 745 513 503 510 751 1087 1248 1658 1829 2041 2101 2220 2296 2598 2798 2442 3081 3547 3612 4243 4247 4690 4752 4506 4410 4131 4003 3774 3542 2582 2113 1762 1338 60 0 0 813 0 399
22 18 22 675 59 78 653 317 613 644 750 918 1107 1325 1448 1845 1889 1952 2103 2546 2720 3115 3326 3439 3170 2896 3366 3671 3427 3012 3565 3622 3028 2291 2119 1613 1016 514 32 1 0 0 0 0

GFSCGP_con_sbcape_033.txt.gz
CAPE
0 0 0 0 0 0 0 0 0 2 22 20 68 5 0 0 0 0 10 14 38 33 14 87 101 397 557 842 1037 811 1169 1632 1467 1646 1748 1830 1710 1489 1518 1657 1736 1648 1491 1333
0 0 0 0 0 0 0 0 0 33 12 16 21 15 0 0 0 0 0 0 9 17 5 91 105 179 419 700 1133 874 1174 2114 1503 1660 1556 1273 1428 1342 1307 1278 1964 1553 1677 1615
0 0 0 0 0 0 0 0 0 29 9 0 0 3 0 0 0 11 0 0 1 20 20 75 117 210 306 567 1109 1170 1483 2065 1802 1873 1588 1365 1595 1497 1601 1811 1828 1670 1623 1849
0 0 0 0 0 0 0 0 0 1 0 1 3 94 10 1 48 30 4 0 0 1 23 56 207 250 332 701 1156 1230 1644 2143 1721 1714 1400 1326 1106 1538 1387 1549 1571 1411 1789 1799
0 0 0 0 0 0 0 0 0 0 17 15 7 0 161 73 173 17 0 0 0 0 0 64 217 253 359 740 1030 1571 1467 2336 1490 1635 1750 1028 1246 1237 1130 711 1431 1680 1550 1642
0 0 0 0 0 0 0 0 0 0 0 11 0 0 0 1 158 62 20 12 0 0 0 8 102 336 311 807 1231 1622 1569 1805 1908 1249 1557 2037 1780 924 536 1475 1301 1388 708 1208
0 0 0 0 0 0 0 0 0 0 0 0 0 0 1 8 4 248 126 14 13 0 0 0 83 312 421 561 1445 1643 1697 1689 2162 1851 1733 1939 2397 1533 1496 1552 1186 951 659 539
0 0 0 0 0 0 0 0 0 0 0 0 0 4 0 4 47 59 42 15 1 40 0 0 0 154 498 542 1184 1821 1909 1848 2113 2185 1883 1784 1949 2590 1744 1747 1885 762 771 515
0 0 0 0 0 0 0 0 0 0 0 0 0 0 0 2 46 0 3 0 0 0 39 10 12 60 497 552 1164 1548 2113 2052 2302 2360 2261 2124 1864 2051 2759 2125 1419 1656 882 701
0 0 0 0 0 0 0 0 0 0 0 0 0 0 0 38 17 16 12 26 0 1 0 79 26 38 568 673 820 1478 2462 2352 2486 2375 2615 2640 2514 2227 2301 2580 2087 1725 1692 1373
0 0 0 0 0 0 0 0 0 0 0 0 0 0 0 31 29 42 30 20 25 1 0 29 233 136 538 773 908 1126 2402 2565 2683 2670 2579 2760 2872 2816 2487 2371 2230 1915 1440 1164
0 0 0 0 0 0 0 0 0 0 0 0 0 0 0 44 111 50 48 15 36 21 20 4 211 401 320 905 988 1217 2569 2607 2901 2923 3014 2936 2903 3206 3107 2614 2205 2077 1689 1327
0 0 0 0 0 0 0 0 0 0 0 0 0 0 0 0 128 69 50 0 10 0 0 7 179 500 638 889 1154 1261 2121 2760 2844 3020 3200 3292 3185 3080 3366 3047 2594 2273 2195 1702
37 0 0 0 0 0 0 0 0 0 0 0 0 0 0 6 52 115 32 5 0 6 2 29 245 219 526 590 1107 1249 1534 2431 2944 3175 3257 3289 3321 3296 3315 3415 2705 2572 2618 2074
0 0 0 0 0 0 0 0 0 0 0 0 0 0 0 0 74 137 32 9 0 15 121 70 239 349 474 455 698 1086 1416 1493 2543 2911 3232 3194 3343 3414 3442 3352 3161 2394 2739 2514
0 0 0 0 0 0 0 0 0 0 0 0 0 0 0 0 177 203 151 19 32 200 414 291 217 560 629 552 536 788 1104 1371 1404 2538 2957 3125 3098 3462 3419 3295 3236 2996 2591 2885
0 0 0 0 0 0 0 0 0 0 0 0 0 0 0 0 0 42 180 22 27 1 124 447 520 620 858 1000 817 839 873 1041 1401 1502 2434 2830 3075 3361 3409 3358 3252 3281 2902 3127
0 0 0 0 0 1 0 0 0 0 0 0 0 0 0 0 0 134 153 80 79 77 40 60 863 957 1146 2356 1283 1041 1026 1096 1499 1788 2098 2679 2881 3390 3552 3508 3414 3372 3256 2822
0 0 0 1 0 0 0 0 0 0 0 0 0 0 0 0 0 0 0 0 0 0 3 139 383 1144 1568 2427 2200 1553 1329 1539 1341 1845 2071 2676 2959 3351 3655 3643 3558 3391 3160 2595
0 0 0 5 0 0 0 0 0 0 1 239 75 0 0 0 0 1 264 137 2 0 0 0 55 18 1596 1467 2716 2216 1870 2063 1720 1662 2377 2532 3017 3469 3849 3721 3496 3082 2553 2091
0 0 1 12 0 0 0 0 0 9 44 863 546 476 378 381 631 360 381 599 420 32 0 0 0 46 531 1404 2408 2966 2468 2120 2802 2597 3391 3466 3698 3963 3910 3488 3133 2882 2098 1668
49 5 3 1 33 5 359 58 820 1309 908 957 749 638 425 332 251 253 1214 1125 1102 1348 1385 1093 266 594 947 1387 2536 2591 3014 2974 3004 3671 4119 4067 3932 3817 3212 2751 2474 2436 1987 1566
44 56 56 99 85 556 518 721 637 761 976 804 930 583 427 415 397 1436 1559 1528 1126 1184 1342 1749 3405 4353 4416 3467 2819 3105 3599 3815 3905 4084 3875 3738 3218 2937 2333 1871 1559 1401 1263 1059
42 1 83 149 56 50 126 109 69 591 795 1546 1837 1849 1933 2091 2283 2384 2431 2379 2867 2870 3341 3789 4030 4040 4195 4269 4295 4150 3928 3798 3686 3378 2896 2251 2129 1852 1572 1107 1154 1027 914 843
21 12 0 48 19 100 227 0 81 640 1613 1459 1573 1830 1940 2002 2163 2107 2152 2594 3122 3233 3672 3770 3938 4224 4053 3791 3651 3525 3451 3304 3019 2620 1764 1310 862 137 0 0 392 386 101 490
37 29 16 9 8 7 0 0 14 810 770 677 1013 1392 1500 1735 1894 1715 1695 2036 2368 2520 2701 2964 3434 3429 3483 3426 3282 3031 2608 2177 1860 1407 1141 362 79 0 0 0 0 0 0 0

GFSCGP_con_sbcape_036.txt.gz
CAPE
0 0 0 0 0 0 0 0 0 0 0 2 0 0 0 149 307 376 306 269 230 108 99 22 466 511 196 355 638 687 716 524 426 956 1038 970 868 852 956 644 533 1080 1200 1386
0 0 0 0 0 0 0 0 0 0 13 7 3 0 0 0 155 203 195 152 145 80 37 29 160 327 232 204 508 449 653 671 621 840 939 880 995 1032 669 800 1214 1021 1113 1034
0 0 0 0 0 0 0 0 0 0 0 5 6 9 0 0 0 0 52 82 59 43 5 25 47 225 352 216 475 425 629 896 814 973 954 746 823 691 918 969 1347 1252 1142 1262
0 0 0 0 0 0 0 0 0 0 0 0 0 0 5 0 0 0 0 6 24 23 0 6 53 138 285 340 498 379 585 1235 995 1036 1068 990 970 1047 748 804 1146 1319 1166 1285
0 0 0 0 0 0 0 0 0 0 0 0 3 0 0 0 0 0 0 0 7 2 5 0 41 54 164 262 546 532 565 1368 1242 1212 1028 946 689 670 1038 818 1328 919 1107 1117
0 0 0 0 0 0 0 0 0 0 0 0 0 0 0 0 5 0 0 0 0 0 0 0 20 25 38 234 551 686 727 1142 1283 1328 1092 937 773 603 704 610 661 733 1088 953
0 0 0 0 0 0 0 0 0 0 0 0 0 0 0 0 7 8 0 1 0 0 0 0 0 22 46 178 538 774 849 1091 1137 1335 1204 809 657 593 442 344 742 865 597 672
0 0 0 0 0 0 0 0 0 0 0 0 0 0 0 0 0 19 23 9 4 0 0 0 0 30 35 171 637 995 853 1042 1130 1027 1178 1312 1262 1116 661 412 627 763 581 608
0 0 0 0 0 0 0 0 0 0 0 0 0 0 0 0 0 1 14 42 0 0 0 0 0 1 77 188 700 981 976 939 1315 1202 915 938 1241 1782 1709 1021 775 297 202 105
0 0 0 0 0 0 0 0 0 0 0 0 0 0 0 0 0 0 12 33 0 0 0 0 0 10 145 178 694 939 1052 1013 1233 1435 1304 1123 994 1379 1791 1452 1092 821 297 362
0 0 0 0 0 0 0 0 0 0 0 0 0 0 0 0 0 0 25 78 11 0 0 0 0 0 73 323 504 1220 1195 1127 1211 1460 1573 1459 1184 1029 1375 1865 1745 1076 833 439
0 0 0 0 0 0 0 0 0 0 0 0 0 0 0 0 0 0 0 10 22 1 23 6 19 21 19 358 421 1102 1545 1423 1400 1637 1693 1754 1597 1512 1241 1405 1814 1674 1104 828
0 0 0 0 0 0 0 0 0 0 0 0 0 0 0 0 0 7 1 0 11 10 0 29 70 15 7 304 480 892 1523 1784 1715 1834 1873 2027 2106 2065 1872 1684 1560 1970 1714 947
0 0 0 0 0 0 0 0 0 0 0 0 0 0 0 0 0 1 21 12 17 1 7 0 0 11 54 358 555 626 1216 2038 2019 2129 2075 2076 2236 2438 2404 2243 1927 1818 1966 1367
0 0 0 0 0 0 0 0 0 0 0 0 0 0 0 0 0 0 0 1 22 14 0 0 0 0 150 317 656 762 905 1869 2207 2466 2397 2329 2374 2530 2647 2738 2602 2224 1942 1921
0 0 0 0 0 0 0 0 0 0 0 0 0 0 0 0 0 0 0 21 0 0 0 0 0 0 149 315 715 857 1005 1820 2113 2467 2662 2675 2749 2766 2698 2824 2979 2524 2268 2155
0 0 0 0 0 0 0 0 0 0 0 0 0 0 0 0 0 0 0 0 0 0 1 39 8 3 236 393 729 956 1089 1351 2225 2368 2642 2781 2905 2959 2933 2867 3017 2885 2391 2455
0 0 0 0 0 0 0 0 0 0 0 0 0 0 0 0 0 0 0 0 0 0 0 15 64 165 238 307 399 862 1100 1301 1698 2428 2551 2869 2948 2945 3016 3061 2998 2951 2578 2368
0 0 0 0 0 0 0 0 0 0 0 0 0 0 0 0 0 0 0 0 0 0 0 0 51 324 410 621 300 456 669 1120 1492 1731 2326 2563 2839 2839 3097 3091 3036 2945 2952 2514
0 0 0 0 0 0 0 0 0 0 0 6 0 0 0 0 0 0 0 0 0 0 0 4 19 519 387 966 757 554 518 858 1150 1448 1459 2318 2733 2858 3040 3154 3107 3044 3021 2651
18 28 8 0 0 0 0 0 0 0 0 147 3 0 0 0 0 0 0 14 0 0 0 0 0 90 818 1130 1406 910 826 778 899 1227 1446 1599 2451 2664 3022 3171 3199 3072 2862 2106
79 90 52 0 0 0 0 2 0 13 503 140 44 16 12 37 22 227 205 583 695 773 778 227 0 0 0 920 2133 1561 1108 1195 1203 1096 1369 1772 2345 2654 2982 3272 3202 2798 2517 1804
68 118 16 3 50 0 0 0 0 102 333 378 155 1 4 14 530 690 546 698 1549 1268 1153 2404 656 824 1441 320 1966 2081 1646 1466 1876 1524 1993 2135 2512 2923 3383 3294 2906 2508 1902 1218
126 61 92 0 17 0 0 0 0 0 1301 1227 1195 1334 1365 1559 1918 2074 2054 2403 3000 2910 2676 3082 3089 2996 3058 2884 1379 1798 2084 1970 2333 2240 3243 3374 3313 3176 3006 2812 2348 1814 1233 682
86 97 0 0 0 0 0 0 0 445 1159 1275 1217 1349 1612 1662 1868 2293 2474 2637 2858 3071 3207 3256 3345 3217 3221 3064 3003 2995 3126 3148 3337 3155 2963 2635 1879 1868 574 291 499 873 456 330
36 4 2 0 0 23 10 6 0 0 0 45 657 853 685 915 1292 1553 1488 1540 2040 2561 2658 2861 2833 2895 2605 2561 2585 2729 2822 2672 2354 1984 1064 437 86 2 2 4 3 3 0 3

GFSCGP_con_sbcape_039.txt.gz
CAPE
0 0 0 0 0 0 0 0 0 0 0 0 0 0 337 288 231 441 525 465 401 165 142 245 318 413 356 217 187 300 329 318 401 387 630 564 446 341 723 373 588 709 1159 1429
0 0 0 0 0 0 0 0 0 0 0 0 0 0 245 230 195 122 189 267 233 103 57 174 179 379 350 105 111 300 432 297 406 426 632 586 493 376 411 793 398 585 965 1189
0 0 0 0 0 0 0 0 0 0 0 0 0 0 27 175 175 183 141 75 61 109 9 0 93 357 370 177 179 320 434 334 299 389 404 448 485 398 595 519 754 885 875 923
0 0 0 0 0 0 0 0 0 0 0 0 0 0 0 3 0 38 126 120 95 75 52 5 59 291 349 179 225 315 374 403 268 279 504 528 508 568 505 739 646 876 1028 920
0 0 0 0 0 0 0 0 0 0 0 0 0 0 0 0 0 0 0 56 33 58 61 25 0 82 241 195 168 286 241 404 409 465 566 584 491 507 318 390 768 823 893 884
0 0 0 0 0 0 0 0 0 0 0 0 0 0 0 0 0 0 0 0 21 16 17 21 5 25 105 168 60 285 211 457 506 520 656 684 601 316 422 443 534 783 706 789
0 0 0 0 0 0 0 0 0 0 0 0 0 0 0 0 0 0 0 0 0 14 0 5 0 1 44 143 157 263 250 506 694 699 715 676 588 319 356 394 519 469 635 641
0 0 0 0 0 0 0 0 0 0 0 0 0 0 0 0 0 0 0 0 0 0 0 0 0 0 3 68 130 308 281 405 819 901 824 690 587 470 395 229 255 446 492 654
0 0 0 0 0 0 0 0 0 0 0 0 0 0 0 0 0 0 0 0 0 0 0 0 0 0 0 5 71 268 415 414 711 923 939 790 624 545 416 165 105 332 472 557
0 0 0 0 0 0 0 0 0 0 0 0 0 0 0 0 0 0 0 0 0 0 0 0 0 0 0 0 10 159 420 491 624 853 983 975 801 663 580 341 397 316 230 192
0 0 0 0 0 0 0 0 0 0 0 0 0 0 0 0 0 0 0 0 0 0 0 0 0 0 0 10 7 223 469 519 612 786 871 925 968 1031 1061 1028 744 457 176 67
0 0 0 0 0 0 0 0 0 0 0 0 0 0 0 0 0 0 0 0 0 0 0 0 0 0 0 0 14 304 539 672 629 879 885 830 784 758 1091 1342 1365 857 443 111
0 0 0 0 0 0 0 0 0 0 0 0 0 0 0 0 0 0 0 0 0 0 0 0 0 0 0 0 37 321 597 780 755 816 1040 1034 945 826 793 999 1278 1372 1101 666
0 0 0 0 0 0 0 0 0 0 0 0 0 0 0 0 0 0 0 0 0 0 0 0 0 0 0 0 88 168 733 796 867 856 1062 1165 1198 1067 891 775 861 1322 1468 938
0 0 0 0 0 0 0 0 0 0 0 0 0 0 0 0 0 0 0 0 0 0 0 0 0 0 0 0 68 159 557 1027 1057 1043 1174 1197 1329 1347 1272 1125 881 936 1256 1424
0 0 0 0 0 0 0 0 0 0 0 0 0 0 0 0 0 0 0 0 0 0 0 0 0 0 0 0 83 263 400 965 1336 1314 1434 1456 1422 1625 1694 1624 1516 1314 1166 1302
0 0 0 0 0 0 0 0 0 0 0 0 0 0 0 0 0 0 0 0 0 0 0 0 0 0 0 36 118 298 425 801 1603 1608 1676 1740 1691 1748 1922 1995 1986 1931 1672 1466
0 0 0 0 0 0 0 0 0 0 0 0 0 0 0 0 0 0 0 0 0 0 0 0 0 0 0 0 77 366 561 677 1491 1773 1881 2028 2012 1988 2000 2115 2180 2298 2172 1858
0 0 0 0 0 0 0 0 0 0 0 0 0 0 0 0 0 0 0 0 0 0 0 0 0 0 0 0 106 441 640 823 1383 1721 1939 2263 2284 2303 2306 2354 2319 2389 2533 2230
0 0 0 0 0 0 0 0 0 0 0 0 0 0 0 0 0 0 0 0 0 0 0 0 0 0 13 77 285 649 862 962 1117 1797 1978 2166 2390 2426 2522 2523 2490 2445 2575 2429
0 0 0 0 0 0 0 0 0 0 0 0 0 0 0 0 0 0 0 0 0 0 0 0 0 6 148 183 175 478 705 917 1146 1292 1905 2151 2324 2513 2563 2589 2623 2654 2709 2618
13 0 8 0 0 0 0 0 0 0 0 0 0 0 0 0 0 0 0 0 0 0 0 0 0 0 30 606 295 254 292 680 953 1147 1244 1521 2058 2419 2577 2609 2723 2755 2789 2684
35 48 1 0 0 0 0 0 0 0 0 0 27 0 0 0 0 5 53 68 197 257 1200 198 0 0 0 98 856 460 445 511 497 746 973 1109 1380 2189 2475 2639 2822 2942 2928 2630
26 31 31 14 54 11 4 0 0 0 2 582 762 250 72 563 774 839 1403 1696 1865 2319 2511 2322 2092 2171 2271 2407 768 811 990 902 706 614 726 973 1143 1640 2220 2611 2848 2978 2891 2342
1 121 19 0 43 3 1 0 0 3 0 166 325 332 838 1555 1737 1862 2036 2182 2431 2564 2627 2486 2428 2331 2045 2257 2299 2410 1964 1428 1271 1329 1026 1394 1565 1697 13 0 1 777 881 1507
54 152 101 3 0 0 0 0 2 10 0 0 0 0 0 69 489 955 935 1005 1290 1512 1670 1914 2099 2192 2007 1759 1385 1521 1886 2471 2718 2782 2107 1340 26 1 0 0 0 1 1 26

GFSCGP_con_sbcape_042.txt.gz
CAPE
0 0 0 0 0 0 0 0 0 0 0 0 0 0 184 276 367 412 336 218 241 244 212 214 238 352 252 205 196 105 239 114 136 227 243 352 340 202 290 516 494 511 690 1203
0 0 0 0 0 0 0 0 0 0 0 0 0 0 202 181 289 425 421 394 240 185 119 97 128 223 164 97 152 154 137 130 44 242 350 439 408 141 342 609 428 503 780 1131
0 0 0 0 0 0 0 0 0 0 0 0 0 0 125 187 137 233 362 385 340 261 155 32 75 144 311 120 99 165 152 126 122 146 171 154 158 230 257 358 537 346 702 1040
0 0 0 0 0 0 0 0 0 0 0 0 0 0 0 91 143 63 74 267 299 228 105 17 49 71 179 237 101 93 124 193 152 149 226 376 521 622 438 351 444 699 665 814
0 0 0 0 0 0 0 0 0 0 0 0 0 0 0 1 99 81 53 32 50 62 54 6 0 34 54 156 134 51 72 196 152 189 284 303 453 307 163 308 461 374 703 858
0 0 0 0 0 0 0 0 0 0 0 0 0 0 0 0 23 60 42 68 82 50 21 11 0 0 4 126 156 52 117 204 198 131 229 284 340 139 202 160 369 422 568 715
0 0 0 0 0 0 0 0 0 0 0 0 0 0 0 0 0 0 0 0 22 90 53 18 9 0 12 81 145 62 120 171 244 200 211 312 336 215 325 221 278 263 468 590
0 0 0 0 0 0 0 0 0 0 0 0 0 0 0 0 0 0 0 0 0 0 15 32 11 0 0 35 123 68 129 132 230 313 326 393 442 360 386 251 284 320 512 715
0 0 0 0 0 0 0 0 0 0 0 0 0 0 0 0 0 0 0 0 0 0 0 0 5 0 0 2 68 57 101 128 168 405 436 459 494 504 405 360 102 237 449 606
0 0 0 0 0 0 0 0 0 0 0 0 0 0 0 0 0 0 0 0 0 0 0 0 0 0 0 0 22 80 73 115 155 445 529 554 561 525 503 406 97 154 242 488
0 0 0 0 0 0 0 0 0 0 0 0 0 0 0 0 0 0 0 0 0 0 0 0 0 0 0 0 0 27 85 159 157 539 657 714 681 630 546 477 288 207 200 249
0 0 0 0 0 0 0 0 0 0 0 0 0 0 0 0 0 0 0 0 0 0 0 0 0 0 0 0 0 0 31 199 256 338 717 801 799 712 605 554 490 377 282 147
0 0 0 0 0 0 0 0 0 0 0 0 0 0 0 0 0 0 0 0 0 0 0 0 0 0 0 0 0 0 11 176 319 380 580 769 847 850 795 762 844 648 521 277
0 0 0 0 0 0 0 0 0 0 0 0 0 0 0 0 0 0 0 0 0 0 0 0 0 0 0 0 0 0 32 159 346 418 605 678 798 834 925 1008 1071 1121 872 580
0 0 0 0 0 0 0 0 0 0 0 0 0 0 0 0 0 0 0 0 0 0 0 0 0 0 0 0 0 12 71 247 469 523 641 815 788 770 801 857 987 1129 1293 1086
0 0 0 0 0 0 0 0 0 0 0 0 0 0 0 0 0 0 0 0 0 0 0 0 0 0 0 0 0 26 108 390 552 684 710 888 976 986 906 866 838 905 1242 1424
0 0 0 0 0 0 0 0 0 0 0 0 0 0 0 0 0 0 0 0 0 0 0 0 0 0 0 0 0 56 143 526 687 815 854 929 1081 1193 1169 1089 979 861 881 1167
0 0 0 0 0 0 0 0 0 0 0 0 0 0 0 0 0 0 0 0 0 0 0 0 0 0 0 0 0 4 157 491 894 957 993 1093 1219 1263 1380 1368 1330 1254 1086 941
0 0 0 0 0 0 0 0 0 0 0 0 0 0 0 0 0 0 0 0 0 0 0 0 0 0 0 0 0 12 156 388 916 1207 1269 1328 1478 1453 1452 1616 1684 1626 1568 1456
0 0 0 0 0 0 0 0 0 0 0 0 0 0 0 0 0 0 0 0 0 0 0 0 0 0 0 0 0 0 221 399 702 1381 1549 1584 1644 1673 1615 1706 1867 1917 1950 1962
0 0 0 0 0 0 0 0 0 0 0 0 0 0 0 0 0 0 0 0 0 0 0 0 0 0 0 0 0 0 191 544 779 1136 1577 1772 1931 1949 1926 1882 1911 2056 2086 2248
0 0 0 0 0 0 6 5 0 0 0 0 0 0 0 0 0 0 0 0 0 0 0 0 0 0 0 0 5 106 376 613 775 1028 1549 1767 1988 2204 2201 2219 2239 2296 2317 2406
20 0 1 0 0 0 16 4 0 0 0 0 0 0 0 0 0 0 0 0 0 645 500 0 0 15 417 20 22 0 7 121 390 759 1070 1624 1978 2170 2383 2548 2644 2585 2579 2531
0 0 57 9 3 99 102 0 0 0 0 0 0 0 183 0 65 695 1024 1550 2008 1885 1852 1839 1835 1652 1540 1810 1078 449 545 599 252 358 608 768 1044 1615 2118 2585 2748 2797 2776 2741
0 0 0 16 0 41 130 0 0 0 0 0 0 32 821 1152 1338 1642 1352 1389 1320 1494 1386 1514 1668 1734 1549 1637 1939 2226 1940 867 832 460 441 856 763 7 1 1 17 168 1 1637
1 0 0 0 0 0 47 0 0 1 0 3 2 141 97 386 627 987 937 743 711 680 1105 1160 1307 1401 1363 1310 1480 1862 2059 1904 1965 1542 1164 267 4 1 31 0 0 1 1 0

GFSCGP_con_sbcape_045.txt.gz
CAPE
0 0 0 0 0 0 0 0 0 0 0 0 0 0 0 521 764 759 656 598 479 421 399 518 647 664 669 781 938 1104 1111 1443 1048 883 675 519 280 584 1085 1392 1712 1703 1984 2164
0 0 0 0 0 0 0 0 0 0 0 0 0 0 0 333 657 767 710 633 522 397 427 608 698 740 773 825 986 1199 1293 1496 1219 923 995 490 741 774 1226 1508 1825 1978 1914 2204
0 0 0 0 0 0 0 0 0 0 0 0 0 0 18 288 573 666 715 650 428 518 465 515 625 688 792 906 1205 1521 1728 1829 1389 1427 994 957 967 1201 1225 1286 1704 1777 1981 2132
0 0 0 0 0 0 0 0 0 0 0 0 0 0 0 162 507 608 733 715 592 478 514 404 467 609 701 1058 971 1413 1456 1798 1427 1770 1336 1632 922 1033 1166 1471 1489 1679 1934 2030
0 0 0 0 0 0 0 0 0 0 0 0 0 0 0 35 326 468 588 710 692 617 554 469 386 665 612 835 794 880 1373 1710 1721 1684 1650 1419 1531 1138 1236 1458 2085 2410 2312 2103
0 0 0 0 0 0 0 0 0 0 0 0 0 0 0 2 234 399 424 495 655 645 622 632 535 443 603 609 777 769 1391 1657 1736 1709 1702 1855 1772 1777 1283 1558 1445 1468 1397 1595
0 0 0 0 0 0 0 0 0 0 0 0 0 0 0 0 5 65 292 417 403 570 681 729 709 497 829 861 1065 1181 1436 1540 1735 1647 1677 1789 1884 2030 2121 1947 1411 1637 1213 1247
0 0 0 0 0 0 0 0 0 0 0 0 0 0 0 0 0 0 0 98 330 420 548 638 1017 897 672 881 1067 1232 1334 1463 1558 1608 1674 1798 1960 1652 1698 1800 1323 1244 1269 1361
0 0 0 0 0 0 0 0 0 0 0 0 0 0 0 0 0 0 0 0 96 323 468 457 493 760 694 716 1001 1259 1386 1426 1541 1566 1679 1718 1833 1860 1716 2070 2174 1392 2081 1394
0 0 0 0 0 0 0 0 0 0 0 0 0 0 0 0 0 0 0 0 5 124 189 368 679 815 789 626 899 1248 1385 1488 1511 1507 1588 1620 1707 1862 1915 2074 2136 2055 2255 1954
0 0 0 0 0 0 0 0 0 0 0 0 0 0 0 0 0 0 0 0 0 0 12 50 340 841 922 813 529 1010 1275 1430 1521 1522 1637 1728 1726 1828 1990 2011 2138 2147 2308 2424
0 0 0 0 0 0 0 0 0 0 0 0 0 0 0 0 0 0 0 0 0 0 0 0 3 151 541 853 707 799 1104 1114 1381 1457 1671 1768 1922 1974 1992 2050 2108 2162 2220 2330
0 0 0 0 0 0 0 0 0 0 0 0 0 0 0 0 0 0 0 0 0 0 0 5 3 139 631 714 729 649 864 904 1068 1437 1616 1871 1957 1949 1993 2055 2191 2242 2189 2242
0 0 0 0 0 0 0 0 0 0 0 0 0 0 0 0 0 0 0 0 0 0 4 78 135 158 593 755 796 729 880 874 977 1335 1528 1719 1868 1962 1963 2074 2197 2249 2238 2223
0 0 0 0 0 0 0 0 0 0 0 0 0 0 0 0 0 0 0 0 0 0 0 44 273 596 661 825 904 820 843 1146 1170 1551 1585 1766 2081 2183 2215 2249 2245 2303 2371 2220
0 0 0 0 0 0 0 0 0 0 0 0 0 0 0 0 0 0 0 0 0 0 0 48 378 549 785 773 867 831 941 1069 1355 1639 1694 1831 2128 2245 2268 2325 2369 2419 2438 2428
0 0 0 0 0 0 0 0 0 0 0 0 0 0 0 0 0 0 0 0 0 0 0 24 314 748 1065 747 835 876 1050 1261 1523 1737 1803 1994 2188 2230 2314 2357 2446 2507 2566 2662
0 0 0 0 0 0 0 0 0 0 0 0 0 0 0 0 0 0 0 0 0 0 0 0 0 145 587 460 327 899 1009 1470 1739 1883 2030 2169 2289 2287 2327 2364 2370 2399 2454 2594
0 0 0 0 0 0 0 0 0 0 0 0 0 0 0 0 0 0 0 0 0 0 0 0 0 0 491 696 781 998 1298 1489 1825 1935 2160 2296 2252 2377 2483 2484 2416 2375 2341 2357
0 0 0 0 0 0 0 0 0 0 0 0 0 0 0 0 0 0 0 0 0 0 0 0 0 0 1 572 325 986 1365 1668 1913 2068 2176 2309 2380 2435 2508 2591 2579 2593 2503 2390
3 4 0 0 0 0 0 0 0 0 0 0 0 0 0 0 0 0 0 0 0 0 0 0 0 0 314 79 774 1365 1476 1710 1897 2093 2383 2611 2651 2682 2533 2701 2767 2858 2594 2600
30 11 8 1 0 0 0 0 0 4 0 0 0 0 0 0 0 0 2 0 0 0 0 0 0 0 1 198 857 1368 1971 1985 2202 2384 2276 2864 2958 2483 2448 2862 2439 2845 2625 2039
38 15 39 0 0 0 0 0 2 3 0 0 0 0 0 0 0 188 296 6 0 788 400 0 0 308 667 871 827 1766 2240 1926 1960 2105 2619 2771 2931 2911 3174 3146 2991 2707 2774 2353
16 36 75 35 0 0 0 0 0 14 1 7 25 12 0 0 184 816 346 186 2074 2322 1415 914 2274 2338 2265 1911 1579 1564 1606 2133 2602 2658 2872 2978 2904 3046 3124 2987 2999 2967 3135 3329
14 14 27 8 0 0 0 0 13 31 27 18 43 7 0 350 1104 98 974 2286 2018 1766 1882 2141 2316 2297 2592 2819 3097 3113 2087 2080 1979 2116 2257 2409 2561 2528 1591 614 1695 3604 3817 3093
5 2 4 0 0 4 0 0 11 38 68 76 58 4 25 909 1171 1485 1607 1667 1685 1589 1715 1774 1681 1639 1913 2574 2819 2316 2803 2691 2484 2152 1759 718 393 423 18 3 1 1 25 672

GFSCGP_con_sbcape_048.txt.gz
CAPE
0 0 0 0 0 0 0 0 0 0 3 1 35 57 29 46 628 784 1019 1006 841 478 378 368 443 414 413 503 713 897 1014 1982 1551 1336 1016 716 384 432 463 1067 1681 2291 2623 2763
0 0 0 0 0 0 0 0 0 0 0 0 2 4 0 0 461 672 992 1083 1046 767 395 389 473 444 482 690 924 1302 1464 1832 1994 1337 1194 653 538 294 664 1267 1791 2444 2394 2778
0 0 0 0 0 0 0 0 0 0 0 0 0 0 0 0 92 458 768 1021 1025 977 618 495 520 583 499 636 904 1262 2066 2171 2045 1873 1169 874 541 803 911 1345 1709 2319 2480 2490
0 0 0 0 0 0 0 0 0 0 0 0 0 2 8 0 72 306 582 884 1004 1009 888 423 430 662 449 578 846 1403 2004 2310 2297 1858 1524 2154 559 468 577 1437 1361 1470 2065 2166
0 0 0 0 0 0 0 0 0 0 0 0 0 0 0 0 0 251 491 788 876 976 940 672 390 412 587 753 1005 1292 2146 2676 2702 2582 2383 1662 1612 288 749 1303 2595 3271 2898 2393
0 0 0 0 0 0 0 0 0 0 0 0 0 0 0 0 3 26 246 556 833 814 847 961 435 327 618 820 1073 1303 2323 3530 3003 2515 2231 3038 2752 1784 1358 2112 1831 1891 1862 1840
0 0 0 0 0 0 0 0 0 0 0 0 0 0 0 0 0 0 11 180 652 917 847 921 959 518 520 711 1018 1459 2754 3524 3142 2515 2476 2696 2883 3013 3030 2711 2036 2557 1409 1332
0 0 0 0 0 0 0 0 0 0 0 0 0 0 0 0 0 0 0 1 543 771 964 931 1076 1010 818 762 1757 2044 2829 3269 2625 2565 3310 3453 3643 1945 1845 2506 1737 1639 1535 1246
0 0 0 0 0 0 0 0 0 0 0 0 0 0 0 0 0 0 0 0 0 237 824 1040 1037 1140 1195 1201 1844 2522 3020 3455 3331 2620 3615 3608 3384 3267 2229 3138 3234 2047 2801 1535
0 0 0 0 0 0 0 0 0 0 0 0 0 0 0 0 0 0 0 0 0 0 322 853 1099 1145 1390 1328 1556 2230 2959 3462 3412 3046 3080 2769 3198 3385 3410 3557 3535 3421 3307 2958
0 0 0 0 0 0 0 0 0 0 0 0 0 0 0 0 0 0 0 0 0 0 141 836 1001 1074 1272 1372 1347 1685 2292 2927 2835 2933 3084 3264 3139 2788 3189 2976 3599 3705 3763 3824
0 0 0 0 0 0 0 0 0 0 0 0 0 0 0 0 0 0 0 0 0 0 3 364 650 935 1046 1213 1308 1406 1614 1856 2077 2674 3259 3331 3424 3332 3080 3317 3440 3649 3719 4009
0 0 0 0 0 0 0 0 0 0 0 0 0 0 0 0 0 0 0 0 0 0 0 0 19 172 583 1020 1928 1278 1338 1520 1752 2476 2201 2954 3307 3330 3503 3635 3565 3591 3723 3917
0 0 0 0 0 0 0 0 0 0 0 0 0 0 0 0 0 0 0 0 0 0 0 0 34 92 127 800 2249 2478 1595 1340 1583 1819 2110 2888 3343 3405 3398 3554 3573 3562 3758 3901
0 0 0 0 0 0 0 0 0 0 0 0 0 0 0 0 0 0 0 0 0 0 0 0 137 278 678 942 2183 2657 2155 2144 1855 2512 2616 2843 3304 3560 3626 3687 3705 3769 3854 3836
0 0 0 0 0 0 0 0 0 0 0 0 0 0 0 0 0 0 0 0 0 0 0 0 5 152 801 1105 1459 1953 2208 1996 2228 2795 2777 3091 3403 3742 3674 3727 3827 3898 3868 3961
0 0 0 0 0 0 0 0 0 0 0 0 0 0 0 0 0 0 0 0 0 0 0 0 0 174 560 1265 1385 1928 2240 1820 2429 2791 3058 3322 3535 3696 3784 3602 3754 3947 3967 3776
0 0 0 0 0 0 0 0 0 0 0 0 0 0 0 0 0 0 0 0 0 0 0 0 0 0 280 516 541 1424 1432 2426 2618 2918 3079 3460 3640 3655 3760 3894 3909 4044 3914 3844
0 0 0 0 0 0 0 0 0 0 0 0 0 0 0 0 0 0 0 0 0 0 0 0 0 0 0 0 203 916 1481 1711 2072 2957 3155 3357 3539 3748 3876 3963 3975 4053 3596 3619
0 0 0 0 0 0 0 0 0 0 0 0 0 0 0 0 0 0 0 0 0 0 0 0 0 0 0 0 23 767 1532 2274 2927 3140 3221 3439 3719 3894 3956 3941 3920 3714 3635 2997
9 1 0 0 0 0 0 0 1 1 29 15 0 0 73 115 37 43 35 26 0 0 0 0 0 0 127 25 450 1903 1737 2354 3111 2412 2435 3345 3926 4160 4076 4208 4001 3790 3507 3418
68 19 1 0 0 0 0 0 10 24 6 3 0 0 0 24 120 256 373 308 194 50 51 0 0 0 0 507 1335 3010 3196 3130 3273 3384 2756 3681 3983 3114 2788 4039 3576 3707 3785 3819
40 39 61 7 0 0 0 0 0 0 0 0 0 0 0 0 0 31 643 844 698 627 345 0 221 22 368 863 1587 2219 3718 3620 3055 3122 3793 3979 3786 3250 3609 3915 3655 3242 3551 3103
22 31 52 62 10 16 7 0 0 0 0 0 0 0 0 0 0 66 909 1275 1127 1066 425 702 350 425 1380 1972 2251 2346 2396 3211 3296 3230 3215 3445 3601 3856 3448 3148 3238 3185 3092 3205
35 78 63 53 37 30 31 0 0 0 20 2 2 0 0 0 0 144 1258 1823 1364 994 2416 1816 1885 2521 2878 2997 2988 2586 2637 2730 2672 2957 3103 3298 3352 3397 3577 2514 2169 3387 3741 2786
4 3 16 16 16 32 21 9 0 1 0 0 0 0 0 2 11 148 1682 2094 2163 2017 2137 2482 2645 3462 4038 3687 2910 3476 2881 2840 3103 3308 3261 3199 3245 3467 3478 2547 895 1 0 3

GFSCGP_con_sbcape_051.txt.gz
CAPE
0 0 0 0 0 0 3 0 1 72 88 153 144 182 244 464 596 799 1124 1115 775 533 387 442 454 355 332 394 629 1358 1721 2780 1921 1275 1184 981 519 632 243 235 1187 1515 2053 2482
0 0 0 0 0 0 0 4 7 36 87 133 135 137 184 167 322 435 812 1106 1102 734 486 353 418 324 301 468 1246 1988 2373 3249 2581 1532 1793 945 1059 245 262 350 1972 1881 2220 2597
0 0 0 0 0 0 0 0 0 18 49 113 53 68 89 102 40 346 516 1003 1090 1054 663 320 385 326 281 678 1374 1893 2748 3037 2880 2458 2023 1794 1246 1152 422 578 1137 1820 2191 2336
0 0 0 0 0 0 0 0 0 0 35 104 28 69 49 70 26 131 494 832 1057 1142 987 495 259 350 341 556 839 2111 3126 3408 3148 3409 1915 2079 795 406 309 615 866 1579 2539 2343
0 0 0 0 0 0 0 0 0 0 1 9 25 54 67 53 63 83 264 478 749 1057 1068 801 320 311 327 346 474 1488 3182 3599 3548 3546 2880 1749 1653 311 349 479 2249 2652 3642 3210
0 0 0 0 0 0 0 0 0 0 0 0 0 10 13 51 121 125 162 244 536 880 943 965 539 245 336 298 391 931 2862 3917 4146 4159 3575 3584 2555 1796 358 982 1132 1499 1613 1963
0 0 0 0 0 0 0 0 0 0 0 0 0 0 0 4 21 47 140 224 437 695 906 984 817 394 325 531 604 945 2794 3954 4250 4189 3859 3301 3673 3273 2750 2919 1542 2282 1226 1179
0 0 0 0 0 0 0 0 0 0 0 0 0 0 0 0 0 3 26 120 242 644 795 948 1074 615 578 835 1300 1695 2783 3851 4179 4111 4178 4191 3891 2248 1959 2236 1866 1602 1352 1251
0 0 0 0 0 0 0 0 0 0 0 0 0 0 0 0 0 0 0 5 115 366 636 861 1012 1015 649 1122 1816 2243 2905 3799 4175 3997 4190 4303 4150 3693 2466 2538 3252 1886 3021 1360
0 0 0 0 0 0 0 0 0 0 0 0 0 0 0 0 0 0 0 0 13 314 625 709 870 1163 1407 1010 1729 2320 2804 3851 3976 3993 4076 4143 4206 4142 3632 3450 3619 3179 2983 3684
0 0 0 0 0 0 0 0 0 0 0 0 0 0 0 0 0 0 0 0 0 78 501 651 589 1010 1530 1306 1178 2021 2842 3405 3958 4050 4050 4165 4109 4078 4204 3753 3888 3854 4379 4385
0 0 0 0 0 0 0 0 0 0 0 0 0 0 0 0 0 0 0 0 0 0 42 164 501 946 1155 1631 1427 1597 1916 2412 3660 3726 3955 4029 4100 4107 4033 4129 3821 4196 4146 4498
0 0 0 0 0 0 0 0 0 0 0 0 0 0 0 0 0 0 0 0 0 0 22 61 151 924 1149 1385 2288 2212 2282 1965 2203 3355 3387 3882 4029 4089 4044 4069 4204 4125 4359 4371
0 0 0 0 0 0 0 0 0 0 0 0 0 0 0 0 0 0 0 0 0 0 1 43 186 693 1193 1668 2501 2772 2188 1829 2187 2588 3063 3583 4007 4065 4048 4033 4196 4237 4368 4406
0 0 0 0 2 0 0 0 0 0 0 0 0 0 0 0 0 0 0 0 0 0 0 0 30 126 326 1281 2333 3086 2479 2627 2093 2986 3187 3520 3945 4234 4252 4185 4139 4331 4367 4393
0 0 2 0 0 0 0 0 0 0 0 0 0 0 0 0 0 0 0 0 0 0 0 0 0 74 262 386 1251 2336 3292 2606 3003 3212 3258 3848 4050 4269 4370 4335 4342 4386 4393 4386
3 0 14 5 0 0 0 0 0 0 0 0 0 0 0 0 0 0 0 0 0 0 0 0 0 0 237 259 1321 1979 2917 3394 3309 3016 3862 3902 4175 4282 4446 4472 4471 4477 4482 4445
3 7 11 8 0 4 0 0 0 0 0 0 0 0 0 0 0 0 0 0 0 0 0 0 0 0 3 122 439 1533 1503 3569 3593 3724 3373 4044 4137 4269 4461 4595 4558 4596 4539 4555
0 2 7 0 3 0 0 0 0 0 0 0 0 0 0 0 0 0 0 0 0 0 0 0 0 0 0 0 120 596 1972 2424 3409 3592 3668 3760 4157 4336 4495 4541 4598 4609 4604 4637
0 0 0 11 5 15 10 3 0 0 1 2 0 0 0 0 0 0 20 13 110 18 9 10 0 0 0 0 0 2 1188 2876 3630 3634 3763 3944 4321 4434 4431 4526 4692 4656 4718 4594
0 1 0 1 8 5 3 4 7 4 160 118 50 67 74 69 305 447 267 295 353 297 204 161 122 53 158 245 388 1053 1139 2794 3269 3144 3746 4275 4328 4521 4588 4733 4744 4739 4646 4114
58 18 2 1 8 5 0 0 20 61 5 0 0 4 15 0 0 6 57 74 322 836 763 413 242 264 488 404 1578 2307 2843 3186 4130 4112 4000 4332 4502 4148 3903 4810 4845 4791 4716 4646
29 53 36 12 2 0 0 0 1 0 0 0 0 0 0 0 0 0 0 26 434 1215 1433 1110 701 1154 1656 1120 2388 2882 3490 4466 4364 4586 4546 4570 4709 4657 4409 4751 4930 4433 4673 3779
40 31 26 17 1 9 0 0 0 0 0 0 0 1 0 0 0 0 0 90 521 1596 1910 1650 1172 956 1820 2147 2314 3537 4015 4910 4782 4792 4751 4735 4842 4841 4704 4019 4027 3813 3556 3643
42 40 41 21 8 0 0 7 6 1 0 0 0 0 0 0 0 0 0 100 952 2076 2033 1659 2049 2006 1681 2162 2779 2606 3400 4145 4250 4186 3903 4563 4070 4316 4415 3279 1830 3373 3213 1779
58 73 61 39 34 40 27 16 3 0 0 0 0 0 0 0 0 0 0 25 1387 2093 2551 2467 2607 2679 3177 3427 3732 3650 3311 3512 4065 3771 3574 3144 2922 3796 3562 2843 745 0 0 0

GFSCGP_con_sbcape_054.txt.gz
CAPE
0 0 0 0 0 0 5 0 0 17 7 109 76 244 82 58 0 34 498 380 234 342 542 652 558 597 697 889 1380 1353 2016 2443 2036 2005 1836 1830 1171 1581 1722 1737 2056 3144 3345 3492
0 0 0 0 0 0 0 0 0 0 52 45 71 364 80 0 92 289 383 456 465 335 365 665 681 590 582 872 1203 1562 1853 2318 2470 1878 1902 1574 1830 1272 1059 1387 2230 2919 2931 3590
0 0 0 0 0 0 0 0 0 1 78 20 87 90 202 304 806 794 571 737 702 640 478 568 674 622 556 887 1305 1600 1824 2823 2439 2126 2234 2671 2321 2398 1470 1186 1417 2348 2955 3531
0 0 0 0 0 0 0 0 0 11 99 73 76 107 385 166 224 363 573 703 715 840 764 361 504 572 582 820 1171 1708 1959 2359 2381 2548 1823 2067 1100 904 713 1276 1332 2168 2755 3043
0 0 0 0 0 0 0 0 0 2 0 7 76 84 33 82 113 63 242 645 556 933 830 587 362 477 514 701 1160 1472 2093 2191 2572 1936 2474 1752 1584 905 1445 1245 1758 2751 3189 3122
0 0 0 0 0 0 0 0 0 0 0 1 0 9 88 47 147 128 79 328 753 605 994 899 536 487 456 606 1011 1436 2211 2316 2543 2698 2177 3014 1743 1685 703 1431 1570 2315 2404 2881
0 0 0 0 0 0 0 0 0 0 0 0 0 0 1 60 104 79 124 282 500 952 1091 1117 845 508 565 639 806 1168 2328 2694 2705 2875 2694 2167 3209 1812 2006 2473 1544 1728 2016 2054
0 0 0 0 0 0 0 0 0 0 0 0 0 0 0 0 28 116 226 219 275 562 1165 1259 1177 693 611 601 863 1123 2107 2639 2961 2709 3290 2828 2665 2989 1489 1720 1707 1290 2113 1792
0 0 0 0 0 0 0 0 0 0 0 0 0 0 0 0 0 3 0 236 359 411 918 1172 1376 873 663 689 911 965 1815 2464 2838 3027 3305 3499 2683 2433 2738 1691 2118 2696 2291 1876
0 0 0 0 0 0 0 0 0 0 0 0 0 0 0 0 2 0 0 0 185 424 713 1051 1242 1147 813 703 921 985 1688 2313 2889 3162 3232 3322 3539 2572 2177 2923 1934 1747 2692 4180
0 0 0 0 0 0 0 0 0 0 0 0 0 4 18 45 0 2 0 0 1 358 586 870 1122 1391 1091 818 871 1089 1246 2490 2964 3288 3451 3400 3391 3541 2873 2184 2688 2278 2700 2809
0 0 0 0 0 0 0 0 0 0 0 0 0 1 0 10 5 0 0 10 0 47 532 878 1177 1354 1467 1265 1078 1271 1477 1797 2924 3391 3513 3478 3565 3632 3521 2873 2720 2814 3059 3919
0 0 0 0 0 1 0 0 0 0 0 0 0 0 0 0 0 3 0 0 105 225 846 1025 927 1188 1576 1650 1533 1468 1723 1851 2396 3234 3601 3592 3585 3684 3683 3578 2956 3187 3294 3113
0 0 0 0 0 0 0 0 0 0 0 0 0 0 0 0 0 0 0 0 8 463 447 997 1059 879 1475 1858 1948 1893 1796 1949 2195 2758 3413 3598 3647 3722 3814 3734 3637 3363 3224 3717
0 0 0 0 0 2 0 0 0 0 0 0 0 4 3 3 0 0 74 74 175 405 292 878 665 1015 1659 2333 2332 2324 2192 2126 2107 2526 3042 3421 3580 3767 3759 3820 3749 3804 3695 3454
0 0 0 0 0 0 0 0 0 0 0 0 0 16 20 1 0 0 12 0 25 1 4 19 64 255 1058 2173 2646 2639 2489 2726 2483 2720 2718 3334 3562 3730 3943 3880 3895 3819 3928 3863
0 0 0 0 0 0 2 0 0 0 0 0 0 54 207 14 5 4 36 0 0 0 84 0 0 610 1666 1751 2870 3111 2948 2773 3025 2971 3275 3393 3661 3752 3895 4066 4009 3998 3929 4020
0 0 0 0 0 5 0 0 0 1 0 0 0 5 10 34 43 40 17 0 0 0 15 66 0 24 581 346 434 2554 2716 3927 3217 3443 3582 3746 3910 3868 4021 4086 4177 4138 4079 4066
0 0 0 0 0 0 3 0 0 0 0 3 3 5 2 1 4 5 0 0 1 21 74 77 0 0 520 370 556 2480 2273 2922 4069 3594 3848 3482 3826 4091 4077 4168 4210 4284 4243 4261
0 0 0 0 0 0 6 0 0 0 2 351 5 0 0 0 0 419 768 362 335 459 656 649 463 328 597 767 248 2820 2424 3309 3578 3657 3567 3884 3695 4014 4147 4134 4292 4365 4404 4303
0 0 0 0 0 0 0 0 0 11 339 10 28 19 370 203 287 165 35 14 74 412 772 1265 973 742 1104 1742 2070 2104 2735 3281 3590 3637 3790 3814 3737 3970 4184 4329 4364 4436 4456 4343
57 6 0 0 0 0 0 0 40 65 0 0 0 0 0 0 0 0 0 1 47 528 728 1295 1542 1681 1579 1787 2262 3455 3331 3720 4333 4410 4027 3984 4325 3632 4089 4387 4428 4503 4498 4407
0 31 47 29 0 1 0 1 4 0 0 0 0 0 0 0 0 0 0 59 69 409 786 1909 2323 2514 2337 2770 3833 3478 3807 4750 5197 4497 4537 4367 4289 4342 3843 4391 4417 4520 4562 4481
4 0 4 5 0 0 0 0 0 0 0 0 0 0 0 0 0 0 0 0 14 151 354 1795 3170 2529 2932 2884 2673 4413 4712 4785 4916 5271 4806 4729 4650 4514 4390 4213 4405 4542 4460 4447
6 9 8 6 0 0 0 0 0 0 0 0 0 0 0 0 0 0 0 0 0 117 189 1960 2883 3216 3679 3957 3946 3776 4289 4336 3948 4977 4856 4769 4581 4446 4673 2037 1067 3353 2889 1977
17 18 24 20 3 6 0 0 0 0 0 0 0 0 0 0 0 0 0 0 0 76 230 1680 2279 2889 3895 4580 4580 4719 5161 4953 4328 4573 4620 4402 4050 4471 4358 586 52 1 0 2

GFSCGP_con_sbcape_057.txt.gz
CAPE
0 0 0 0 0 0 0 0 1 1 27 56 96 5 44 157 174 242 168 15 99 416 451 432 622 569 369 239 212 134 385 652 560 1024 838 1228 704 734 83 176 1269 1560 1550 1542
0 0 0 0 0 0 0 0 0 0 0 60 175 91 90 14 41 37 43 224 151 193 159 279 128 156 146 394 92 454 336 824 612 1052 624 795 802 492 297 215 288 1653 1839 2083
0 0 0 0 0 0 0 0 0 0 0 80 160 118 62 3 13 40 156 295 244 126 138 204 78 94 70 410 300 146 653 1238 810 985 856 739 850 380 356 220 53 1494 1268 1844
0 0 0 0 0 0 0 0 0 0 12 67 3 73 32 93 96 2 114 261 57 91 105 172 102 117 177 327 525 197 894 1182 1032 922 995 723 421 396 449 96 258 913 1656 2152
0 0 0 0 0 0 0 0 0 0 0 2 51 49 96 72 1 14 101 311 16 122 81 148 126 154 118 266 474 470 501 1388 1230 1070 684 790 607 346 59 352 193 610 1316 1401
0 0 0 0 0 0 0 0 0 0 0 0 0 25 9 40 48 67 233 423 295 252 140 105 205 132 122 342 566 703 581 956 1087 944 1055 560 584 232 298 128 261 679 1836 1718
0 0 0 0 0 0 0 0 0 0 0 0 0 4 0 9 28 175 488 526 310 318 254 134 238 136 177 308 507 816 775 780 1365 934 645 1044 734 510 154 48 184 952 1736 1689
0 0 0 0 0 0 0 0 0 0 0 0 0 0 0 0 1 11 273 477 514 476 372 269 139 184 145 192 479 767 939 848 1019 1480 1027 533 924 1055 486 756 301 208 979 1388
0 0 0 0 0 0 0 0 0 0 0 0 0 0 0 0 0 0 7 348 479 529 555 425 189 159 125 191 396 660 1004 999 1106 1203 1443 1280 631 1307 966 228 803 1223 489 1130
0 0 0 0 0 0 0 0 0 0 0 0 0 0 0 0 0 0 0 10 132 434 670 580 324 192 161 161 310 447 1074 1199 1334 1313 1453 1584 1537 805 1382 905 505 490 856 1324
0 0 0 0 0 0 0 0 0 0 0 0 0 0 0 0 0 0 0 0 21 152 730 714 480 251 210 151 278 438 669 1398 1595 1726 1413 1824 2079 1748 1041 1460 1151 677 648 945
0 0 0 0 0 0 0 0 0 0 0 0 0 0 0 0 0 0 0 0 3 52 796 814 676 364 252 196 199 395 745 1261 1587 1732 1908 1607 1929 2404 1813 1095 1175 1031 884 1318
0 0 0 0 0 0 0 0 0 0 0 0 0 0 0 0 0 0 0 0 0 53 588 834 856 509 358 259 259 437 495 1136 1416 1712 1845 2260 2091 2231 2545 2046 1320 1298 1357 1321
64 0 0 0 0 0 0 0 0 0 0 0 0 0 0 0 0 0 0 0 0 0 296 709 931 735 539 393 317 434 460 611 1496 1669 2131 2201 2572 2487 2461 2619 2284 1529 1760 1770
0 0 0 0 0 0 0 0 0 0 0 0 0 0 0 0 8 14 38 23 16 51 539 574 815 986 842 673 447 425 540 594 718 2005 2199 2464 2529 2639 2595 2555 2669 2463 1724 2268
0 0 0 0 0 0 0 0 0 0 0 0 0 0 0 0 2 12 0 0 0 107 118 106 329 806 971 1048 852 703 665 833 983 1064 2236 2444 2750 2760 2736 2810 2772 2817 2698 1972
0 0 0 0 0 0 0 0 1 0 0 0 0 0 0 0 26 0 0 0 0 2 0 0 5 127 817 1122 1237 1230 1188 1041 1183 1422 1448 2276 2686 2885 2913 3006 3011 2971 2945 2978
0 0 0 0 0 0 0 0 0 0 0 0 0 42 12 9 65 12 0 0 0 0 0 0 0 0 0 1240 1744 1537 1530 1681 1498 1495 1820 1812 2535 2898 2920 2931 3046 3013 3037 3044
0 0 0 0 0 0 0 0 0 9 54 5 182 306 106 299 244 221 211 218 254 331 385 288 68 83 50 23 54 2127 1810 2016 2226 2277 2116 2201 2641 2930 3017 3005 3103 3198 3173 3151
0 0 0 0 0 0 0 0 0 0 1 0 0 165 241 229 118 31 18 49 193 351 450 798 803 310 139 419 516 1430 2391 2653 2300 2247 2779 3030 2819 3020 3026 3238 3219 3444 3379 3318
0 0 0 0 0 3 0 0 0 16 0 0 0 0 17 0 0 0 0 0 162 101 229 702 1194 1264 1052 701 398 817 490 1977 2738 2719 2493 2927 3199 3190 3323 3247 3401 3476 3649 3648
29 14 12 0 5 1 0 0 0 3 0 0 0 0 0 0 0 0 0 0 0 3 14 97 562 1245 1920 1381 846 375 1636 1062 1371 2951 3084 3044 3023 3198 3466 3578 3573 3660 3723 3793
0 6 5 2 0 0 0 0 0 0 0 0 0 0 0 0 0 0 0 0 0 0 0 2 219 1462 2023 2291 1311 1561 1268 1994 2656 3806 3230 3092 3143 3050 2639 3578 3720 3751 3821 3913
1 1 0 0 0 0 0 0 0 0 0 0 0 0 0 0 0 0 0 0 0 0 0 0 0 518 1384 1943 2436 2661 1316 2729 3406 2845 3918 3487 3327 3681 2833 3610 3693 3892 3977 4034
0 0 0 0 0 0 0 0 0 0 0 0 0 0 0 0 0 0 0 0 0 0 0 0 0 10 786 1450 3389 3760 3257 2833 2304 2247 4319 4231 3813 3312 3364 436 633 2794 2452 2138
0 6 14 9 2 4 0 0 0 0 0 0 0 0 0 0 0 0 0 0 0 0 0 0 0 342 862 1340 2703 3362 3410 3801 3997 2739 2976 4260 3933 3582 1472 0 1 1 0 2

GFSCGP_con_sbcape_060.txt.gz
CAPE
0 0 0 0 0 0 0 0 0 0 48 146 71 2 8 0 34 372 420 360 233 150 138 112 82 38 19 0 156 17 29 34 237 295 520 352 218 250 179 0 201 462 809 1289
0 0 0 0 0 0 0 0 0 0 0 42 144 113 79 1 0 127 425 449 345 240 180 140 68 18 20 0 81 65 95 35 152 155 211 421 200 89 158 0 440 640 851 1202
0 0 0 0 0 0 0 0 0 0 0 61 84 60 9 0 10 78 119 144 198 275 244 229 171 136 97 12 0 0 184 152 141 292 118 312 454 78 142 4 0 779 1038 1342
0 0 0 0 0 0 0 0 0 0 0 3 79 12 2 7 27 12 0 8 33 24 260 218 221 220 208 99 0 0 275 265 190 487 280 343 610 731 109 12 0 253 1101 1382
0 0 0 0 0 0 0 0 0 0 0 0 1 13 27 35 1 1 18 11 39 26 44 194 194 284 310 177 4 96 404 361 335 611 428 312 211 196 15 11 0 1 810 1041
0 0 0 0 0 0 0 0 0 0 0 0 0 0 0 0 0 0 0 23 73 92 28 29 38 139 99 167 72 5 314 627 489 634 560 416 259 35 53 0 2 0 304 703
0 0 0 0 0 0 0 0 0 0 0 0 0 0 0 0 0 0 0 0 21 143 19 25 28 0 15 170 213 28 249 535 703 604 572 483 371 109 42 14 0 4 534 942
0 0 0 0 0 0 0 0 0 0 0 0 0 0 0 0 47 6 2 0 7 176 59 17 36 32 10 74 225 208 97 337 607 742 581 424 215 284 104 0 0 0 465 1031
1 0 0 0 0 0 0 0 0 0 0 0 0 0 0 0 0 0 0 0 2 196 141 45 46 83 42 126 228 320 217 168 609 608 656 591 631 340 241 69 0 0 99 984
0 0 0 0 0 0 0 0 0 0 0 0 0 0 0 0 0 0 0 21 125 305 308 190 69 149 101 123 242 370 377 252 270 736 569 376 332 763 978 138 39 402 177 413
0 0 0 0 0 0 0 0 0 0 0 0 0 0 0 0 0 0 1 153 307 454 412 311 141 162 119 99 258 416 533 420 401 496 777 743 564 226 483 889 133 14 128 545
0 4 0 0 0 0 0 0 0 0 0 0 0 0 0 0 0 0 0 70 407 496 469 407 273 141 144 120 204 377 564 683 549 623 619 835 907 845 384 363 1056 398 88 53
4 6 2 0 0 0 0 0 0 0 0 0 0 0 0 0 0 0 0 0 131 492 589 504 340 139 175 139 141 289 515 795 780 828 837 879 1156 1331 1263 751 508 990 664 340
20 14 4 0 0 0 0 0 0 0 0 0 0 0 0 0 0 0 0 0 0 438 548 580 408 229 187 166 100 208 361 755 963 1115 1248 1145 1114 1602 1931 1624 1037 598 1004 882
17 6 0 0 0 0 0 0 0 0 0 0 0 0 0 0 0 0 0 0 0 277 550 656 532 315 250 204 112 140 279 487 918 1215 1308 1430 1436 1302 1707 2116 1838 1353 766 942
5 2 0 0 0 0 0 0 0 0 0 0 0 0 0 0 0 0 0 0 0 399 703 760 668 410 286 241 153 90 248 428 794 1137 1318 1353 1525 1893 1727 1836 2078 2117 1675 1151
5 0 0 0 0 0 0 0 0 0 0 0 0 0 0 0 2 0 1 0 0 15 426 815 734 531 395 308 234 160 260 304 801 1119 1165 1445 1681 1862 2203 2150 2119 2208 2276 1819
0 0 0 0 0 0 0 0 0 0 0 0 0 7 28 226 175 132 184 140 40 3 0 0 0 67 554 487 363 281 280 410 453 749 1516 1615 1916 2147 2267 2350 2322 2330 2395 2468
0 1 1 0 0 0 0 0 0 0 0 0 0 195 296 86 81 18 61 126 217 395 306 8 0 0 54 255 614 553 470 514 610 672 698 1617 2046 2352 2490 2580 2585 2597 2660 2642
0 0 1 0 0 0 0 0 0 0 0 0 0 0 0 19 11 0 0 0 0 0 195 799 1207 1301 337 26 469 1076 1044 944 824 913 1060 1150 1586 2314 2555 2645 2694 2819 2791 2823
0 3 6 0 0 1 0 0 0 0 2 0 0 0 0 0 0 0 0 0 0 0 0 241 1073 1628 1567 745 34 255 1507 1816 1599 1588 1504 1570 1543 1711 2342 2605 2687 2679 2881 2860
12 58 7 1 0 6 0 0 1 0 0 0 0 0 0 0 0 0 0 0 0 0 0 0 59 830 1051 1430 1809 1467 1082 785 1164 2301 1988 2317 2231 2101 2355 2537 2703 2788 2829 3044
17 10 13 13 5 0 0 0 0 0 0 0 0 0 0 0 0 0 0 0 0 0 0 0 0 0 306 835 2276 2594 3134 821 935 1812 2212 2325 2298 2588 2764 2736 2682 2926 3019 3151
4 3 0 0 0 0 0 0 0 0 0 0 0 0 0 0 0 0 0 0 0 0 0 0 0 0 25 528 1221 2597 2974 2675 1813 1632 1977 2505 2371 2478 2202 3063 3048 3160 3284 3326
14 5 9 0 0 0 0 0 0 0 0 0 0 0 0 0 0 0 0 0 0 0 0 0 0 0 0 192 724 1592 2797 2851 2813 2636 1808 2239 2814 2247 2401 1678 1737 2963 3005 2598
11 18 22 11 3 4 0 0 0 0 0 0 0 0 0 0 0 0 0 0 0 0 0 0 0 0 0 14 418 818 2221 2225 2212 2214 2474 2366 2465 2687 1764 1 1 1 1 2

GFSCGP_con_sbcape_066.txt.gz
CAPE
0 0 0 0 0 0 0 0 0 0 0 20 41 37 304 138 92 67 65 71 53 26 48 80 78 0 0 0 0 0 0 0 0 0 0 0 17 52 20 0 168 328 566 941
0 0 0 0 0 0 0 0 0 0 0 0 0 41 172 132 93 100 92 89 66 38 3 58 10 0 0 0 0 0 0 0 0 0 0 0 0 0 24 0 51 155 477 1040
0 0 0 0 0 0 0 0 0 0 0 31 78 39 0 168 115 66 41 57 46 64 8 25 7 0 0 0 0 0 0 0 0 0 0 0 0 0 0 0 0 73 272 933
0 0 0 0 0 0 0 0 0 0 0 5 50 0 0 2 223 203 95 33 36 65 37 0 0 0 0 0 0 0 0 0 0 0 0 64 34 0 0 0 0 18 307 544
0 0 0 0 0 0 0 0 0 0 0 0 0 0 0 0 0 86 224 192 86 66 70 19 0 0 38 10 0 0 0 0 0 0 0 0 6 0 0 0 0 0 230 477
0 0 0 0 0 0 0 0 0 0 0 0 0 0 0 0 6 0 9 113 216 138 84 37 0 0 0 19 0 0 0 0 0 0 0 0 0 0 0 0 0 0 0 379
0 0 0 0 0 0 0 0 0 0 0 0 0 0 0 0 4 0 9 1 25 229 162 77 0 0 0 0 0 0 0 0 0 0 0 0 0 0 0 0 0 0 0 0
0 0 0 0 0 0 0 0 0 0 0 0 0 0 0 0 0 0 0 1 3 65 265 157 74 2 0 0 0 0 0 0 0 0 0 0 0 0 0 0 0 0 0 0
0 0 0 0 0 0 0 0 0 0 0 0 0 0 0 0 0 0 0 0 0 12 82 180 201 94 0 0 0 0 0 0 0 0 2 10 0 0 0 0 0 0 0 0
0 0 0 0 0 0 0 0 0 0 0 0 0 0 0 0 0 0 0 0 0 8 26 63 75 138 101 34 21 14 0 0 0 0 4 38 43 0 0 0 0 0 0 0
0 0 0 0 0 0 0 0 0 0 0 0 0 0 0 0 0 0 0 0 0 0 12 49 53 49 81 101 44 53 3 0 0 38 39 69 119 84 34 0 0 0 0 0
0 0 0 0 0 0 0 0 0 0 0 0 0 0 0 0 0 0 0 0 3 8 0 5 55 71 54 31 65 118 28 22 41 114 115 121 155 170 79 46 0 0 0 0
0 0 0 0 0 0 0 0 0 0 0 0 0 0 0 0 0 0 0 0 0 8 5 0 37 65 24 8 52 115 89 30 80 146 226 185 201 198 148 125 31 0 4 1
0 0 0 0 0 0 0 0 0 0 0 0 0 0 0 0 0 0 0 0 0 0 0 15 14 55 39 39 24 95 138 92 34 85 247 292 308 235 241 298 403 116 1 2
0 0 0 0 0 0 0 0 0 0 0 0 0 0 0 0 0 0 0 0 0 0 1 8 18 47 55 65 38 63 160 182 114 68 162 305 285 205 162 112 206 569 512 223
0 0 0 0 0 0 0 0 0 0 0 0 0 0 0 0 0 0 0 0 1 0 0 10 39 56 58 58 65 109 215 261 244 166 135 158 311 416 388 336 187 86 192 654
1 0 0 0 0 0 0 0 0 0 0 0 0 0 0 0 0 0 0 0 0 43 58 0 32 124 96 52 88 97 232 335 352 320 252 269 286 429 559 616 671 612 323 262
1 0 0 0 0 0 0 0 0 0 0 0 0 0 18 0 0 0 0 0 0 0 260 15 38 199 223 97 99 68 186 337 459 437 417 436 478 496 564 744 954 1028 983 761
0 0 0 0 0 0 0 0 0 0 0 0 0 0 0 0 0 0 0 0 0 0 0 470 47 125 136 102 97 46 106 242 422 522 585 693 761 803 794 843 996 1300 1567 1527
0 0 0 54 1 2 17 0 0 0 0 0 0 0 0 0 0 0 0 0 0 0 0 490 325 24 30 33 76 7 50 137 307 612 759 902 1015 1090 1201 1205 1091 1182 1462 1741
6 31 4 20 2 0 14 3 0 3 0 0 0 0 0 0 0 0 0 0 0 0 0 3 487 835 1144 16 74 33 47 168 282 432 650 908 1074 1198 1215 1345 1602 1745 1772 1847
32 29 15 39 4 3 9 0 6 6 0 0 0 0 0 0 0 0 0 0 0 0 0 0 0 108 705 1585 390 115 199 162 225 330 632 869 1014 1132 1323 1504 1608 1872 2019 2113
6 7 14 6 4 7 13 14 12 5 0 0 0 0 0 0 0 0 0 0 0 0 0 0 0 0 1 265 1857 1783 1366 468 867 389 318 519 758 1411 1557 1705 1913 2073 2236 2306
8 10 14 6 4 6 7 21 14 7 2 1 0 0 0 0 0 0 0 0 0 0 0 0 0 0 0 0 25 652 1189 1425 1194 1300 1497 1438 1339 1155 1255 1844 2029 2254 2391 2461
23 19 13 4 4 3 9 13 4 3 2 3 2 0 0 0 0 0 0 0 0 0 0 0 0 0 0 0 0 0 206 434 806 975 1289 1629 1750 1441 1851 1742 1319 2150 2393 2282
20 11 16 14 3 12 3 4 7 8 5 5 3 2 0 0 0 0 0 0 0 0 0 0 0 0 0 0 0 0 0 17 157 457 599 620 1227 1696 1827 1433 332 1 2 2

GFSCGP_con_sbcape_069.txt.gz
CAPE
0 0 0 0 0 0 0 0 0 0 0 0 0 165 569 482 135 160 219 157 137 96 121 182 279 357 351 345 287 298 295 505 667 373 306 516 651 906 1361 1002 1409 1595 1742 2005
0 0 0 0 0 0 0 0 0 0 0 0 0 0 184 573 507 273 113 118 147 142 159 263 318 318 322 409 341 289 256 339 672 372 550 656 840 860 1313 1125 1397 1669 1884 2121
0 0 0 0 0 0 0 0 0 0 0 0 0 0 80 489 550 447 305 165 98 133 172 262 345 325 281 357 405 419 473 507 566 763 615 752 770 770 1024 1121 1166 1553 1782 1895
0 0 0 0 0 0 0 0 0 0 0 0 6 1 111 301 535 474 476 380 325 212 174 186 252 335 325 349 382 449 627 643 505 735 741 1197 863 712 730 1150 1149 1349 1589 1596
0 0 0 0 0 0 0 0 0 0 0 0 0 14 0 119 395 565 506 466 432 388 284 221 262 287 279 271 266 303 500 855 927 953 1144 939 1374 918 830 835 1312 1290 1505 1561
0 0 0 0 0 0 0 0 0 0 0 0 0 0 0 0 22 261 557 530 435 392 379 342 295 306 284 215 142 167 547 905 1026 943 1014 1360 1650 1130 743 771 742 903 990 1339
0 0 0 0 0 0 0 0 0 0 0 0 0 0 0 0 0 1 198 585 590 452 437 431 377 278 371 389 267 400 719 829 924 954 1071 1168 1524 1620 1367 1353 761 973 580 769
0 0 0 0 0 0 0 0 0 0 0 0 0 0 0 0 0 1 87 197 370 653 569 550 517 553 565 653 793 680 834 891 808 867 1091 1334 1492 671 735 1099 718 524 413 438
0 0 0 0 0 0 0 0 0 0 0 0 0 0 0 0 0 0 0 28 117 226 658 647 591 545 647 795 829 733 971 1064 957 817 1051 1243 1275 1207 934 1469 1207 644 987 324
0 0 0 0 0 0 0 0 0 0 0 0 0 0 0 0 0 0 0 0 8 82 166 565 640 707 799 667 798 781 825 1040 1091 982 1023 1106 1222 1313 1289 1206 1313 1360 1009 810
0 0 0 0 0 0 0 0 0 0 0 0 0 0 0 0 0 0 0 0 29 120 145 297 772 917 845 628 580 741 703 920 992 1048 1111 1227 1282 1034 1099 1016 1017 1409 1201 1072
0 0 0 0 0 0 0 0 0 0 0 0 0 0 0 0 0 0 0 0 0 101 188 304 577 769 749 955 641 761 704 511 848 967 1169 1222 1355 1422 984 1220 984 941 1224 1109
0 0 0 0 0 0 0 0 0 0 0 0 0 0 0 0 0 0 0 0 0 47 149 210 234 754 1058 1171 1132 995 796 506 436 826 796 1191 1379 1305 1547 1507 1457 1202 1210 1304
9 0 0 0 0 0 0 0 0 0 0 0 0 0 0 0 0 0 0 0 0 0 68 150 174 487 888 1033 1317 1196 1072 782 713 711 855 1267 1454 1501 1485 1591 1653 1269 1499 1508
46 0 0 0 0 0 0 0 0 0 0 0 0 0 0 0 0 16 0 6 34 51 0 32 151 443 782 945 1186 1330 1240 1200 1008 1109 1173 1343 1565 1594 1711 1755 1674 1385 1427 1570
22 1 0 0 0 0 0 0 0 0 0 0 0 0 0 0 5 0 0 0 0 45 126 51 74 246 840 872 1003 1248 1343 1279 1211 1257 1310 1575 1717 1757 1768 1841 1911 1825 1678 1377
27 6 0 0 0 0 0 0 0 0 0 0 0 0 0 0 0 0 0 0 0 0 20 116 479 262 993 923 896 1135 1351 1414 1273 1272 1430 1672 1833 1863 1865 1839 1822 2026 2182 1804
7 3 17 0 0 0 48 0 0 0 0 0 0 0 0 0 0 0 0 0 0 0 1 16 108 579 590 663 577 1019 1018 1481 1425 1385 1430 1557 1800 1856 1913 1899 1921 1886 1434 1810
11 34 17 7 4 0 1 0 5 2 0 0 0 0 0 0 0 0 0 0 0 0 0 2 517 858 219 785 1098 1266 1336 1476 1501 1533 1570 1586 1602 1783 2003 2032 2021 1912 1888 1877
8 69 87 22 27 25 21 7 1 0 6 0 0 0 0 0 60 0 0 0 0 0 0 33 1149 599 275 1022 734 1315 1455 1581 1658 1695 1700 1750 1759 1857 1953 2053 2172 2326 2349 2159
17 60 15 44 39 9 9 3 1 29 10 2 0 0 0 0 0 0 0 0 0 0 0 59 888 1038 1067 1261 1284 1416 1558 1679 1659 1423 1528 1891 2010 2075 2207 2283 2407 2487 2489 2586
19 33 29 35 34 31 6 0 11 4 11 6 2 1 0 0 0 0 0 0 0 0 0 1 97 408 1213 927 1462 1654 1705 1670 1925 2051 1946 2230 2306 1813 1779 2719 2538 2643 2773 2774
81 14 143 19 26 7 12 15 13 25 23 9 7 3 3 0 0 0 0 0 0 0 0 0 0 27 205 893 1510 1177 1496 1234 1528 1938 2322 2450 2592 2488 2623 2782 2732 2518 2773 2516
9 13 19 17 9 16 13 12 29 18 7 10 8 4 3 0 0 0 0 0 0 0 0 0 0 0 0 121 334 840 1597 1664 1467 1833 1906 1855 2006 2221 2402 2210 2285 2321 2389 2605
6 9 5 7 9 13 20 18 24 18 10 14 11 10 2 0 0 0 0 0 0 0 0 0 0 0 0 0 3 58 390 1683 2288 2175 1926 1561 1636 1799 2230 2408 2285 2386 2936 2465
16 10 8 19 18 27 21 27 28 11 7 16 11 6 6 1 0 0 0 0 0 0 0 0 0 0 0 0 0 0 5 181 913 1314 1706 1764 2830 2851 2369 2177 1897 1 0 1

GFSCGP_con_sbcape_072.txt.gz
CAPE
0 0 0 0 0 0 0 0 0 0 21 87 178 576 984 777 819 863 849 675 454 485 475 505 454 291 65 236 383 396 281 343 429 259 229 542 780 946 1252 1483 1742 2197 2176 2315
0 0 0 0 0 0 0 0 0 0 0 0 118 200 445 1028 763 912 940 855 471 487 524 523 521 478 164 229 389 432 386 494 680 132 226 411 752 946 1196 1345 1821 1996 2191 2425
0 0 0 0 0 0 0 0 0 0 0 0 58 150 83 327 790 599 828 919 617 463 522 522 587 565 453 242 460 517 731 659 676 520 247 924 1165 1302 1490 1457 1525 1746 2054 2253
0 0 0 0 0 0 0 0 0 0 0 1 0 78 100 62 625 684 752 833 764 538 486 583 538 609 603 395 446 608 671 815 602 1012 1221 1996 1037 877 534 973 944 1126 1824 1919
0 0 0 0 0 0 0 0 0 0 0 0 70 103 84 159 410 650 783 778 722 669 534 475 662 706 679 674 473 622 787 1212 1255 1384 1561 1262 1389 320 490 601 1307 1864 1934 1983
0 0 0 0 0 0 0 0 0 0 0 0 0 9 22 171 359 661 716 773 829 777 694 635 570 704 784 677 523 501 1044 1613 1353 1220 866 1652 2186 1462 908 1100 859 968 1090 1383
0 0 0 0 0 0 0 0 0 0 0 0 0 0 0 29 180 247 535 790 871 907 937 852 717 625 732 810 722 581 1710 2219 1587 1001 943 1370 1822 1937 1737 1620 1169 1309 622 657
2 0 0 0 0 0 0 0 0 0 0 0 0 0 0 0 0 4 40 172 517 764 914 972 936 813 729 827 855 941 1847 2297 1746 1421 1950 2220 2357 1172 1305 1514 1019 931 670 487
1 0 0 0 0 0 1 0 0 0 0 0 0 0 0 0 0 0 0 6 128 561 748 852 927 957 914 861 1245 1372 2092 2524 2254 1267 2436 2443 2484 2167 1318 2585 1668 1185 1301 786
0 0 0 0 0 0 0 0 2 3 0 0 0 0 0 0 0 0 0 0 7 45 425 668 799 971 1005 974 971 1002 1681 2266 1789 1602 1812 1503 1703 1991 2054 1576 1910 1877 1386 1365
0 0 0 0 0 2 0 0 11 10 2 0 0 0 0 0 0 0 0 0 0 0 10 375 721 928 1094 1064 1080 1112 1134 1361 1456 1674 2029 2303 1799 1611 1659 1278 1521 1834 1855 1722
0 0 0 0 7 0 0 16 11 41 24 7 6 4 0 0 0 0 0 0 0 0 18 117 562 1024 1121 1222 1149 1189 1165 1138 1330 1925 2499 2157 2147 2405 1427 1665 1560 1718 1937 2059
1 0 0 0 0 0 0 8 0 37 29 30 22 6 3 0 0 0 0 0 0 0 0 116 272 848 1227 1236 1612 1254 1218 1085 1057 1622 1405 1718 1823 1788 2275 2170 1914 1815 2012 2049
3 0 0 0 0 0 0 0 0 3 32 15 18 56 1 0 0 0 0 2 3 0 0 55 328 554 1226 1601 2114 2068 1348 1170 976 1008 1226 2158 2517 2565 2069 2614 2679 2098 2405 2162
41 40 13 0 0 0 0 0 0 0 0 21 19 32 2 19 0 0 40 2 9 53 36 10 233 453 894 1545 2115 2094 1451 1935 1566 1801 1382 2255 2901 2908 3145 3098 2974 2511 2464 2190
68 45 16 13 0 0 0 0 0 0 0 0 0 0 5 2 0 0 52 33 30 68 103 183 216 50 390 992 1692 2060 2250 1929 2211 2452 2205 2623 3114 3192 3178 3224 3123 3035 2556 2706
80 67 54 19 0 0 0 0 0 0 0 0 0 0 0 0 0 43 13 17 18 55 101 239 330 593 388 556 1201 2046 2322 2086 2515 2839 2717 2931 3216 3344 3410 2892 3247 3358 3132 2871
92 105 82 57 23 0 0 159 29 13 0 0 0 3 0 0 35 0 0 0 0 0 18 177 367 431 654 587 602 1312 1552 2614 2922 2972 3029 3125 3341 3348 3329 3338 3359 3665 3003 3431
97 40 127 82 44 0 11 3 3 11 53 14 5 0 0 0 0 0 0 0 0 0 0 58 262 501 846 1062 694 1172 1392 1975 2366 2891 3109 3193 3077 3366 3231 3285 3402 3028 3216 3142
108 66 202 141 75 68 55 1 0 0 21 0 8 5 1 0 14 58 0 0 0 0 0 46 446 943 1621 1605 1021 1055 1502 2423 2869 2960 2938 3111 3141 3490 3458 3540 3559 3301 2760 2541
136 190 178 194 133 54 58 2 0 19 12 13 12 14 13 1 0 0 0 0 0 0 0 1 553 1280 2075 1260 1076 2127 2035 2511 2590 2056 1996 2739 2878 3488 3562 3710 3660 3611 3271 3199
49 45 172 138 152 87 9 21 25 4 4 15 16 14 19 11 2 0 0 0 0 0 0 0 131 801 2042 1338 1430 2864 2722 2220 2614 2669 2252 2960 3130 2387 2257 3482 3155 3145 3445 3587
90 155 197 181 157 148 15 23 18 12 11 7 8 10 15 14 8 3 0 0 0 0 0 0 0 382 1172 2202 1404 1790 2607 2629 2526 2769 2929 2974 2799 2449 3115 3376 3054 2831 3228 2921
15 5 67 81 178 107 3 16 17 19 17 18 12 10 16 18 4 0 0 0 0 0 0 0 0 0 5 516 1382 2101 2012 2098 2279 2466 2613 2645 2756 2741 2594 2687 2882 2825 2746 2797
23 18 40 60 44 7 8 15 15 16 28 10 6 5 5 18 7 3 0 0 0 0 0 0 0 0 0 0 8 354 1779 2001 2043 2332 2437 2604 2653 2701 2883 2910 2752 2739 3326 2624
13 13 41 41 15 28 14 23 17 19 15 23 8 0 2 1 13 7 1 0 0 0 0 0 6 0 0 0 1 0 40 1386 2528 2503 2181 2096 2068 2348 2365 2498 2538 53 13 1

GFSCGP_con_sbcape_075.txt.gz
CAPE
0 0 0 0 0 0 0 0 0 0 23 25 85 340 809 753 853 1024 1004 890 618 762 670 565 439 335 116 39 288 409 978 2082 1171 857 662 989 737 1188 931 902 1611 1943 1895 1930
0 0 0 0 0 0 0 0 0 0 0 65 107 121 749 797 804 887 936 1024 675 785 619 691 529 389 223 117 370 1010 1420 2091 1347 719 1095 1033 1369 727 885 993 1794 1874 1825 2216
0 0 0 0 0 0 0 0 0 0 0 3 76 127 530 921 1015 892 918 1064 762 605 796 728 659 548 359 195 438 1072 1762 2016 1598 1269 1077 1211 1415 1556 945 1675 1455 1789 1766 1964
0 0 0 0 0 0 0 0 0 0 0 0 25 93 131 1010 786 737 776 1083 867 358 811 794 800 683 489 237 358 1272 1410 2083 1609 1998 890 1951 1080 774 720 1134 920 1685 1592 1705
0 0 0 0 0 0 0 0 0 0 0 0 10 15 35 153 407 670 679 816 975 628 578 788 824 773 682 386 280 494 1700 2068 1864 1836 1609 1317 1689 693 620 490 2930 3088 3026 1694
0 0 0 0 0 0 0 0 0 0 0 0 0 12 16 54 117 509 681 718 822 918 625 719 819 838 799 683 372 452 1815 2260 2190 2193 1841 2571 2087 1835 368 861 1345 1180 1429 1684
0 0 0 0 0 0 0 0 0 0 0 0 0 0 62 73 119 191 630 746 809 846 881 750 805 799 951 936 903 870 1905 2558 2340 2175 1746 2227 3021 2889 2702 2455 736 1100 567 640
3 0 0 1 0 0 0 0 0 0 0 0 0 0 0 9 71 45 398 677 794 923 940 910 874 896 994 1169 1736 1632 2074 2630 2546 2070 1937 1946 2703 1016 772 2197 1001 531 492 615
0 1 9 8 3 1 0 0 0 0 0 0 0 0 0 0 5 9 5 504 749 976 998 1025 992 956 937 1340 2038 2063 2316 2668 2683 2059 2235 2420 2343 2019 1146 2600 3065 1469 2159 709
0 0 1 34 25 14 10 9 0 1 3 2 7 0 0 0 0 14 1 114 336 777 792 901 1130 1097 1027 956 1373 2120 2334 2764 2825 2085 2531 2367 2351 2488 2621 3122 3505 2760 2679 2437
0 0 0 5 38 32 10 0 14 29 7 7 14 18 4 0 0 1 8 2 90 170 525 616 766 1015 1174 1106 1021 1267 1972 2564 2702 2474 2332 2376 2397 2169 2538 2402 3030 2885 3047 3138
0 0 0 0 0 0 7 45 8 69 48 17 36 48 12 2 0 1 5 44 46 57 180 301 591 807 1083 1246 1228 1277 1271 1318 2012 2302 2545 2467 2844 2652 2636 2527 2406 2947 3264 3652
2 0 0 0 0 0 5 0 27 24 59 106 58 59 27 17 4 14 13 27 38 49 48 45 178 757 1026 1265 1924 1541 1345 1247 1328 2221 2081 2689 2866 2952 2813 2916 2821 2778 3305 3592
0 0 4 7 16 1 28 0 22 57 86 37 70 95 95 47 73 121 153 141 85 42 3 13 202 530 1109 1756 2508 2593 1641 1387 1344 1420 1680 2556 3060 3145 2900 3083 3252 3228 3558 3764
17 37 20 12 0 0 0 1 23 71 37 47 54 91 91 85 47 164 145 93 20 0 104 17 170 417 934 1670 2962 2823 2015 2394 1943 2293 2082 2552 3219 3273 3375 3141 3389 3516 3648 3664
65 93 46 48 3 3 0 0 0 0 0 0 0 0 20 0 23 43 31 141 127 91 146 296 334 416 684 1187 1831 2910 2710 2732 2553 2726 2348 2591 3254 3566 3474 3371 3484 3728 3754 3821
194 140 113 86 38 15 12 0 0 0 0 0 0 0 1 4 10 216 209 69 77 43 98 286 500 634 719 530 1416 2173 2963 2605 2850 3392 2783 2894 3454 3697 3681 3603 3860 3985 4035 3970
146 166 123 167 82 46 3 20 34 63 3 0 0 0 0 19 39 14 60 0 0 0 0 11 156 529 665 563 543 1497 1815 3221 3260 3230 3620 3160 3560 3726 3929 4067 4108 4147 4161 4107
115 114 205 133 101 58 19 110 86 54 3 182 15 1 1 48 0 0 0 0 0 0 0 0 1 207 730 915 944 960 2093 2753 3307 3619 3648 3543 3567 3849 4099 4081 4169 4251 4291 4288
141 156 210 145 124 84 142 38 10 45 44 86 49 17 6 5 18 116 0 0 0 0 0 0 0 377 763 1124 1474 1236 1241 2672 3441 3370 3565 3915 3772 4027 4173 4222 4231 4316 4337 4188
211 297 240 206 147 100 166 103 8 95 81 6 8 12 1 1 4 3 0 1 0 0 0 0 0 317 1326 1700 2448 2695 2130 2482 3088 3026 3604 4129 4084 4201 4321 4456 4482 4481 4298 3631
67 174 299 264 175 117 222 96 84 159 44 0 5 6 8 11 12 7 3 6 0 0 0 0 0 44 352 2000 3184 3463 2943 2988 3756 3655 3759 3969 4221 3706 3633 4503 4540 4466 4533 4453
98 47 105 167 188 206 257 162 77 71 21 8 5 14 22 25 18 18 2 9 2 0 0 0 0 0 0 65 2065 2366 3951 3922 3830 3974 4024 4091 4068 4055 3957 4367 4540 3957 4428 3272
41 16 41 75 77 260 181 195 144 19 12 19 18 23 11 16 33 24 6 13 6 0 0 0 3 3 0 0 0 207 578 2497 3429 4070 4220 4103 4066 4095 3949 3448 3534 3180 3001 3099
40 22 57 77 55 8 52 1 7 6 11 11 9 22 11 7 5 26 17 12 4 0 0 1 7 8 7 3 0 0 0 11 3095 3097 3108 3677 3309 3316 3735 3489 3120 3071 3270 2295
5 6 41 44 12 18 12 17 15 20 15 17 16 25 11 10 1 0 15 5 1 0 0 0 15 1 4 1 0 0 0 0 585 2771 2996 2904 2853 3124 3033 2968 2404 214 976 532

GFSCGP_con_sbcape_078.txt.gz
CAPE
0 0 0 0 0 0 0 0 0 0 0 0 0 190 61 0 0 0 446 537 523 443 521 540 485 412 115 81 559 1341 1426 1780 1529 1462 1420 1811 1738 2403 1481 1605 2824 3083 2714 2848
0 0 0 0 0 0 0 0 0 0 0 0 47 316 18 0 0 0 37 587 463 608 406 713 621 493 242 145 660 1001 1443 1757 1319 1705 1607 2031 2224 1865 2723 2783 2969 2569 2958 3271
0 0 0 0 0 0 0 0 0 0 0 0 29 476 11 0 57 189 378 682 502 777 558 699 577 544 343 296 815 829 1751 1818 1470 1850 1540 2306 2265 2464 2317 2562 2475 2795 2866 3138
0 0 0 0 0 0 0 0 0 0 0 0 0 0 588 348 480 642 676 179 378 423 778 574 446 689 428 403 836 1021 1620 1896 1329 2153 1346 1955 1583 1818 1991 643 2224 2585 3075 3042
0 0 0 0 0 0 0 0 0 0 0 0 0 1 19 937 609 46 15 261 321 75 716 695 716 658 551 522 698 1095 1242 1953 1135 1304 1936 1795 1904 1373 2502 1976 2572 2642 3674 3483
0 0 0 0 0 0 0 0 0 0 0 0 0 0 2 604 104 0 33 498 470 192 340 714 883 762 761 583 541 1035 1158 1601 1464 1257 1598 2107 1536 2508 2006 2400 2094 2368 2305 2960
0 0 0 0 0 0 0 0 0 0 0 0 0 0 0 94 704 113 7 618 761 459 426 717 767 888 829 682 510 829 1165 1229 1366 1331 1046 2295 1497 1872 3067 2566 2233 1424 1880 1769
0 0 0 0 0 0 0 0 0 0 0 0 0 0 0 0 0 734 1000 585 889 953 351 767 987 994 995 1035 721 694 1345 1336 1325 1549 880 1252 2395 1390 1757 2724 1141 2118 1286 1558
0 0 0 2 0 0 0 5 0 0 0 0 0 0 0 0 0 18 96 252 463 71 866 848 1099 1105 1262 1178 1179 866 1472 1576 1560 1239 1477 939 2202 2362 1140 2652 3357 1404 2270 2393
0 0 0 0 9 9 0 0 3 3 8 8 0 2 0 0 0 81 145 70 149 22 173 944 884 1122 1235 1274 1480 1323 1552 1755 1792 1322 1461 1158 975 1770 1888 1005 3131 2614 3495 3245
0 0 0 0 0 8 34 4 5 13 6 3 0 0 12 2 0 0 224 129 9 79 112 649 1120 1058 1241 1397 1419 1658 1549 1920 2085 1967 1392 1297 1178 1143 1125 1810 1961 2478 2511 3586
0 0 0 0 0 0 11 6 8 47 29 14 28 13 89 30 0 0 0 205 134 95 162 119 699 1208 1284 1411 1449 1768 1713 1988 2120 2102 1803 1418 1420 1183 1117 757 2435 2481 3436 4014
0 0 0 0 0 0 0 0 0 1 12 59 43 0 8 1 5 2 2 14 239 375 255 215 417 1088 1173 1445 1479 1578 1732 1666 2137 2382 2038 1854 1710 1673 1383 923 1586 2570 2179 2799
0 0 0 1 0 0 14 0 0 0 48 4 7 42 118 106 148 300 355 346 180 373 327 438 269 992 955 1691 1720 1712 1614 1684 1806 2274 2237 2007 1888 1945 1752 1893 1330 1645 2693 2600
5 5 0 0 0 0 0 0 0 0 0 22 2 92 0 3 92 53 324 248 141 229 517 705 757 625 480 1743 2032 2051 1906 1641 1771 1935 2120 2250 2204 2001 2300 2355 2376 2007 2044 2418
32 34 29 12 0 0 3 0 0 0 0 1 0 0 23 0 0 100 354 317 277 312 229 464 704 886 669 940 2422 2209 2244 1978 1996 1992 2072 2164 2445 2449 2415 2435 2590 2514 2303 2602
26 96 109 39 16 11 3 1 0 0 0 0 0 0 0 9 6 0 79 113 17 14 57 85 115 183 559 349 883 2831 2594 2442 2517 2671 2347 2373 2602 2761 2646 2753 2618 2706 2645 2616
29 86 130 44 40 61 0 0 17 0 0 0 0 0 0 14 19 20 39 48 0 0 0 0 0 7 7 177 856 1292 3023 2727 3098 2890 3149 2665 2552 2771 3000 2824 2824 2690 2837 2920
48 88 259 138 33 5 0 170 113 88 12 210 67 31 17 129 12 18 0 0 0 0 0 0 0 0 0 232 612 1166 1456 2722 2610 2865 3104 3079 2566 2891 3084 3110 2975 2894 2927 3036
104 253 249 76 90 32 119 25 31 0 68 8 0 2 0 25 1 7 0 0 2 0 0 0 0 0 63 613 973 1705 2165 1898 3388 2684 3134 3513 2899 2931 3106 3218 3170 3171 3265 3192
128 73 225 259 119 39 118 53 26 0 87 36 0 2 4 1 2 0 0 0 1 1 0 0 0 0 0 0 124 955 3331 3554 2242 3405 2972 3491 3776 3064 3337 3580 3534 3614 3539 3465
21 73 125 167 123 96 129 94 49 144 9 0 0 0 0 3 9 1 1 0 2 5 0 0 0 0 1 0 0 6 955 614 3713 3764 3417 3527 3677 3548 3431 3751 3918 3778 3808 3764
48 12 6 10 79 78 12 4 9 81 36 42 1 0 0 0 2 20 22 3 0 4 0 0 0 3 5 0 0 2 2 2 296 3652 3920 3565 3925 3947 3463 3787 3885 4005 3948 3781
32 2 8 6 0 0 0 4 22 0 0 5 5 2 0 0 1 10 10 6 3 3 0 0 0 1 2 0 0 0 4 3 9 4204 4194 4024 3991 4001 3840 3719 3771 3938 3927 3919
17 11 13 3 12 3 0 1 20 10 14 12 11 14 9 2 8 7 10 9 12 9 1 1 1 6 0 0 0 0 5 9 6 2671 4099 4085 3961 3433 3845 3393 3828 3894 3836 3640
9 13 24 35 6 13 6 22 13 16 16 10 10 12 8 18 18 5 13 19 19 2 3 0 3 12 0 2 0 0 0 2 1 283 960 3083 3317 3401 3319 3440 2948 48 2032 656

GFSCGP_con_sbcape_081.txt.gz
CAPE
0 0 0 0 0 0 0 0 0 0 0 0 0 748 756 408 59 242 358 286 201 148 120 37 7 0 0 63 15 93 212 265 854 560 652 805 799 574 318 1011 838 1644 1844 1308
0 0 0 0 0 0 0 0 0 0 0 0 189 423 243 143 1 126 35 57 54 184 167 303 22 0 0 1 159 122 405 412 652 431 583 550 472 989 584 977 1698 1588 1736 1394
0 0 0 0 0 0 0 0 0 0 0 0 104 141 18 13 2 0 134 53 8 92 166 256 55 0 0 0 96 364 525 383 618 261 432 709 991 514 1274 799 1614 1148 1896 1605
0 0 0 0 0 0 0 0 0 0 0 0 0 66 80 26 43 58 118 87 90 42 189 210 95 1 0 0 2 556 571 414 380 322 196 431 762 759 1009 1246 1019 1672 1471 1409
0 0 0 0 0 0 0 0 0 0 0 0 0 0 125 88 79 96 68 0 0 17 213 175 98 80 0 34 0 451 776 456 256 690 83 322 407 477 690 269 1005 1350 1434 1779
0 0 0 0 0 0 0 0 0 0 0 0 0 0 44 86 46 23 314 76 113 231 283 168 122 96 12 55 30 73 818 299 199 284 760 290 283 576 994 561 989 1313 1688 1962
0 0 0 0 0 0 0 0 0 0 0 0 0 0 0 276 339 102 385 561 156 140 394 273 136 101 45 10 193 44 578 525 138 109 212 1083 225 296 996 1228 1305 1059 1237 1252
0 0 0 0 0 0 0 0 0 0 0 0 0 0 0 3 616 231 167 185 4 274 472 380 255 154 161 40 192 287 190 724 283 43 42 270 743 242 592 1360 919 868 848 803
0 0 0 0 0 0 0 0 0 0 0 0 0 0 0 0 0 168 15 8 105 476 29 409 358 282 202 129 76 370 244 266 424 246 0 128 1075 219 419 603 868 733 552 790
0 0 0 0 0 0 0 0 0 0 0 0 0 0 0 0 0 158 276 246 498 389 232 193 59 376 308 281 117 225 387 239 513 371 143 34 259 1041 590 381 1265 1023 293 828
0 0 0 0 0 0 0 0 0 0 0 0 0 0 0 37 0 152 237 286 436 299 190 463 289 78 55 404 331 169 548 389 473 276 460 41 12 833 882 559 126 1236 1091 2018
0 0 0 0 0 0 0 0 0 0 0 0 1 0 0 1 33 0 195 216 312 225 273 206 89 75 0 0 545 290 741 595 530 422 422 410 10 210 701 489 445 985 1037 1120
0 0 0 0 0 0 0 0 0 0 0 0 0 0 0 0 0 14 211 301 314 274 228 88 25 70 21 0 354 616 544 751 740 737 392 526 368 25 352 317 254 537 1860 1625
0 0 0 0 0 0 0 0 0 0 0 0 0 0 1 0 0 47 68 117 278 263 120 0 0 0 0 19 264 672 597 918 992 940 782 557 449 437 100 90 24 607 1089 1565
0 0 0 0 0 0 0 0 0 0 0 0 0 0 0 0 14 5 3 16 22 109 69 2 18 1 32 178 175 619 905 801 1145 1218 1108 877 610 450 550 258 210 0 1302 1019
0 0 0 0 0 0 0 0 0 0 0 0 0 1 7 0 0 0 0 1 0 0 0 0 0 63 208 314 249 248 697 967 1190 1328 1340 1139 990 819 758 737 651 206 64 1239
0 8 0 0 0 0 0 0 0 0 0 0 0 14 6 11 0 0 0 0 0 0 0 0 0 0 0 159 49 0 0 1 982 1304 1437 1400 1183 1136 978 1092 1038 1187 654 336
0 1 19 2 0 0 0 0 0 0 0 7 32 34 87 39 0 0 0 0 0 0 0 0 0 0 1 35 84 16 0 0 42 1090 1361 1448 1518 1300 1219 1124 1295 1378 1526 1209
7 20 11 0 2 0 0 56 10 0 3 0 0 0 0 0 0 0 0 0 0 0 0 0 0 0 0 0 0 113 363 208 439 1620 1368 1487 1456 1605 1570 1256 1336 1476 1513 1670
0 2 1 3 7 5 84 123 18 0 0 1 0 0 0 0 0 0 0 0 0 0 0 0 0 0 0 0 0 0 4 226 26 467 2073 1731 1549 1653 1783 1900 1596 1777 1689 1583
0 4 0 4 20 42 9 67 15 0 12 1 6 0 0 0 0 0 0 0 0 0 0 0 0 0 0 0 0 0 0 0 0 0 32 2482 1884 1694 1908 1999 2045 1902 1946 1868
5 0 0 0 11 24 0 5 42 26 0 0 0 0 0 0 0 0 0 0 0 0 0 0 0 0 0 0 0 0 0 0 0 0 0 1765 2433 1875 2027 2075 2250 2158 2094 2096
20 0 0 0 1 0 0 0 1 2 4 0 0 0 0 0 0 0 0 0 0 0 0 0 0 0 0 0 0 0 0 0 0 0 0 1213 2622 2212 2020 2269 2368 2415 2358 2377
3 0 0 0 0 0 0 0 0 5 4 0 0 0 1 1 0 0 0 0 0 0 0 0 0 0 0 0 0 0 0 0 0 0 0 1957 2569 2815 2309 2556 2517 2739 2626 2572
0 0 0 0 0 0 0 0 3 10 6 5 1 0 0 0 0 0 3 0 0 0 4 0 0 0 0 0 0 0 0 1 0 1 1 575 2566 2474 2908 2724 2743 2748 2811 2836
0 0 0 0 0 2 1 4 7 10 16 12 9 4 0 3 0 0 0 3 0 0 0 0 0 14 0 0 0 0 0 1 0 0 5 0 8 610 2887 2794 1907 127 1751 2720

GFSCGP_con_sbcape_084.txt.gz
CAPE
0 0 0 0 0 0 0 0 0 0 0 0 136 520 335 99 495 262 300 239 171 98 3 0 0 0 54 38 0 78 143 25 480 143 123 585 238 451 348 234 796 1345 1114 1256
0 0 0 0 0 0 0 0 0 0 0 0 260 534 579 281 572 16 6 259 222 128 3 0 3 2 5 0 0 46 70 19 331 181 76 252 283 376 196 616 586 1201 1375 971
0 0 0 0 0 0 0 0 0 0 0 99 259 265 556 472 394 350 149 349 244 63 19 0 0 0 29 0 0 40 81 50 224 137 140 239 337 332 365 564 1161 1278 1343 1023
0 0 0 0 0 0 0 0 0 0 0 0 16 16 54 93 44 53 454 286 119 32 52 41 0 0 16 25 0 106 121 163 189 32 122 227 499 177 693 463 852 909 1351 991
0 0 0 0 0 0 0 0 0 0 0 0 0 0 0 13 8 4 43 134 81 122 121 64 17 0 0 24 32 298 129 222 262 52 5 73 133 52 509 670 858 894 1106 898
0 0 0 0 0 0 0 0 0 0 0 0 0 0 0 29 2 0 0 104 172 150 159 160 99 0 0 0 109 360 158 155 304 85 0 8 41 139 428 272 566 797 829 1028
0 0 0 0 0 0 0 0 0 0 0 0 0 0 0 24 67 14 0 14 97 221 222 225 195 6 0 0 0 447 231 116 159 266 34 0 30 5 410 161 409 712 964 1188
0 0 0 0 0 0 0 0 0 0 0 0 0 0 0 0 176 113 94 69 0 2 152 242 288 50 0 8 0 338 350 136 46 144 208 109 0 0 242 357 464 760 773 797
0 0 0 0 0 0 0 0 0 0 0 0 0 0 0 0 0 60 72 137 92 343 311 298 310 111 1 3 0 0 432 171 58 13 0 17 434 9 8 605 566 605 544 391
0 0 0 0 0 0 0 0 0 0 0 0 0 0 0 0 0 8 65 113 361 185 385 424 284 159 62 0 51 29 156 360 150 0 0 0 12 475 0 122 498 389 365 309
0 0 0 0 0 0 0 0 0 0 0 0 0 0 0 0 0 0 8 24 170 80 383 419 362 252 142 125 96 102 28 163 349 189 12 0 0 183 317 22 61 785 131 331
0 0 0 0 0 0 0 0 0 0 0 0 0 0 0 0 0 0 73 111 68 321 365 418 466 278 49 37 170 229 280 66 186 298 178 0 0 0 536 454 8 103 575 1097
0 0 0 0 0 0 0 0 0 0 0 0 0 0 1 1 3 0 2 78 47 32 4 1 54 178 126 0 0 183 366 363 128 255 242 181 0 0 113 562 358 8 282 576
0 0 0 0 0 0 0 0 0 0 0 0 0 0 5 3 0 0 0 0 0 0 0 1 0 11 4 0 6 9 108 469 353 286 170 289 159 0 0 276 127 331 308 554
0 0 0 0 0 0 0 0 0 0 0 0 0 0 34 0 0 0 0 0 0 0 0 0 0 8 15 35 190 224 82 314 509 342 234 221 343 133 0 0 202 3 441 719
0 0 0 0 0 0 0 0 0 0 0 0 0 0 0 0 0 0 0 0 0 0 0 0 0 0 0 1 86 0 289 409 644 554 427 189 333 283 137 0 0 9 0 707
0 0 0 0 0 0 0 0 0 0 0 0 1 0 0 10 0 0 0 0 0 0 0 0 0 0 0 3 11 11 7 0 22 621 747 666 270 366 281 307 12 1 0 0
0 0 0 0 0 0 0 0 6 14 0 0 0 0 0 0 0 0 0 0 0 3 0 0 0 0 0 1 0 2 72 7 2 13 257 832 853 486 379 373 433 210 151 4
0 0 0 0 0 0 0 0 3 0 0 0 0 0 0 0 0 0 0 0 0 0 0 0 0 0 0 0 0 0 13 58 0 59 5 3 952 855 752 688 658 619 574 510
0 0 0 0 0 0 0 0 0 0 0 0 0 0 0 0 0 0 0 0 0 0 1 0 0 0 0 0 0 0 0 0 1 0 2 0 1 1170 1100 1004 923 940 928 1059
0 0 0 0 0 0 0 0 0 9 0 0 1 0 0 0 0 0 0 0 0 0 0 0 0 0 0 0 0 0 0 0 0 0 2 0 0 190 1397 1226 1089 1052 1144 1108
0 0 0 0 0 0 0 0 0 0 0 1 2 0 0 0 0 0 0 0 0 0 0 0 0 0 0 0 0 0 0 0 0 1 3 2 4 179 1619 1415 1378 1086 1199 1303
0 0 0 0 0 0 0 0 0 0 0 0 0 0 0 0 0 0 0 0 0 0 0 0 0 0 0 0 0 0 0 0 0 1 0 0 0 98 1579 1544 1570 1620 1421 1538
0 0 0 0 0 0 0 0 0 0 0 0 0 2 0 2 0 0 0 0 0 0 0 0 0 0 0 0 0 0 0 0 1 1 0 1 0 858 1710 1645 1699 1875 1782 1667
0 0 0 0 0 0 0 0 0 1 0 0 0 2 4 5 2 1 0 0 0 0 0 0 0 0 0 0 0 0 0 0 0 1 1 0 2 1 1386 1828 1916 2034 2029 1907
0 0 0 0 0 0 0 0 0 0 0 1 0 2 0 1 0 4 0 0 0 0 0 0 0 0 0 0 0 0 0 0 0 1 2 3 2 0 2 1248 1498 111 1054 1817

GFSCGP_con_sbcape_090.txt.gz
CAPE
0 0 0 0 0 0 0 0 0 0 0 281 251 154 205 348 442 343 309 208 156 113 11 0 0 0 0 0 0 0 0 0 57 29 106 96 323 362 418 380 385 0 222 664
0 0 0 0 0 0 0 0 0 0 0 0 0 13 187 206 418 357 290 211 167 122 30 0 0 0 0 0 0 0 0 0 91 11 41 123 66 204 218 322 287 825 943 746
0 0 0 0 0 0 0 0 0 0 0 179 62 71 193 146 246 373 293 241 97 86 54 0 0 0 0 0 0 0 0 0 112 0 35 15 53 119 170 353 285 616 790 924
0 0 0 0 0 0 0 0 0 0 0 0 0 0 9 226 194 288 409 143 195 91 9 0 0 0 31 21 0 0 0 0 83 0 45 250 200 253 193 214 384 632 1067 687
0 0 0 0 0 0 0 0 0 0 0 0 0 0 0 67 303 205 194 269 113 176 49 0 0 0 35 0 0 24 33 0 33 11 0 78 141 31 135 108 372 492 654 860
0 0 0 0 0 0 0 0 0 0 0 0 0 0 0 0 0 50 42 86 142 112 182 13 0 0 2 7 0 0 0 0 0 13 0 0 94 34 87 267 259 380 508 882
0 0 0 0 0 0 0 0 0 0 0 0 0 0 0 0 0 0 0 0 40 134 141 44 0 0 24 0 0 0 14 0 0 0 0 0 0 22 92 95 278 232 562 783
0 0 0 0 0 0 0 0 0 0 0 0 0 0 0 0 0 0 0 0 0 25 182 88 4 0 17 35 0 0 9 16 0 0 0 0 0 0 0 2 143 314 483 703
0 0 0 0 0 0 0 0 0 0 0 0 0 0 0 0 0 0 0 0 0 0 140 161 85 0 0 26 30 50 3 0 20 4 0 0 0 0 0 0 0 218 355 714
0 0 0 0 0 0 0 0 0 0 0 0 0 0 0 0 0 0 0 0 0 0 19 172 129 23 0 2 21 26 70 21 14 29 0 0 0 0 0 0 45 151 280 407
0 0 0 0 0 0 0 0 0 0 0 0 0 0 0 0 2 0 0 0 2 0 56 36 107 80 0 0 0 0 47 60 17 75 64 14 0 0 0 0 10 293 355 282
0 0 0 0 0 0 0 0 0 0 0 0 0 0 0 0 1 5 0 0 1 1 3 3 49 83 63 1 0 0 35 45 49 51 95 77 0 0 0 0 0 3 244 223
0 0 0 0 0 0 0 0 0 0 0 0 0 0 0 0 0 7 10 0 0 0 1 4 1 4 25 28 10 0 0 115 8 1 0 0 1 0 15 0 0 0 0 101
0 0 0 0 0 0 0 0 0 0 0 0 0 0 0 0 3 1 9 8 0 0 1 4 5 6 5 3 38 26 23 0 57 16 0 0 0 0 0 0 0 0 0 0
0 0 0 0 0 0 0 0 0 0 0 0 0 0 0 3 0 0 0 6 1 3 0 0 1 8 4 3 4 3 20 56 34 40 104 24 1 0 0 0 0 44 0 0
0 0 0 0 0 0 0 0 0 0 0 0 0 0 0 0 0 0 0 0 3 5 0 2 0 0 2 0 4 3 2 6 13 118 102 154 114 30 0 0 0 3 77 52
0 0 0 0 0 0 0 0 0 0 0 0 0 0 0 0 0 0 0 0 0 0 8 0 0 0 1 0 0 0 0 2 25 51 245 194 147 164 74 0 0 0 4 43
0 0 0 0 0 0 0 0 0 0 0 0 0 0 0 0 0 0 0 0 0 0 0 3 0 0 0 0 0 0 0 0 1 6 219 412 305 218 145 92 0 0 0 3
0 0 0 0 0 0 0 0 0 0 0 0 0 0 0 0 0 0 0 0 0 0 0 0 1 0 0 0 0 0 0 0 0 0 5 4 12 273 308 237 233 46 0 0
0 0 0 0 0 0 0 0 0 0 0 0 0 0 0 0 0 0 0 0 0 0 0 0 0 0 0 0 0 0 0 0 0 0 1 6 6 6 10 353 281 249 170 33
0 0 0 0 0 0 0 0 0 0 0 0 0 0 0 0 0 0 0 0 0 0 0 0 0 0 0 0 0 0 0 0 0 0 0 1 7 10 9 5 10 388 422 369
0 0 0 0 0 0 0 0 0 0 0 0 0 0 0 0 0 0 0 0 0 0 0 0 0 0 0 0 0 0 0 0 0 0 0 0 2 24 15 8 4 16 582 606
0 0 0 0 0 0 0 0 0 0 0 0 0 0 0 0 0 0 0 0 0 0 0 0 0 0 0 0 0 0 0 0 0 0 0 0 0 13 8 7 5 6 169 782
0 0 0 0 0 0 0 0 0 0 0 0 0 0 0 0 0 0 0 0 0 0 0 0 0 0 0 0 0 8 0 0 0 0 0 0 0 2 8 12 11 7 96 726
0 0 0 0 0 0 0 0 0 0 0 0 0 0 0 0 0 0 0 0 0 0 0 0 1 0 0 0 0 0 0 0 0 0 0 0 0 0 2 3 7 7 3 559
0 0 0 0 0 0 0 0 0 0 0 0 0 0 0 0 0 0 1 1 2 2 3 1 0 0 0 0 0 0 0 0 0 0 0 0 0 0 3 6 3 2 0 0

GFSCGP_con_sbcape_093.txt.gz
CAPE
0 0 0 0 0 0 0 0 0 0 18 386 60 81 320 672 665 810 451 350 227 150 140 215 293 271 205 97 163 426 579 966 1058 1012 926 1121 1393 1601 1983 1666 1619 1356 1100 1765
0 0 0 0 0 0 0 0 0 0 0 20 0 0 220 502 823 853 710 425 329 241 156 166 240 208 226 187 146 469 619 988 1108 1086 1283 1433 1651 1662 1727 1674 1677 1240 1484 2128
0 0 0 0 0 0 0 0 0 0 0 129 149 125 415 446 741 836 770 621 457 396 287 190 217 150 221 271 263 429 710 843 1068 1096 1287 1386 1526 1571 1621 1685 1582 1943 1324 1766
0 0 0 0 0 0 0 0 0 0 0 0 17 0 177 398 507 714 767 640 506 466 381 279 209 146 146 286 336 482 695 822 924 1155 1258 1568 1369 2076 1404 1691 1662 1697 2108 1943
0 0 0 0 0 0 0 0 0 0 0 0 0 0 0 542 250 47 386 762 620 329 374 382 222 223 193 227 306 419 692 815 868 1040 1343 1537 1552 1396 1418 1505 1916 1919 2346 2211
0 0 0 0 0 0 0 0 0 0 0 0 0 0 0 0 1 4 16 62 521 531 251 351 311 210 222 243 302 330 659 1107 911 1005 1101 1433 1636 1477 1431 1469 1552 1622 2494 2184
0 0 0 0 0 0 0 0 0 0 0 0 0 0 4 7 7 4 17 32 34 153 542 420 330 208 197 275 329 352 679 1143 993 886 1023 1058 1343 1699 1822 1947 1563 1585 1666 1870
0 0 0 0 0 0 0 0 0 0 0 0 0 0 7 2 4 5 5 13 15 44 100 619 422 342 167 370 436 371 781 1123 831 849 1164 1331 1131 1001 1214 1716 1349 1409 1464 1703
0 0 0 0 0 0 0 0 0 0 0 0 0 0 0 0 0 3 1 0 0 242 48 346 613 383 256 377 589 572 869 1097 889 835 1293 1056 1185 1012 1112 1572 1795 1463 1788 1690
0 0 0 0 0 0 0 0 0 0 0 0 0 0 3 4 7 1 2 7 3 12 214 111 575 473 273 329 492 531 682 993 1196 840 1081 855 794 834 878 1268 1578 1562 1709 1862
0 0 0 0 0 0 0 0 0 0 0 0 0 2 16 21 16 4 0 1 9 10 3 159 496 646 253 253 431 478 523 661 772 766 1055 1115 810 660 768 716 1215 1553 1781 1983
0 0 0 0 0 0 0 0 0 0 0 0 0 1 27 15 9 16 2 0 1 4 7 6 13 8 248 233 267 432 383 503 593 893 1146 877 936 807 669 655 640 1072 1549 1945
0 0 0 0 0 0 0 0 0 0 0 0 0 0 9 2 0 1 8 5 0 2 2 5 2 4 2 4 161 352 404 395 400 677 550 896 839 847 907 841 784 728 1025 1454
0 0 0 0 0 0 0 0 0 0 0 0 0 9 7 0 0 0 3 8 6 6 2 3 5 4 1 1 1 4 375 453 595 549 436 774 917 1064 988 1087 1058 879 879 979
0 0 0 0 0 0 0 0 0 0 0 0 0 8 6 1 0 0 0 1 6 9 6 2 3 6 9 0 0 2 2 57 601 839 711 725 866 908 946 951 1151 1104 996 894
0 0 0 0 0 0 0 0 0 0 0 0 6 9 1 0 0 0 0 0 0 0 8 7 4 0 0 10 2 0 3 4 74 514 731 823 889 812 739 732 754 865 1012 1051
0 0 0 0 0 0 0 0 0 0 0 0 5 2 1 0 0 0 0 0 0 0 0 0 1 0 0 0 16 2 0 0 4 2 29 794 898 921 894 730 653 824 759 857
0 0 0 0 0 0 0 0 0 0 0 0 0 0 0 0 0 0 0 0 0 0 0 0 0 0 0 0 0 12 0 0 0 1 1 1 2 739 1027 958 853 807 671 725
0 0 0 0 0 0 0 0 0 0 0 0 0 0 0 0 0 0 0 0 0 0 0 0 0 0 0 0 0 2 12 0 0 0 0 1 3 3 7 889 952 953 617 631
0 0 0 0 0 0 0 0 0 0 0 0 0 0 0 0 0 4 0 0 0 0 0 0 0 0 0 0 0 0 1 2 0 0 0 1 1 3 4 6 16 451 792 446
0 0 0 0 0 0 0 0 0 0 0 0 0 0 0 0 0 0 0 0 0 0 0 0 0 0 0 0 0 0 1 1 0 0 0 0 0 1 4 10 12 7 181 799
0 0 0 0 0 0 0 0 0 0 0 0 0 0 0 0 0 0 0 0 0 0 0 0 0 0 0 0 0 0 0 3 3 0 0 0 0 0 3 3 1 5 33 85
0 0 0 0 0 0 0 0 0 0 0 0 0 0 0 0 0 0 0 0 0 0 0 0 0 0 0 0 0 0 0 0 4 6 0 0 0 0 0 2 2 6 14 89
0 0 0 0 0 0 0 0 0 0 0 0 0 0 0 0 0 0 0 0 0 0 0 0 0 0 0 0 0 0 0 0 1 15 6 0 0 0 0 0 2 15 13 26
0 0 0 0 0 0 0 0 0 0 0 0 0 0 0 0 0 0 0 2 4 1 0 0 1 1 0 0 0 0 0 0 2 8 8 3 0 0 3 0 0 1 2 15
0 0 0 0 0 0 0 0 0 0 0 0 0 0 0 0 0 0 1 5 7 7 9 7 9 10 6 0 0 0 1 6 3 13 8 2 0 0 0 2 0 0 0 0

GFSCGP_con_sbcape_096.txt.gz
CAPE
0 0 0 0 0 23 29 9 0 0 296 422 245 124 695 946 884 802 716 704 503 339 124 212 504 461 143 0 213 354 683 1348 1329 1274 1133 1405 1542 2703 1482 1463 1634 1999 1680 1984
0 0 0 0 0 0 0 0 0 0 86 163 0 0 12 688 593 955 881 539 439 416 174 241 604 615 394 123 309 524 847 1618 1689 1506 1638 1421 1548 1598 1521 1830 2033 1587 1618 1709
0 0 0 0 0 0 2 6 0 0 0 0 1 168 436 289 588 704 886 711 690 444 349 150 399 715 563 279 306 650 943 1544 1765 1544 1976 2370 2108 2369 2122 2334 1517 1563 1602 1440
0 0 0 0 0 0 0 1 0 0 0 19 16 7 117 501 706 881 967 659 814 543 426 323 462 667 678 572 403 493 1149 1500 1724 2003 1762 1977 1127 1036 1255 1721 1736 1374 1263 1586
0 0 0 0 0 0 18 0 0 0 0 0 0 20 189 372 268 283 967 985 961 1086 723 561 445 628 623 711 613 607 1086 1439 1473 1886 1917 2111 1702 749 930 1495 2940 1936 1592 1500
2 1 4 10 6 0 0 0 0 0 0 0 6 1 66 99 140 235 302 353 917 726 765 640 624 599 660 661 728 684 1155 1614 1744 1787 2101 2160 1659 1403 1309 1449 3385 2527 1645 1530
0 0 0 0 0 0 0 0 0 0 0 0 0 0 86 43 91 127 201 234 268 452 724 660 889 672 694 754 845 905 1124 1791 1914 1773 1802 2007 2154 2156 1884 2074 894 1731 1470 1459
0 0 0 0 0 0 0 0 0 1 0 0 0 15 16 15 63 103 27 57 186 312 330 539 564 904 768 801 1033 1102 1299 1749 1932 1903 1922 2059 2197 1918 1703 1616 865 1341 1264 1489
1 0 0 0 0 0 0 0 0 0 3 1 0 27 13 16 39 56 4 8 75 404 391 372 1093 1009 909 862 1013 1246 1453 1842 2012 1791 2017 2131 2254 2074 1396 1249 1457 1317 1526 1363
0 0 0 0 0 0 0 0 0 0 1 1 0 7 106 14 13 13 4 9 19 83 525 509 648 985 1015 1003 966 1215 1757 1972 2039 1732 1727 1931 2110 2126 1938 1507 1641 1577 1530 1862
0 0 0 0 0 0 0 0 0 0 0 1 22 42 11 23 21 9 5 8 12 15 46 134 16 353 1127 1000 831 1068 1386 1505 1632 1635 1651 1819 1967 1887 1898 1487 1509 1710 2122 2098
0 0 0 0 0 0 0 0 0 2 0 0 25 73 26 5 8 9 5 4 3 6 7 5 5 5 63 635 915 1022 1110 1190 1302 1470 1501 1656 1705 2154 1625 1612 1394 1409 1884 2320
0 0 0 0 0 0 0 0 0 0 0 10 3 90 9 3 5 8 5 4 1 1 1 3 4 2 2 5 70 692 849 937 1001 1202 1245 1408 1500 1548 1816 1655 1661 1416 1427 1748
0 0 0 6 1 0 0 0 0 0 3 11 5 33 10 8 4 5 9 9 5 3 0 0 0 4 4 5 4 11 85 711 811 835 1110 1197 1310 1436 1455 2006 1937 1763 1655 1600
0 0 0 0 0 0 0 0 0 0 0 3 100 14 16 3 2 3 6 8 4 6 6 6 1 0 3 8 6 1 3 8 204 1127 1116 1234 1676 1440 1300 1557 1544 1773 1864 1764
0 0 0 0 0 0 0 0 0 0 0 10 17 9 7 1 0 0 0 0 2 1 0 0 0 2 0 2 3 1 2 6 6 83 946 1344 1505 1763 1631 1657 1807 1796 1865 1944
0 0 0 0 0 0 0 0 0 0 0 12 37 0 8 3 2 0 0 0 0 0 0 0 0 0 0 1 5 14 4 4 10 7 8 58 476 1105 1547 1641 1563 1663 1777 1823
0 0 0 0 0 0 0 0 0 0 0 0 2 4 3 8 3 0 0 0 0 0 0 0 0 0 0 0 0 2 5 3 3 5 6 8 14 3 102 1223 1768 2025 1697 1665
0 0 0 0 0 0 0 0 0 0 0 0 8 10 5 0 0 2 0 0 0 0 0 0 0 0 0 0 0 0 0 3 2 4 1 5 12 12 2 20 278 363 1656 1747
0 0 0 0 0 0 0 0 0 0 0 0 2 7 2 0 0 21 0 0 0 0 0 0 0 0 0 0 0 0 0 0 5 1 0 0 3 8 9 7 8 20 86 1147
3 7 2 9 1 1 0 0 0 0 0 0 0 2 0 0 0 0 0 0 0 0 0 0 0 0 0 0 0 0 0 0 1 4 4 0 0 4 4 35 25 4 9 238
15 27 47 31 34 16 0 0 0 0 0 0 0 0 0 0 0 0 0 0 0 0 0 0 0 0 0 0 0 0 0 0 0 0 4 7 3 0 0 9 19 8 10 5
2 4 26 7 38 0 0 0 1 0 0 0 0 0 0 0 0 0 0 0 0 0 0 0 0 0 0 0 0 0 0 0 0 0 0 6 13 3 0 0 0 15 1 18
0 0 0 0 0 0 0 0 0 0 0 0 0 0 0 0 0 0 0 0 0 0 0 0 0 0 0 0 0 0 0 0 0 0 0 0 4 8 2 0 0 0 0 0
7 1 0 0 0 0 0 0 0 0 0 0 0 0 0 0 0 0 0 0 1 3 2 1 2 2 3 4 4 3 1 2 0 0 0 0 0 0 3 0 0 0 0 0
0 0 6 5 0 0 2 0 0 0 0 0 0 0 0 0 0 0 0 1 2 4 6 6 7 10 10 8 9 8 14 9 6 0 0 0 0 0 0 0 0 0 0 0

GFSCGP_con_sbcape_099.txt.gz
CAPE
0 0 0 0 0 2 117 50 27 144 175 224 113 181 574 1063 807 894 302 109 109 163 219 85 45 25 6 120 275 567 744 1422 1484 1240 1018 1630 1877 2115 2239 1548 1719 1853 1857 1867
0 0 0 0 0 1 93 118 80 223 365 169 110 36 247 589 632 771 963 551 290 356 236 135 264 156 10 61 217 576 1106 1554 1439 1070 1926 2416 1811 1861 2599 1590 1831 2305 1554 1659
0 0 0 0 0 0 101 98 36 22 356 10 7 90 210 283 452 863 832 700 644 389 235 190 287 275 182 75 303 615 1320 1748 1842 2522 2437 1592 2251 1824 1838 1869 1740 1715 1664 1504
0 0 0 0 3 0 11 38 40 56 6 115 7 20 218 282 913 1097 981 887 706 517 524 217 273 393 251 151 254 663 1276 1858 1835 1760 2364 1966 1444 1289 1637 2398 1424 1608 1663 2357
0 0 0 0 0 0 29 63 20 1 0 204 56 113 53 200 410 965 1108 1106 914 561 598 207 256 536 333 309 238 655 1203 1955 2033 2036 2403 1935 2381 1510 2061 2029 2372 1826 2055 1692
0 0 0 1 8 0 39 45 26 3 2 74 221 44 94 256 230 724 950 1058 998 848 629 563 448 631 411 358 362 475 1336 2528 2170 2181 2016 2209 1225 2447 1635 1949 1955 1781 1393 1750
13 4 18 0 48 4 32 33 18 2 1 19 129 125 202 161 132 147 201 246 756 1041 1229 964 699 648 769 403 385 622 2335 2889 2306 1993 2166 2281 2133 1877 2069 1814 1793 1471 1412 1144
12 14 1 0 15 41 21 10 10 1 0 3 53 252 209 188 31 7 2 32 228 447 1090 1073 900 877 884 650 508 655 2606 2971 2332 2235 2633 3198 2688 1836 1319 1867 1348 1576 1084 1362
55 19 0 0 0 0 19 1 3 40 37 27 157 190 159 154 154 31 8 9 63 478 1076 1049 872 921 797 1033 768 1032 2306 3383 2586 2339 3387 3073 3223 2924 1875 1825 2124 1560 1365 2361
17 5 0 0 0 0 0 2 14 6 68 53 227 226 302 55 17 7 5 9 20 205 717 837 539 726 989 986 1068 1125 1619 2463 2526 2511 2438 2402 2488 2671 2505 1664 1727 2157 2210 1452
2 14 0 0 0 0 0 0 2 44 31 118 140 390 138 43 0 12 6 8 10 18 58 223 322 196 676 413 318 1298 1507 2007 2334 2522 2455 2983 2519 2472 2615 2145 1828 1822 2229 1889
0 3 3 0 0 0 0 3 6 7 27 10 54 85 11 23 10 3 4 2 3 3 7 14 6 1 4 1 3 1044 130 1575 1917 2000 2346 2224 2337 2337 2341 2373 1957 1914 2380 2441
0 0 43 1 0 0 0 0 0 9 42 96 64 187 81 9 19 7 4 1 0 0 0 0 2 1 4 4 2 38 253 147 274 2123 2013 2126 2269 2297 2181 2258 2217 2167 2625 2518
0 2 13 9 19 0 0 0 0 0 6 39 141 136 91 19 18 7 6 5 4 1 0 0 0 1 2 1 2 3 5 3 112 1109 1280 2517 2478 2347 2125 2046 2257 2408 2616 2668
0 2 0 1 0 0 0 0 0 0 0 34 489 182 105 102 23 11 6 3 5 2 1 0 0 0 3 11 1 0 0 5 5 455 1491 1545 2132 1696 1901 2050 2069 2132 2908 2561
0 9 0 0 0 0 0 0 0 0 0 16 237 21 45 37 65 29 11 5 8 5 2 0 0 0 0 3 6 3 0 0 1 8 11 205 1268 1418 1905 1818 2537 2622 2256 3155
1 4 0 0 2 0 0 0 0 0 0 7 246 23 12 13 17 22 11 9 5 2 1 0 0 0 0 0 1 1 1 0 0 0 3 8 12 48 1179 1692 1993 2173 2722 2563
0 0 0 0 1 0 0 0 0 0 0 4 266 33 6 12 3 2 3 2 0 0 0 0 0 0 0 0 0 0 9 8 3 1 0 0 9 12 11 57 1556 1692 2214 2292
0 0 0 0 11 0 0 0 0 0 0 8 148 72 14 9 9 9 0 0 0 0 0 0 0 0 0 0 0 0 0 1 16 15 7 0 0 5 8 16 12 232 1340 1493
0 0 3 8 0 13 89 0 0 0 0 0 124 138 51 41 57 37 0 0 0 0 0 0 0 0 0 0 0 0 0 0 0 3 10 11 5 0 0 4 10 9 11 562
0 0 0 4 19 66 2 0 0 0 67 0 5 36 49 50 14 0 0 0 0 0 0 0 0 0 0 0 0 0 0 0 0 0 0 1 12 8 0 0 5 12 12 14
104 103 113 54 52 67 1 0 0 71 30 18 24 31 18 0 0 0 0 0 0 0 0 0 0 0 0 0 0 0 0 0 0 0 0 0 0 2 2 2 0 0 8 15
19 87 247 116 207 54 0 1 16 16 6 3 1 0 0 0 0 0 0 0 0 0 0 0 0 0 0 0 0 0 0 0 0 0 0 0 0 0 0 3 0 0 0 0
17 3 10 22 6 17 0 0 0 0 5 0 0 0 0 0 0 0 0 0 0 0 0 0 0 0 0 1 2 0 0 0 0 0 0 0 0 0 0 0 0 0 0 0
114 55 15 3 14 3 1 0 0 0 0 0 0 0 0 0 0 0 0 0 0 0 0 0 0 0 0 2 9 5 6 4 1 0 0 0 0 0 0 0 0 2 2 0
77 95 91 68 40 33 13 21 7 4 0 0 0 0 0 0 0 0 0 0 0 2 1 2 4 2 0 1 6 11 14 15 12 5 0 0 0 0 0 0 0 0 0 0

GFSCGP_con_sbcape_102.txt.gz
CAPE
0 0 0 0 0 0 10 102 87 70 553 330 169 152 68 103 614 186 94 65 73 113 99 17 14 15 68 375 713 1203 2112 2476 2163 2072 2072 2676 2373 2927 2189 973 1903 1824 2635 2347
0 0 0 0 0 0 0 24 106 173 235 192 133 43 97 186 224 512 123 77 122 115 48 47 19 28 90 418 772 1293 2171 2354 2585 2072 2102 1978 764 2111 2331 2173 2685 2678 2512 2550
0 0 0 0 0 0 0 8 0 260 59 0 12 53 2 26 8 115 415 229 163 213 118 36 67 30 21 357 737 1228 2269 2114 2546 2643 2126 517 1025 2071 2344 1807 2421 2425 2466 2350
0 0 0 0 0 0 0 104 0 364 46 60 152 159 107 133 142 148 504 793 350 211 133 34 75 40 7 200 462 1359 2459 2169 2138 1397 2658 3065 2295 1025 2546 2283 2317 2361 2214 2683
0 0 0 0 0 0 2 51 23 28 33 77 101 90 121 58 11 265 467 833 718 279 126 109 114 70 41 115 336 1103 2180 2480 2699 2776 2361 2546 390 0 822 387 2905 2347 2737 2029
0 0 0 0 0 0 0 0 47 8 0 86 84 136 164 51 163 510 782 817 769 540 243 189 71 88 54 108 236 971 1845 2589 2649 2963 2355 2543 966 299 931 1122 2787 2444 2413 2669
0 0 0 0 0 2 2 17 53 49 0 3 155 157 228 151 14 48 283 237 361 743 379 380 303 307 163 211 234 1026 1781 2676 2822 2632 2679 2343 2258 518 682 2126 2160 1475 1774 1958
0 28 0 0 5 62 41 49 82 37 18 5 230 244 154 113 35 41 48 93 229 733 698 625 527 377 363 339 422 1125 2100 2660 2707 2757 3030 3237 2665 2157 1534 1983 1673 400 788 481
43 87 48 0 15 6 31 26 34 57 4 39 441 231 174 41 56 31 1 4 62 223 729 396 669 503 299 620 386 1390 2164 2650 2762 2591 3007 3423 3437 3274 2519 3105 3317 2263 572 897
7 103 63 0 0 0 1 19 6 14 48 128 432 293 347 111 63 39 4 0 0 15 120 552 292 210 800 871 788 1088 2606 2979 3085 2916 3073 3028 3226 3361 3244 3757 2894 3231 1698 990
0 16 0 0 0 0 0 0 0 1 36 62 330 271 175 120 32 8 2 0 0 1 3 15 64 53 266 206 47 43 534 2641 2810 3055 3084 3033 2990 3135 3413 3065 2930 2674 3115 838
0 2 15 0 0 0 0 0 6 14 4 29 259 129 61 64 88 0 0 0 0 0 1 4 3 6 10 55 23 0 1 132 437 1118 2532 2805 3311 3223 3151 3177 3025 3021 3071 2814
0 0 25 1 0 0 0 0 0 0 0 101 145 271 99 64 17 6 1 0 0 0 0 4 5 11 9 8 4 1 0 54 146 1587 1442 2394 2943 2569 3433 3555 3399 3138 3199 3196
0 0 0 0 5 0 0 0 0 0 0 1 494 212 47 50 7 3 4 1 0 0 0 0 2 5 14 6 1 0 5 2 31 283 307 1179 2356 2648 2851 3239 3321 3469 3434 3184
0 0 0 1 0 0 0 0 0 0 0 58 456 313 132 54 54 4 3 0 0 0 0 0 0 0 2 0 0 0 1 1 4 12 7 26 184 1403 1808 2669 2483 2800 3216 3157
0 6 0 4 0 0 0 0 0 0 0 627 439 263 108 79 52 18 4 0 0 0 0 0 0 0 0 0 0 0 0 0 0 2 2 9 12 18 25 887 1814 2483 2658 2823
7 35 8 0 0 0 0 0 0 0 0 133 332 265 101 36 26 14 10 4 1 0 0 0 0 0 0 0 2 7 0 0 0 0 0 0 8 12 9 5 35 1430 2032 2206
0 16 26 1 16 0 0 0 0 0 0 112 356 265 180 137 34 4 8 5 3 0 0 0 0 0 0 0 0 0 7 30 6 0 0 0 0 0 0 3 1 3 208 1621
0 0 0 2 1 2 3 0 0 0 0 538 383 219 139 79 7 3 1 2 1 0 0 0 0 0 0 0 0 0 0 0 10 1 5 13 8 0 0 0 4 1 3 26
0 0 0 3 0 5 12 0 0 0 0 39 318 221 32 3 16 12 1 0 0 0 0 0 0 0 0 0 0 0 0 0 0 0 0 0 2 12 1 0 0 3 1 3
0 0 0 1 20 124 6 0 0 0 72 94 308 263 174 98 2 0 0 0 0 0 0 0 0 0 0 0 0 0 0 0 0 0 0 0 0 0 15 7 4 0 0 0
139 28 30 4 7 63 45 0 3 122 57 31 61 38 0 0 0 0 0 0 0 0 0 0 0 0 0 0 0 0 0 0 0 0 0 0 0 0 0 1 18 9 1 0
24 166 187 211 246 183 3 16 26 75 108 97 29 4 0 0 0 0 0 0 0 0 0 0 0 0 0 0 0 0 10 10 7 3 0 0 0 0 0 0 0 4 6 1
31 0 92 116 277 168 36 0 0 33 5 0 0 0 0 0 0 0 0 0 0 0 0 0 0 0 0 0 1 9 1 0 0 2 3 1 0 0 0 0 0 0 0 0
81 38 22 43 34 4 0 1 0 0 0 0 0 0 0 0 0 0 0 0 0 0 0 0 0 0 0 0 0 0 5 6 2 2 2 0 0 0 0 0 0 0 0 0
142 111 523 171 71 31 36 17 1 0 0 0 0 0 0 0 0 0 0 0 0 0 0 0 0 0 0 0 0 7 3 14 12 4 0 0 0 0 0 0 0 0 0 0

GFSCGP_con_sbcape_105.txt.gz
CAPE
0 0 0 0 0 0 0 4 88 176 402 171 112 37 0 37 173 200 135 34 20 14 4 0 0 0 160 145 50 827 580 1167 550 966 897 909 858 951 500 169 1275 1302 1347 1037
0 0 0 0 0 0 0 2 246 425 432 97 170 93 24 75 157 138 159 21 23 20 12 0 0 26 85 150 227 709 1222 737 447 1008 1247 1272 445 1015 1010 993 1135 1264 1283 1200
0 0 0 0 0 0 0 0 115 265 13 162 39 57 14 9 47 68 40 172 33 12 0 0 0 9 73 164 469 931 947 1162 1258 728 407 209 128 892 1023 1206 1240 1343 1284 1363
0 0 0 0 0 0 0 11 226 85 73 107 125 11 0 1 14 13 20 180 46 20 0 0 0 0 68 174 419 1008 944 780 1205 1388 558 1 359 668 660 1082 1208 1504 1341 1499
0 0 0 0 0 0 0 411 294 38 4 73 44 109 61 9 6 7 40 0 11 22 15 30 0 0 57 188 337 1129 954 777 887 1388 1081 667 50 0 30 517 1167 1497 1380 1620
0 0 0 0 0 0 0 0 93 140 29 83 199 152 123 66 19 6 6 0 51 47 60 65 23 0 70 137 364 933 1189 1151 1299 1080 1007 673 0 0 64 601 1187 1207 1156 1155
0 0 0 0 0 0 0 0 0 1 25 12 155 116 46 36 0 0 0 1 309 306 88 70 105 49 85 152 375 521 1528 1457 1310 1584 1139 625 156 273 497 582 807 1180 1107 1181
0 0 0 0 0 0 0 0 3 19 0 0 48 136 111 22 67 132 213 48 160 304 191 319 353 65 13 106 339 563 1202 1543 1464 1441 1414 934 520 179 40 324 1031 766 817 540
1 0 0 0 0 0 0 0 0 0 1 1 262 259 255 79 51 63 61 118 37 35 106 631 158 418 246 82 307 577 931 1486 1872 1540 1812 1334 952 402 186 205 869 423 364 948
5 0 3 14 12 0 0 0 0 0 0 13 209 308 235 77 43 3 0 6 6 27 63 103 103 285 454 297 294 228 276 258 1345 1699 1937 1728 1594 1539 1665 1649 1600 755 797 304
0 0 14 0 0 0 0 0 0 0 0 0 203 126 266 43 7 2 0 0 2 17 46 3 2 11 59 24 8 6 0 0 0 0 242 1822 1658 1664 1816 1655 1450 734 547 373
0 0 0 0 0 0 0 0 0 0 0 17 246 101 61 0 0 0 0 0 0 5 18 5 7 4 4 5 1 0 0 0 0 0 43 807 1868 1650 1761 1809 2042 930 652 477
0 0 0 0 0 0 0 0 0 0 0 5 10 130 82 1 0 0 0 0 0 0 0 0 0 1 3 2 4 5 0 1 7 89 36 545 1452 1839 1665 1912 1994 1826 1366 743
0 0 0 0 0 0 0 0 0 0 0 232 283 96 34 9 0 0 0 0 0 0 0 0 0 0 0 1 1 2 3 2 4 1 5 81 60 515 1182 1799 2211 2389 1972 1834
0 0 0 0 0 0 0 0 0 0 18 78 104 80 49 8 0 2 0 0 0 0 0 0 0 0 0 0 0 0 0 0 0 0 1 5 3 1 78 499 1092 1521 1865 2111
0 0 0 0 0 0 0 0 0 0 482 445 138 61 16 5 0 2 1 0 0 0 0 0 0 0 1 0 0 0 0 0 0 0 2 3 14 2 3 12 1 739 1188 1211
0 0 0 0 0 0 0 0 0 0 0 427 175 140 26 14 0 0 0 0 0 0 0 0 0 0 0 0 1 0 0 0 0 0 0 0 2 4 4 3 2 5 10 500
0 0 0 1 1 0 0 0 0 0 0 408 228 118 100 41 3 0 0 0 0 0 0 0 0 0 0 0 0 0 1 1 0 0 0 0 0 0 0 3 3 2 3 10
0 0 0 0 5 0 0 4 0 4 660 640 287 139 93 54 16 0 0 0 0 0 0 0 0 0 0 0 0 0 0 0 0 0 0 0 0 0 0 0 0 0 0 0
0 0 0 0 0 1 0 0 0 0 482 539 323 170 16 0 0 0 0 0 0 0 0 0 0 0 0 0 0 0 0 0 0 0 0 0 0 0 0 0 0 0 0 0
0 0 0 0 0 44 5 0 0 0 69 30 232 33 11 0 0 0 0 0 0 0 0 0 0 0 0 0 0 0 0 0 0 0 0 0 0 0 0 0 0 0 0 0
87 0 0 0 0 16 3 2 84 112 79 33 0 0 0 0 0 0 0 0 0 0 0 0 0 0 0 0 0 0 0 0 0 0 0 0 0 0 0 0 0 0 0 0
0 66 103 39 140 62 0 0 0 54 98 21 0 0 0 0 0 0 0 0 0 0 0 0 0 0 0 0 0 0 0 0 0 0 0 0 0 0 0 0 0 0 0 0
11 9 12 81 110 98 0 0 0 0 0 0 0 0 0 0 0 0 0 0 0 0 0 0 0 0 0 0 0 0 0 0 0 0 0 0 0 0 0 0 0 0 0 0
99 20 42 31 0 0 0 0 0 0 0 0 0 0 0 0 0 0 0 0 0 0 0 0 0 0 0 0 0 0 0 0 0 0 0 0 0 0 0 0 0 0 0 0
46 0 61 88 60 0 5 7 3 0 0 0 0 0 0 0 0 0 0 0 0 0 0 0 0 0 0 0 0 0 0 0 0 0 0 0 0 0 0 0 0 0 0 0

GFSCGP_con_sbcape_108.txt.gz
CAPE
0 0 0 0 0 0 0 0 283 269 183 239 64 67 116 190 117 3 147 179 46 70 52 19 157 134 85 0 141 251 284 383 363 327 243 257 324 512 463 373 1018 978 1165 675
0 0 0 0 0 0 0 0 138 273 64 144 83 47 72 166 132 79 141 166 30 86 38 52 182 143 83 40 238 238 481 253 290 794 700 677 736 693 483 272 1082 1106 1172 609
0 0 0 0 0 0 0 0 150 355 267 136 60 48 84 122 95 113 177 111 135 47 22 33 176 183 97 190 384 512 593 167 324 706 458 262 357 675 846 856 789 1018 1056 1024
0 0 0 0 0 0 0 0 179 146 76 2 73 5 30 55 123 169 181 115 145 20 17 34 123 179 106 260 377 574 564 525 719 415 235 264 541 603 645 644 807 1026 949 1081
0 0 0 0 0 0 0 322 279 124 29 10 15 15 0 3 75 77 101 78 113 63 7 0 128 163 156 288 481 460 522 502 990 928 290 153 271 225 300 611 1032 989 972 1038
0 0 0 0 0 0 286 252 154 82 53 47 42 24 64 10 12 107 127 73 179 16 138 6 160 159 160 282 600 434 370 382 618 814 584 258 3 30 205 576 858 860 825 1064
0 0 0 0 0 0 28 199 30 62 7 2 4 31 3 19 29 67 124 70 27 2 45 182 62 122 146 278 562 736 460 564 825 680 768 220 0 0 374 528 801 803 771 864
0 0 0 0 0 0 0 0 2 1 5 0 0 2 237 13 4 0 19 131 86 217 127 344 277 115 151 227 407 980 585 705 893 772 784 188 50 287 399 364 509 669 716 530
0 0 0 0 0 0 0 2 0 0 0 16 162 170 111 62 30 136 52 170 122 106 264 224 409 470 178 143 318 738 936 806 705 1145 802 550 316 151 31 76 557 795 442 311
0 0 0 0 0 0 0 0 0 0 0 2 81 173 116 109 143 64 9 14 67 140 198 198 136 236 241 202 440 488 404 266 0 74 276 826 537 319 25 0 257 514 303 621
0 0 0 0 0 0 0 0 0 0 0 0 84 102 147 52 2 0 0 3 44 116 46 13 13 84 87 89 59 0 0 0 0 0 60 170 572 1114 977 1177 894 784 371 241
0 0 0 0 0 0 0 0 0 0 0 0 40 179 4 0 0 0 0 0 14 51 58 6 3 8 46 13 2 4 0 0 0 0 11 150 530 754 1239 1247 808 613 456 178
0 0 0 0 0 0 0 0 0 0 0 41 38 190 23 0 0 0 0 0 0 2 2 5 4 2 12 0 10 9 4 2 46 67 40 42 228 877 1172 1137 1159 599 439 356
0 0 0 0 0 0 0 0 0 0 0 155 140 174 19 4 0 0 0 0 1 2 2 0 2 1 3 3 3 8 4 1 26 10 16 34 1 4 197 526 724 972 701 411
0 0 0 0 0 0 0 0 0 0 0 0 128 77 32 0 0 0 0 0 0 2 7 0 0 0 0 0 1 1 1 1 0 0 1 12 2 0 0 1 1 407 860 1116
0 0 0 0 0 0 0 0 0 351 248 217 99 48 13 4 0 0 0 0 0 0 0 2 3 0 0 0 0 0 0 0 0 0 2 1 1 0 1 0 2 2 19 590
0 0 0 0 0 0 0 0 0 67 294 242 112 44 20 9 0 0 0 0 0 0 0 0 0 0 0 0 0 0 0 0 0 0 0 0 0 0 0 1 0 1 3 16
0 0 0 0 0 0 0 0 0 64 406 191 52 29 21 34 0 0 0 0 0 0 0 0 0 0 0 0 0 0 0 0 0 0 0 0 0 0 0 0 0 2 4 7
0 0 0 0 0 0 0 0 0 533 391 203 150 71 7 0 0 0 0 0 0 0 0 0 0 0 0 0 0 0 0 0 0 0 0 0 0 0 0 0 0 0 3 1
0 0 0 0 0 0 0 0 0 22 120 214 238 111 29 0 0 0 0 0 0 0 0 0 0 0 0 0 0 0 0 0 0 0 0 0 0 0 0 0 0 0 0 0
0 0 0 0 0 0 0 0 0 0 0 201 196 79 0 0 0 0 0 0 0 0 0 0 0 0 0 0 0 0 0 0 0 0 0 0 0 0 0 0 0 0 0 0
1 0 0 0 0 0 0 0 5 0 0 0 0 0 0 0 0 0 0 0 0 0 0 0 0 0 0 0 0 0 0 0 0 0 0 0 0 0 0 0 0 0 0 0
0 0 0 0 0 0 0 0 0 0 0 0 0 0 0 0 0 0 0 0 0 0 0 0 0 0 0 0 0 0 0 0 0 0 0 0 0 0 0 0 0 0 0 0
0 0 9 0 0 0 0 0 0 0 0 0 0 0 0 0 0 0 0 0 0 0 0 0 0 0 0 0 0 0 0 0 0 0 0 0 0 0 0 0 0 0 0 0
0 0 0 0 0 0 0 0 0 0 0 0 0 0 0 0 0 0 0 0 0 0 0 0 0 0 0 0 0 0 0 0 0 0 0 0 0 0 0 0 0 0 0 0
0 0 1 0 0 0 0 0 0 0 0 0 0 0 0 0 0 0 0 0 0 0 0 0 0 0 0 0 0 0 0 0 0 0 0 0 0 0 0 0 0 0 0 0

GFSCGP_con_sbcape_111.txt.gz
CAPE
0 0 0 0 0 0 0 0 21 311 244 237 87 42 173 187 92 111 67 128 97 102 159 184 213 418 251 221 142 186 168 129 137 104 8 0 47 118 466 453 703 904 1038 625
0 0 0 0 0 0 0 0 102 200 131 169 83 106 83 129 76 96 41 106 68 133 186 186 176 305 125 133 175 130 182 182 195 324 362 307 288 429 312 278 783 799 979 491
0 0 0 0 0 0 0 0 17 288 247 195 135 80 87 84 79 48 32 87 111 36 34 142 160 190 42 70 163 109 186 177 212 556 376 238 413 517 572 367 659 750 945 589
0 0 0 0 0 0 0 0 0 355 124 62 59 8 65 83 63 18 49 51 138 40 27 159 144 114 36 55 163 164 205 76 233 381 305 326 420 373 422 387 551 744 802 901
0 0 0 0 0 0 0 16 0 194 22 12 22 0 0 45 40 20 6 10 135 49 18 159 120 89 36 144 194 282 196 159 319 304 167 139 286 205 348 522 664 710 713 738
0 0 0 0 0 0 222 173 74 0 9 2 5 1 22 51 41 11 26 95 131 65 62 21 95 135 44 236 277 323 248 356 466 499 107 87 179 161 267 430 685 620 636 734
0 0 0 0 0 0 224 37 39 32 32 1 8 22 21 36 48 93 74 135 166 73 32 243 50 105 88 268 285 290 199 258 460 556 323 51 5 53 185 372 550 592 549 650
0 0 0 0 0 0 196 1 1 5 10 0 24 21 52 17 12 28 84 138 162 116 127 149 168 113 100 237 419 320 188 178 395 442 555 156 1 0 84 248 400 492 455 599
0 0 0 0 0 0 0 0 0 0 0 5 37 175 145 50 35 44 96 56 82 178 241 149 311 263 55 128 417 450 293 278 493 490 504 167 2 39 90 165 252 371 400 389
0 0 0 0 0 0 0 0 0 0 0 0 38 102 188 38 33 31 12 21 9 55 366 242 251 319 229 139 226 826 430 361 260 417 443 515 204 143 0 19 113 475 326 222
0 0 0 0 0 0 0 0 0 0 0 0 24 37 40 74 1 4 21 17 48 86 162 138 185 191 126 103 115 120 23 0 12 71 84 182 449 599 177 28 0 130 215 168
0 0 0 0 0 0 0 0 0 0 0 0 0 29 7 9 0 0 3 29 12 47 67 26 28 39 73 67 23 2 0 0 0 3 54 69 105 256 695 751 857 687 417 118
0 0 0 2 0 0 0 0 0 0 0 1 0 36 2 0 0 0 1 15 3 2 2 3 8 37 30 21 1 2 5 15 0 18 49 20 1 241 591 869 942 645 413 229
0 0 0 0 0 0 0 0 0 0 0 13 41 189 7 0 0 0 0 1 1 1 2 3 2 3 19 5 1 2 11 17 5 6 51 4 1 5 126 417 498 666 451 267
0 0 0 0 0 0 0 0 0 0 0 12 54 118 43 0 0 0 0 1 1 1 0 1 1 2 2 1 4 4 4 4 7 22 44 40 2 1 1 4 5 46 228 564
0 0 0 0 0 0 0 0 0 140 222 124 118 18 5 0 0 0 0 1 3 3 1 0 1 0 0 0 1 2 2 2 1 6 1 2 0 3 3 1 0 0 0 0
0 0 0 0 0 0 0 0 0 157 272 189 115 81 11 0 0 0 0 0 0 0 0 0 0 0 0 1 3 2 0 0 0 0 0 0 0 0 2 1 0 1 1 0
0 0 0 0 0 0 0 0 0 365 283 121 75 68 24 0 0 0 0 0 0 0 0 0 0 0 0 0 0 0 0 0 0 0 0 0 0 0 0 0 0 0 0 1
0 0 0 0 0 0 0 0 0 15 333 217 152 63 0 0 0 0 0 0 0 0 0 0 0 0 0 0 0 0 0 0 0 0 0 0 0 0 0 0 0 0 0 0
0 0 0 0 0 0 0 0 0 9 5 166 175 42 7 0 0 0 0 0 0 0 0 0 0 0 0 0 0 0 0 0 0 0 0 0 0 0 0 0 0 0 0 0
0 0 0 0 0 0 0 0 0 2 0 312 265 72 7 0 0 0 0 0 0 0 0 0 0 0 0 0 0 0 0 0 0 0 0 0 0 0 0 0 0 0 0 0
0 0 0 0 0 0 0 0 2 0 0 34 177 43 0 0 0 0 0 0 0 0 0 0 0 0 0 0 0 0 0 0 0 0 0 0 0 0 0 0 0 0 0 0
0 0 0 0 0 0 0 0 0 0 0 0 0 0 0 0 0 0 0 0 0 0 0 0 0 0 0 0 0 0 0 0 0 0 0 0 0 0 0 0 0 0 0 0
0 0 0 0 0 0 0 0 0 0 0 0 0 0 0 0 0 0 0 0 0 0 0 0 0 0 0 0 0 0 0 0 0 0 0 0 0 0 0 0 0 0 0 0
0 0 0 0 0 0 0 0 0 0 0 0 0 0 0 0 0 0 0 0 0 0 0 0 0 0 0 0 0 0 0 0 0 0 0 0 0 0 0 0 0 0 0 0
0 0 0 0 0 0 0 0 0 0 0 0 0 0 0 0 0 0 0 0 0 0 0 0 0 0 0 0 0 0 0 0 0 0 0 0 0 0 0 0 0 0 0 0

GFSCGP_con_sbcape_114.txt.gz
CAPE
0 0 0 0 0 0 0 0 0 321 207 219 49 46 49 47 30 30 61 28 86 84 112 217 201 350 290 157 87 35 0 0 20 0 0 0 11 0 307 493 758 726 931 842
0 0 0 0 0 0 0 0 55 269 253 136 110 138 108 95 39 13 96 63 45 70 102 156 173 303 252 142 78 43 52 28 84 45 16 13 31 193 313 319 704 777 847 559
0 0 0 0 0 0 0 0 66 244 264 202 210 142 74 102 64 49 103 84 95 118 160 220 164 242 151 90 72 71 106 89 98 185 200 219 345 408 429 292 604 888 917 556
0 0 0 0 0 0 0 0 1 294 69 35 17 3 28 121 46 79 33 52 92 131 94 151 166 208 93 90 76 77 96 116 114 279 243 297 399 467 395 263 473 645 845 826
0 0 0 0 0 0 0 0 0 243 10 0 0 0 0 90 88 38 16 47 110 53 42 109 146 177 71 99 105 117 83 75 180 352 224 239 278 202 268 356 519 582 630 661
0 0 0 0 0 0 112 76 3 0 0 0 0 0 0 47 46 53 21 11 46 90 6 28 63 19 22 18 119 152 90 73 171 254 148 96 153 152 330 366 490 567 626 668
0 0 0 0 0 0 31 27 20 36 42 9 0 0 0 0 23 60 11 4 26 148 32 17 2 57 44 107 171 197 148 164 214 288 108 54 76 102 237 342 515 476 544 673
0 0 0 0 0 0 16 0 1 0 0 0 7 5 0 5 3 38 21 0 29 131 71 22 63 18 58 129 214 222 165 165 337 404 393 53 4 42 99 220 442 548 508 653
0 0 0 0 0 0 0 3 0 0 0 5 8 103 83 10 41 83 50 32 29 118 162 78 51 230 50 75 259 218 127 119 289 349 372 83 0 0 21 155 282 473 467 544
0 0 0 0 0 0 0 0 0 0 0 0 13 68 49 103 56 126 93 89 99 121 227 219 165 327 153 84 129 359 161 122 240 291 308 153 21 31 107 113 167 469 446 465
0 0 0 0 0 0 0 0 0 0 0 0 0 0 80 66 40 8 7 11 34 148 206 134 170 233 136 148 259 597 265 97 243 330 302 296 284 255 93 7 26 153 451 369
0 0 0 0 0 0 0 0 0 0 0 0 0 0 9 85 24 2 1 22 5 10 41 133 139 230 120 74 70 19 0 2 0 0 24 3 53 170 515 502 245 95 194 195
0 0 0 0 0 0 0 0 0 0 0 6 0 0 28 33 13 14 15 1 16 1 13 85 77 86 68 27 12 1 1 3 0 0 0 0 1 40 209 474 692 750 477 244
0 0 0 0 0 0 0 0 0 0 0 0 0 15 96 23 3 2 58 42 28 16 3 1 18 29 20 2 18 23 22 6 5 4 1 0 2 2 38 234 548 752 620 400
0 0 0 0 0 0 0 0 0 0 0 5 7 34 135 16 0 41 64 18 3 0 3 2 1 4 1 1 15 4 12 1 3 10 32 3 2 4 3 22 41 86 388 501
0 0 0 0 0 0 0 0 0 148 114 124 47 72 89 0 0 28 74 37 0 0 1 0 1 2 2 3 6 2 2 0 0 1 2 0 0 1 4 4 2 1 18 75
0 0 0 0 0 0 0 0 0 0 184 213 149 48 16 0 35 77 87 41 5 0 0 0 3 3 3 2 7 4 4 3 0 0 0 0 0 0 0 1 3 4 3 1
0 0 0 0 0 0 0 0 133 225 161 114 66 92 44 2 4 8 13 3 0 0 0 0 0 2 1 1 0 0 2 1 0 0 0 0 0 0 0 0 0 0 0 0
0 0 0 0 0 0 0 0 0 0 34 143 138 79 5 0 0 0 0 0 0 0 0 0 0 0 0 0 0 0 0 0 0 0 0 0 0 0 0 0 0 0 0 0
0 0 0 0 0 0 0 0 0 0 0 244 190 43 33 10 0 0 0 0 0 0 0 0 0 0 0 0 0 0 0 0 0 0 0 0 0 0 0 0 0 0 0 0
0 0 0 0 0 0 0 0 0 0 0 258 197 40 17 10 0 0 0 0 0 0 0 0 0 0 0 0 0 0 0 0 0 0 0 0 0 0 0 0 0 0 0 0
0 0 0 0 0 0 0 0 0 0 0 220 218 27 9 0 0 0 0 0 0 0 0 0 0 0 0 0 0 0 0 0 0 0 0 0 0 0 0 0 0 0 0 0
0 0 0 0 0 0 0 0 0 0 0 14 22 0 0 0 0 0 0 0 0 0 0 0 0 0 0 0 0 0 0 0 0 0 0 0 0 0 0 0 0 0 0 0
0 0 0 0 0 0 0 0 0 0 0 0 0 0 0 0 0 0 0 0 0 0 0 0 0 0 0 0 0 0 0 0 0 0 0 0 0 0 0 0 0 0 0 0
0 0 0 0 0 0 0 0 0 0 0 0 0 0 0 0 0 0 0 0 0 0 0 0 0 0 0 0 0 0 0 0 0 0 0 0 0 0 0 0 0 0 0 0
0 0 0 0 0 0 0 0 0 0 0 0 0 0 0 0 0 0 0 0 0 0 0 0 0 0 0 0 0 0 0 0 0 0 0 0 0 0 0 0 0 0 0 0

GFSCGP_con_sbcape_117.txt.gz
CAPE
0 0 0 0 0 0 0 0 0 343 452 426 275 273 305 305 153 157 165 98 298 269 368 434 411 535 772 846 925 957 888 481 150 484 553 742 1143 1314 1480 1747 1839 2102 2004 2056
0 0 0 0 0 0 0 0 387 485 470 401 323 265 273 303 223 183 115 71 164 219 269 453 498 621 782 909 925 877 825 586 334 367 478 547 1088 1068 1338 1662 1817 1956 2002 1918
0 0 0 0 0 0 0 0 271 348 501 399 367 419 320 268 195 101 87 102 103 172 260 446 542 722 770 908 889 871 797 382 375 613 565 885 1088 1345 1286 1500 1738 1819 1960 1787
0 0 0 0 0 0 0 0 10 513 256 91 220 97 277 263 254 107 110 114 80 174 240 331 473 709 749 818 774 761 745 395 737 1053 680 1045 875 1126 1743 1877 1810 2019 1947 1981
0 0 0 0 0 0 0 0 0 54 177 88 221 63 55 155 319 195 101 123 114 97 98 330 417 563 629 712 695 658 783 873 820 1150 1047 1120 1563 1817 1167 1670 1719 2091 2225 2062
0 0 0 0 0 0 47 4 69 149 122 0 24 36 63 231 350 300 228 151 175 121 115 190 290 416 520 590 613 626 818 989 984 1084 1245 1537 1485 1846 2042 1570 1444 2035 1758 1865
0 0 0 0 0 0 207 47 154 152 82 4 17 39 49 99 87 340 310 169 185 151 183 183 267 363 419 429 543 594 905 1040 1054 1195 1302 1170 1265 1409 1437 1904 2374 2126 1598 1896
0 0 0 0 0 0 19 0 0 0 26 5 100 93 85 120 84 111 327 250 138 142 231 261 221 338 359 305 546 654 898 1126 1089 1160 1435 1274 1249 1085 1324 1598 1321 1477 1687 2845
0 0 0 0 0 0 0 0 0 25 0 68 147 146 266 153 197 179 310 190 99 223 260 217 263 269 361 331 507 691 877 1022 1126 1164 1759 1627 1116 892 1066 1350 1618 1624 1857 2141
0 0 0 0 0 0 0 0 0 10 60 1 145 222 243 204 283 355 311 246 115 227 319 306 338 471 468 386 571 728 931 1040 1160 1323 1626 1772 1139 862 697 905 1435 1657 1673 1854
0 0 0 0 0 0 0 0 0 5 0 6 71 227 426 405 279 452 326 217 213 236 310 420 299 529 659 608 467 950 1034 1025 1053 1223 1543 1626 1206 931 1047 994 1156 1391 1650 1775
0 0 0 0 0 0 0 0 0 20 0 4 83 41 198 318 287 283 279 320 309 255 357 420 356 410 392 504 643 1025 1254 1153 1143 1055 1384 1214 1137 1310 1386 1183 802 970 1260 1473
0 0 0 0 0 0 0 0 0 0 70 137 6 22 240 397 261 153 146 244 350 352 377 449 330 419 543 281 137 174 343 411 638 803 824 682 729 864 1257 1581 1769 1413 1597 1784
0 0 9 0 6 0 0 0 0 0 48 115 53 251 316 378 391 159 194 212 138 127 93 163 282 330 241 199 156 142 144 178 220 272 79 193 262 310 244 643 1669 1983 2120 1954
0 27 0 0 0 0 0 0 57 0 0 90 156 351 465 441 327 212 303 212 76 16 43 78 96 185 145 70 58 45 63 67 103 70 70 61 101 123 255 312 625 1614 2110 2002
0 9 0 0 0 0 0 0 14 94 85 148 152 384 365 608 356 269 229 94 125 57 46 6 3 21 29 22 20 2 3 8 16 4 12 5 84 85 7 105 275 552 968 1325
1 7 24 6 0 4 2 0 0 146 285 337 331 331 423 495 346 292 190 149 86 15 3 6 6 2 6 10 5 4 2 1 2 1 2 1 2 30 21 7 5 60 122 537
0 12 13 1 23 49 6 1 52 163 356 463 457 327 475 422 325 256 370 263 4 1 7 6 4 4 2 2 4 3 2 1 0 0 0 0 0 3 5 6 4 8 7 95
0 0 0 17 4 1 0 0 0 0 0 164 451 434 408 455 293 323 219 0 0 0 1 3 3 3 4 3 4 5 9 0 0 0 0 0 0 0 0 0 0 4 5 4
0 0 1 0 0 0 0 0 0 4 0 374 540 485 528 389 277 3 0 0 0 0 0 0 0 1 0 0 0 0 2 1 0 0 0 0 0 0 0 0 0 0 0 0
0 0 0 0 0 0 0 0 0 10 12 401 675 621 639 709 542 0 0 0 0 0 0 0 0 0 0 0 0 0 0 0 0 0 0 0 0 0 0 0 0 0 0 0
0 0 0 0 0 0 0 39 7 79 108 342 735 654 584 16 72 1 0 0 0 0 0 0 0 0 0 0 0 0 0 0 0 0 0 0 0 0 0 0 0 0 0 0
120 1 35 0 0 0 0 21 127 117 267 524 762 335 14 0 0 0 0 0 0 0 0 0 0 0 0 0 0 0 0 0 0 0 0 0 0 0 0 0 0 0 0 0
7 0 279 104 76 36 0 6 62 33 99 160 388 73 15 0 0 0 0 0 0 0 0 0 0 0 0 0 0 0 0 0 0 0 0 0 0 0 0 0 0 0 0 0
101 11 86 78 14 0 1 0 0 100 169 232 40 13 4 0 0 0 0 0 0 0 0 0 0 0 0 0 0 0 0 0 0 0 0 0 0 0 0 0 0 0 0 0
52 212 427 472 54 52 18 0 0 103 230 220 137 8 0 0 0 0 0 0 0 0 0 0 0 0 0 0 0 0 0 0 0 0 0 0 0 0 0 0 0 0 0 0

GFSCGP_con_sbcape_120.txt.gz
CAPE
0 0 0 20 0 0 197 124 210 514 673 551 315 333 197 191 147 84 151 256 380 390 510 574 552 658 771 906 1021 1008 1123 1157 916 1121 915 966 1081 1269 1325 1323 1844 2107 1920 2346
0 0 1 25 0 0 0 6 270 465 748 713 350 331 667 547 101 0 96 112 339 352 433 637 733 697 906 1025 1155 1285 1361 1554 700 867 1042 851 984 1046 1176 1291 1839 1681 1894 2161
0 0 0 0 0 0 0 0 311 283 580 570 583 521 612 606 553 91 86 79 134 335 465 729 850 781 894 1130 1149 1296 1465 1485 1416 856 1071 1345 1691 1671 1544 1509 1679 1714 1639 1802
0 0 0 0 0 0 35 0 148 489 334 270 553 414 605 688 651 247 199 115 52 167 439 535 828 880 905 1054 1118 1141 1501 1535 1183 1155 1020 1065 831 1330 1837 2108 1358 1491 1596 1628
0 0 0 0 0 0 6 0 0 2 5 23 240 137 464 706 613 571 490 104 113 82 258 453 522 817 945 1039 1005 834 1396 1335 929 1570 1403 1125 1154 816 930 1072 1569 1600 1963 1929
0 0 0 0 0 0 0 0 0 0 3 1 24 82 490 537 572 533 450 429 241 99 203 363 544 713 957 981 1001 783 1185 1651 1501 1673 1397 1610 1340 1061 1095 1270 1333 1388 1330 1618
0 0 0 0 0 0 0 1 61 32 36 10 60 52 108 374 394 434 770 548 392 171 89 238 465 773 950 960 1077 844 1152 1576 1665 1642 1408 1235 1321 1455 1520 1542 1382 1247 1204 1150
0 0 0 0 0 0 0 37 71 93 91 86 184 50 145 309 421 548 778 670 614 453 185 153 484 815 1010 896 1076 979 1274 1437 1596 1551 1802 1568 1257 1436 2339 1554 1003 950 925 1336
0 0 0 0 0 0 0 0 6 60 84 127 309 142 714 534 472 468 573 788 579 609 287 181 245 652 820 884 1047 1130 1233 1659 1657 1411 1871 1929 1575 1405 2351 1754 1618 1313 1243 905
0 5 0 0 0 0 0 0 0 1 118 90 174 163 196 831 591 678 725 869 829 614 313 305 399 600 839 803 881 1130 1306 1674 1632 1335 1490 1450 1470 1732 1878 2065 1921 1887 1561 1198
0 10 4 0 0 0 0 0 0 4 7 93 120 174 777 776 718 906 826 907 938 823 703 466 705 789 829 817 809 1040 1307 1512 1478 1535 1230 1463 1257 1449 1784 1348 1658 2189 1887 1757
0 27 88 36 0 0 0 0 0 8 36 46 90 339 788 911 739 968 931 971 911 821 804 778 613 824 1115 1059 840 1127 1409 1364 1390 1477 1570 1200 1273 1131 1192 1570 1580 1932 2426 2519
16 23 76 45 1 0 0 0 0 10 36 79 60 44 921 896 837 971 993 817 828 714 751 795 862 940 890 1017 1121 1212 1375 1445 1424 1577 1293 1164 1170 1234 1253 1290 1153 1456 1787 2076
3 68 47 77 90 55 1 0 0 0 17 38 89 166 934 1037 961 905 818 566 702 722 859 761 799 983 881 900 663 907 1164 1171 1309 1351 1305 1457 1421 1396 1295 1650 1683 2074 1750 1910
19 65 53 12 0 0 1 0 0 15 9 59 61 87 117 987 1112 944 612 479 463 634 504 589 704 739 584 623 639 546 722 727 806 592 747 865 781 988 1078 1133 1618 2017 1845 1278
0 34 31 22 0 1 0 0 5 23 53 67 95 165 718 1081 1138 750 751 549 638 545 449 419 435 419 347 297 322 267 155 146 320 287 299 280 359 405 410 554 634 1282 1940 1981
1 2 32 65 19 22 27 7 5 91 244 258 310 779 896 1158 825 755 667 646 558 434 438 461 487 409 390 164 4 2 1 4 2 17 205 179 245 324 393 342 419 337 765 1529
32 32 15 96 113 113 142 66 27 72 199 612 501 549 647 964 786 565 577 412 325 305 144 8 5 4 5 19 6 7 2 2 2 1 3 5 17 58 115 256 301 300 396 497
61 140 106 36 48 76 68 68 53 65 88 71 76 504 874 714 512 530 656 666 516 218 8 6 5 5 4 6 8 7 3 0 4 3 2 3 2 2 0 5 57 161 233 307
28 161 214 164 89 77 156 17 24 88 153 199 430 703 660 720 660 468 429 455 286 7 6 6 4 3 2 2 8 5 2 1 1 2 1 0 1 2 0 0 4 39 63 6
43 114 135 189 123 66 33 45 36 151 291 328 749 944 883 697 845 292 123 49 76 9 6 4 0 1 1 1 1 1 2 1 0 0 0 0 0 1 0 3 2 0 9 59
75 75 46 41 56 59 168 163 149 516 414 385 806 1165 1183 610 500 134 4 6 1 1 0 0 0 0 0 0 0 0 2 3 0 0 0 0 0 0 0 0 0 1 0 1
363 131 271 33 297 441 372 434 419 580 755 719 959 1181 814 879 382 2 3 1 0 0 0 0 0 0 0 0 0 0 0 1 0 0 0 0 0 0 0 0 0 0 0 0
464 378 337 428 362 421 372 456 360 816 929 705 1104 983 802 790 450 119 7 2 0 0 0 0 0 0 0 0 0 0 0 0 0 0 0 0 0 0 0 0 0 0 0 0
567 544 613 577 639 475 341 346 401 732 1016 989 965 930 863 714 424 103 4 1 0 0 0 0 0 0 0 0 0 0 0 0 0 0 0 0 0 0 0 0 0 0 0 0
407 530 548 426 785 635 701 349 356 424 726 836 812 840 833 630 203 4 3 0 0 0 0 0 0 0 0 0 0 0 0 0 0 0 0 0 0 0 0 0 0 0 0 0

GFSCGP_con_sbcape_123.txt.gz
CAPE
0 0 4 50 100 17 36 81 159 337 952 574 311 279 222 198 220 221 204 235 168 121 210 194 257 306 421 530 1065 1532 1686 1262 1659 1104 850 1075 958 1432 1129 1027 1659 1822 1657 1899
0 0 0 50 71 2 22 165 224 406 736 549 374 251 221 259 183 115 63 56 160 194 279 274 332 330 449 658 1140 1066 1204 1440 1366 2212 1980 2604 1513 2293 1916 1611 1222 1523 1517 1923
0 0 0 53 58 0 14 71 167 320 592 507 411 544 308 167 182 1 24 73 106 265 190 343 462 439 450 463 930 1700 1584 1580 1244 1431 1733 1425 2415 1811 1539 2101 1693 1452 1528 1522
0 0 21 18 15 4 28 1 26 8 464 356 576 520 646 435 316 42 0 68 101 101 285 270 339 465 321 567 592 1020 1537 1749 1578 1476 2009 2551 1146 1299 1477 1614 2178 1831 1345 1350
0 0 0 7 6 20 6 1 13 195 288 156 238 159 157 830 713 369 91 29 144 12 265 235 204 342 489 547 476 765 1390 1745 1465 1679 1751 1385 1690 2265 1222 1882 1879 2221 2436 1474
35 8 0 4 1 0 4 0 0 3 68 56 187 171 309 965 950 851 290 75 40 0 107 244 275 221 525 514 411 486 1116 1755 1521 1845 1674 1670 1462 1863 1661 1332 1741 1476 1410 1589
10 0 0 0 0 0 0 1 41 52 92 81 62 107 631 223 597 973 596 426 83 5 61 83 303 310 571 670 344 506 1129 1720 1679 1694 1486 1549 1734 1542 1172 1724 1414 2383 1555 1366
32 0 0 0 0 0 0 25 150 188 167 156 161 134 584 508 462 660 969 679 417 35 62 45 365 357 836 604 508 501 1349 1638 1500 1422 1705 1849 1618 1417 1632 1735 1549 807 733 1518
37 38 0 0 0 0 0 1 62 40 16 68 25 262 622 403 600 585 593 950 787 388 148 28 178 434 755 608 997 1127 1429 1708 1557 1207 1842 1966 1664 1428 1237 1718 2163 1245 1178 1181
35 55 1 0 0 0 0 5 5 14 69 122 216 365 10 425 430 559 643 1031 811 882 434 169 142 408 512 722 1184 963 1306 1839 1550 1133 1268 1388 1466 1619 1419 1544 1897 1617 1517 996
28 18 14 0 0 0 0 0 1 29 46 69 135 463 516 652 570 723 765 823 968 899 799 274 250 390 958 1138 1345 1156 1375 1759 1721 1289 1362 1207 1110 1249 1742 1308 1493 1838 2029 1671
2 44 86 26 0 0 13 0 1 22 19 9 9 143 128 320 688 762 822 1032 1059 1017 938 360 275 683 956 572 1291 1152 1491 1586 1696 1570 1516 1098 1102 1122 1418 1653 1719 1818 1978 1997
40 48 146 42 27 0 0 17 11 1 32 52 109 369 987 821 730 949 1004 1093 1280 1404 794 770 1114 1164 1362 1188 1610 1391 1581 1791 1604 1603 1599 1571 1252 1035 1215 1571 1538 1701 1853 2300
0 31 114 3 37 29 4 0 7 30 74 61 67 791 807 769 1008 1298 1208 1327 1211 1402 1294 1141 1069 1165 1085 1288 1312 1318 1489 1692 2295 1906 1827 2363 1734 1375 1027 1512 1565 1657 1882 1876
0 55 72 10 3 0 14 35 11 3 1 45 38 104 192 499 1010 1229 1457 1426 1312 1014 1015 1006 1172 1168 1207 1265 1164 1241 1302 1530 2123 1820 2183 1847 2282 2260 1593 1593 1768 1563 1648 1606
6 6 3 1 10 4 2 9 28 40 35 18 19 30 246 612 1276 1359 976 958 1109 1234 1146 1114 1058 1095 996 1118 1066 963 1193 1252 1405 1584 1449 1452 1487 1399 1554 1680 1766 1935 1923 1823
18 18 49 8 8 31 24 4 29 50 115 114 109 924 774 578 1694 1479 1034 832 984 897 763 959 971 913 778 531 99 52 110 185 417 571 562 631 820 873 922 1039 987 1369 1903 2078
117 99 114 147 181 124 79 101 72 82 137 147 207 255 656 1263 1248 1028 952 785 682 794 538 266 218 232 278 24 2 0 0 41 0 1 1 5 94 216 616 604 773 861 1084 1588
18 155 222 166 161 108 39 145 142 104 116 59 121 254 1185 1283 1104 900 877 944 886 541 181 25 15 5 8 45 9 8 7 9 4 3 2 3 0 1 0 52 163 354 576 939
3 43 194 232 189 158 44 30 16 79 176 251 289 347 1052 967 1030 1281 1158 252 276 103 8 7 6 3 1 1 6 3 7 14 12 1 3 6 7 5 2 2 0 23 122 332
53 32 125 120 150 196 102 3 0 43 413 195 383 532 1061 1042 930 1153 695 168 112 7 8 6 2 4 4 2 0 6 9 8 9 5 5 5 0 2 8 9 0 0 47 3
147 203 172 173 163 146 85 8 48 468 370 320 316 666 1161 859 965 491 155 85 7 8 5 2 1 2 1 1 0 2 5 4 0 0 0 0 2 0 7 13 20 7 0 105
250 206 286 241 362 320 133 300 324 418 452 524 524 936 1341 1124 619 135 6 7 6 2 0 0 0 0 0 0 1 5 8 0 0 0 0 0 0 0 0 0 0 1 24 102
285 387 276 256 172 218 201 329 349 382 446 692 810 1053 1088 864 374 25 9 3 0 0 0 0 0 0 0 0 0 0 0 0 0 0 0 0 0 0 0 0 0 0 0 0
358 363 247 238 388 375 327 316 356 524 608 878 962 945 918 750 516 271 25 6 0 0 0 0 0 0 0 0 0 0 0 0 0 0 0 0 0 0 0 0 0 0 0 0
72 262 328 380 662 396 666 484 340 395 544 757 955 928 941 792 556 371 129 7 0 0 0 0 0 0 0 0 0 0 0 0 0 0 0 0 0 0 0 0 0 0 0 0